Wetterdaten: Montag, 07.03.2016
Datum Zeit Temp. A. Feuchte A. Luftdruck Regen Wind Richtung Richtung Sonnenschein ET UV Solar Taupunkt Windchill Windben Empfang
07.03.2016 00:00 1,8 C 75 % 1003,8 hPa 0,0 l/m 3,7 km/h (1 Bft) S-SW 192 0 min 0,000 mm 0,0 UV-I 0 W/m -2,1 C 1,8 C 4,8 km/h (1 Bft) 96,30 %
07.03.2016 00:02 1,7 C 75 % 1003,9 hPa 0,0 l/m 3,9 km/h (1 Bft) S-SW 212 0 min 0,000 mm 0,0 UV-I 0 W/m -2,2 C 1,7 C 4,8 km/h (1 Bft) 100,00 %
07.03.2016 00:03 1,7 C 76 % 1003,9 hPa 0,0 l/m 3,8 km/h (1 Bft) S-SW 212 0 min 0,000 mm 0,0 UV-I 0 W/m -2,1 C 1,7 C 4,8 km/h (1 Bft) 100,00 %
07.03.2016 00:04 1,7 C 76 % 1003,9 hPa 0,0 l/m 3,3 km/h (1 Bft) S-SW 212 0 min 0,000 mm 0,0 UV-I 0 W/m -2,1 C 1,7 C 4,8 km/h (1 Bft) 100,00 %
07.03.2016 00:05 1,6 C 77 % 1003,9 hPa 0,0 l/m 3,4 km/h (1 Bft) S-SW 212 0 min 0,000 mm 0,0 UV-I 0 W/m -2,0 C 1,6 C 4,8 km/h (1 Bft) 100,00 %
07.03.2016 00:06 1,6 C 77 % 1003,9 hPa 0,0 l/m 2,7 km/h (1 Bft) S-SW 212 0 min 0,000 mm 0,0 UV-I 0 W/m -2,0 C 1,6 C 4,8 km/h (1 Bft) 100,00 %
07.03.2016 00:07 1,6 C 77 % 1003,8 hPa 0,0 l/m 3,2 km/h (1 Bft) S-SW 212 0 min 0,000 mm 0,0 UV-I 0 W/m -2,0 C 1,6 C 4,8 km/h (1 Bft) 100,00 %
07.03.2016 00:08 1,5 C 78 % 1003,8 hPa 0,0 l/m 4,6 km/h (1 Bft) S-SW 211 0 min 0,000 mm 0,0 UV-I 0 W/m -1,9 C 1,5 C 4,8 km/h (1 Bft) 100,00 %
07.03.2016 00:09 1,4 C 78 % 1003,9 hPa 0,0 l/m 3,8 km/h (1 Bft) S-SW 211 0 min 0,000 mm 0,0 UV-I 0 W/m -2,0 C 1,4 C 4,8 km/h (1 Bft) 96,55 %
07.03.2016 00:10 1,4 C 78 % 1003,9 hPa 0,0 l/m 4,3 km/h (1 Bft) S-SW 211 0 min 0,000 mm 0,0 UV-I 0 W/m -2,0 C 1,4 C 6,4 km/h (2 Bft) 100,00 %
07.03.2016 00:11 1,4 C 78 % 1003,8 hPa 0,0 l/m 3,4 km/h (1 Bft) S-SW 211 0 min 0,000 mm 0,0 UV-I 0 W/m -2,0 C 1,4 C 4,8 km/h (1 Bft) 100,00 %
07.03.2016 00:12 1,4 C 78 % 1003,8 hPa 0,0 l/m 4,0 km/h (1 Bft) S-SW 211 0 min 0,000 mm 0,0 UV-I 0 W/m -2,0 C 1,4 C 4,8 km/h (1 Bft) 100,00 %
07.03.2016 00:13 1,4 C 78 % 1003,8 hPa 0,0 l/m 3,2 km/h (1 Bft) S-SW 211 0 min 0,000 mm 0,0 UV-I 0 W/m -2,0 C 1,4 C 4,8 km/h (1 Bft) 96,15 %
07.03.2016 00:14 1,5 C 78 % 1003,8 hPa 0,0 l/m 3,1 km/h (1 Bft) S-SW 211 0 min 0,000 mm 0,0 UV-I 0 W/m -1,9 C 1,5 C 4,8 km/h (1 Bft) 100,00 %
07.03.2016 00:15 1,5 C 77 % 1003,8 hPa 0,0 l/m 3,4 km/h (1 Bft) S-SW 211 0 min 0,000 mm 0,0 UV-I 0 W/m -2,1 C 1,5 C 4,8 km/h (1 Bft) 100,00 %
07.03.2016 00:16 1,6 C 77 % 1003,8 hPa 0,0 l/m 3,0 km/h (1 Bft) S-SW 211 0 min 0,000 mm 0,0 UV-I 0 W/m -2,0 C 1,6 C 4,8 km/h (1 Bft) 100,00 %
07.03.2016 00:17 1,6 C 78 % 1003,8 hPa 0,0 l/m 3,8 km/h (1 Bft) S-SW 211 0 min 0,000 mm 0,0 UV-I 0 W/m -1,8 C 1,6 C 4,8 km/h (1 Bft) 100,00 %
07.03.2016 00:18 1,6 C 78 % 1003,8 hPa 0,0 l/m 2,7 km/h (1 Bft) S-SW 211 0 min 0,000 mm 0,0 UV-I 0 W/m -1,8 C 1,6 C 3,2 km/h (1 Bft) 100,00 %
07.03.2016 00:19 1,6 C 77 % 1003,8 hPa 0,0 l/m 3,0 km/h (1 Bft) S-SW 211 0 min 0,000 mm 0,0 UV-I 0 W/m -2,0 C 1,6 C 4,8 km/h (1 Bft) 100,00 %
07.03.2016 00:20 1,6 C 77 % 1003,8 hPa 0,0 l/m 3,8 km/h (1 Bft) S-SW 211 0 min 0,000 mm 0,0 UV-I 0 W/m -2,0 C 1,6 C 4,8 km/h (1 Bft) 100,00 %
07.03.2016 00:21 1,6 C 77 % 1003,8 hPa 0,0 l/m 3,6 km/h (1 Bft) S-SW 211 0 min 0,000 mm 0,0 UV-I 0 W/m -2,0 C 1,6 C 4,8 km/h (1 Bft) 100,00 %
07.03.2016 00:22 1,7 C 76 % 1003,8 hPa 0,0 l/m 3,0 km/h (1 Bft) S-SW 211 0 min 0,000 mm 0,0 UV-I 0 W/m -2,1 C 1,7 C 4,8 km/h (1 Bft) 100,00 %
07.03.2016 00:23 1,7 C 76 % 1003,8 hPa 0,0 l/m 3,8 km/h (1 Bft) S-SW 209 0 min 0,000 mm 0,0 UV-I 0 W/m -2,1 C 1,7 C 4,8 km/h (1 Bft) 100,00 %
07.03.2016 00:24 1,8 C 76 % 1003,8 hPa 0,0 l/m 3,0 km/h (1 Bft) S-SW 209 0 min 0,000 mm 0,0 UV-I 0 W/m -2,0 C 1,8 C 3,2 km/h (1 Bft) 100,00 %
07.03.2016 00:25 1,8 C 77 % 1003,8 hPa 0,0 l/m 2,0 km/h (1 Bft) S-SW 209 0 min 0,000 mm 0,0 UV-I 0 W/m -1,8 C 1,8 C 3,2 km/h (1 Bft) 95,83 %
07.03.2016 00:26 1,8 C 77 % 1003,8 hPa 0,0 l/m 2,2 km/h (1 Bft) S-SW 209 0 min 0,000 mm 0,0 UV-I 0 W/m -1,8 C 1,8 C 3,2 km/h (1 Bft) 95,65 %
07.03.2016 00:27 1,8 C 77 % 1003,8 hPa 0,0 l/m 3,2 km/h (1 Bft) S-SW 209 0 min 0,000 mm 0,0 UV-I 0 W/m -1,8 C 1,8 C 4,8 km/h (1 Bft) 91,67 %
07.03.2016 00:28 1,8 C 77 % 1003,8 hPa 0,0 l/m 3,3 km/h (1 Bft) S-SW 209 0 min 0,000 mm 0,0 UV-I 0 W/m -1,8 C 1,8 C 4,8 km/h (1 Bft) 96,15 %
07.03.2016 00:29 1,8 C 76 % 1003,8 hPa 0,0 l/m 3,8 km/h (1 Bft) S-SW 193 0 min 0,000 mm 0,0 UV-I 0 W/m -2,0 C 1,8 C 4,8 km/h (1 Bft) 100,00 %
07.03.2016 00:30 1,8 C 76 % 1003,8 hPa 0,0 l/m 3,6 km/h (1 Bft) S-SW 193 0 min 0,000 mm 0,0 UV-I 0 W/m -2,0 C 1,8 C 4,8 km/h (1 Bft) 100,00 %
07.03.2016 00:31 1,8 C 76 % 1003,8 hPa 0,0 l/m 2,4 km/h (1 Bft) S-SW 193 0 min 0,000 mm 0,0 UV-I 0 W/m -2,0 C 1,8 C 4,8 km/h (1 Bft) 100,00 %
07.03.2016 00:32 1,8 C 76 % 1003,8 hPa 0,0 l/m 3,6 km/h (1 Bft) S-SW 193 0 min 0,000 mm 0,0 UV-I 0 W/m -2,0 C 1,8 C 4,8 km/h (1 Bft) 100,00 %
07.03.2016 00:33 1,8 C 76 % 1003,8 hPa 0,0 l/m 2,8 km/h (1 Bft) S-SW 193 0 min 0,000 mm 0,0 UV-I 0 W/m -2,0 C 1,8 C 3,2 km/h (1 Bft) 100,00 %
07.03.2016 00:34 1,8 C 76 % 1003,8 hPa 0,0 l/m 3,3 km/h (1 Bft) S-SW 193 0 min 0,000 mm 0,0 UV-I 0 W/m -2,0 C 1,8 C 4,8 km/h (1 Bft) 95,65 %
07.03.2016 00:35 1,8 C 77 % 1003,8 hPa 0,0 l/m 2,5 km/h (1 Bft) S-SW 193 0 min 0,000 mm 0,0 UV-I 0 W/m -1,8 C 1,8 C 3,2 km/h (1 Bft) 100,00 %
07.03.2016 00:36 1,8 C 76 % 1003,8 hPa 0,0 l/m 3,0 km/h (1 Bft) S-SW 193 0 min 0,000 mm 0,0 UV-I 0 W/m -2,0 C 1,8 C 3,2 km/h (1 Bft) 100,00 %
07.03.2016 00:37 1,8 C 76 % 1003,8 hPa 0,0 l/m 2,8 km/h (1 Bft) S-SW 193 0 min 0,000 mm 0,0 UV-I 0 W/m -2,0 C 1,8 C 3,2 km/h (1 Bft) 96,88 %
07.03.2016 00:38 1,8 C 77 % 1003,8 hPa 0,0 l/m 2,6 km/h (1 Bft) S-SW 193 0 min 0,000 mm 0,0 UV-I 0 W/m -1,8 C 1,8 C 3,2 km/h (1 Bft) 100,00 %
07.03.2016 00:39 1,8 C 77 % 1003,8 hPa 0,0 l/m 3,1 km/h (1 Bft) S-SW 194 0 min 0,000 mm 0,0 UV-I 0 W/m -1,8 C 1,8 C 6,4 km/h (2 Bft) 100,00 %
07.03.2016 00:40 1,8 C 76 % 1003,8 hPa 0,0 l/m 3,2 km/h (1 Bft) S-SW 194 0 min 0,000 mm 0,0 UV-I 0 W/m -2,0 C 1,8 C 4,8 km/h (1 Bft) 100,00 %
07.03.2016 00:41 1,8 C 76 % 1003,8 hPa 0,0 l/m 3,1 km/h (1 Bft) S-SW 194 0 min 0,000 mm 0,0 UV-I 0 W/m -2,0 C 1,8 C 3,2 km/h (1 Bft) 100,00 %
07.03.2016 00:42 1,8 C 76 % 1003,8 hPa 0,0 l/m 2,9 km/h (1 Bft) S-SW 194 0 min 0,000 mm 0,0 UV-I 0 W/m -2,0 C 1,8 C 4,8 km/h (1 Bft) 100,00 %
07.03.2016 00:43 1,7 C 76 % 1003,8 hPa 0,0 l/m 2,9 km/h (1 Bft) S-SW 194 0 min 0,000 mm 0,0 UV-I 0 W/m -2,1 C 1,7 C 4,8 km/h (1 Bft) 100,00 %
07.03.2016 00:44 1,7 C 76 % 1003,8 hPa 0,0 l/m 3,1 km/h (1 Bft) S-SW 194 0 min 0,000 mm 0,0 UV-I 0 W/m -2,1 C 1,7 C 4,8 km/h (1 Bft) 100,00 %
07.03.2016 00:45 1,7 C 77 % 1003,8 hPa 0,0 l/m 3,2 km/h (1 Bft) S-SW 194 0 min 0,000 mm 0,0 UV-I 0 W/m -1,9 C 1,7 C 4,8 km/h (1 Bft) 100,00 %
07.03.2016 00:46 1,7 C 77 % 1003,8 hPa 0,0 l/m 3,3 km/h (1 Bft) S-SW 194 0 min 0,000 mm 0,0 UV-I 0 W/m -1,9 C 1,7 C 4,8 km/h (1 Bft) 100,00 %
07.03.2016 00:47 1,7 C 77 % 1003,8 hPa 0,0 l/m 4,1 km/h (1 Bft) S-SW 202 0 min 0,000 mm 0,0 UV-I 0 W/m -1,9 C 1,7 C 4,8 km/h (1 Bft) 100,00 %
07.03.2016 00:48 1,7 C 77 % 1003,8 hPa 0,0 l/m 3,8 km/h (1 Bft) S-SW 207 0 min 0,000 mm 0,0 UV-I 0 W/m -1,9 C 1,7 C 6,4 km/h (2 Bft) 100,00 %
07.03.2016 00:49 1,7 C 77 % 1003,8 hPa 0,0 l/m 4,8 km/h (1 Bft) SW 228 0 min 0,000 mm 0,0 UV-I 0 W/m -1,9 C 1,7 C 6,4 km/h (2 Bft) 100,00 %
07.03.2016 00:50 1,7 C 77 % 1003,8 hPa 0,0 l/m 3,6 km/h (1 Bft) SW 228 0 min 0,000 mm 0,0 UV-I 0 W/m -1,9 C 1,7 C 4,8 km/h (1 Bft) 100,00 %
07.03.2016 00:51 1,7 C 77 % 1003,8 hPa 0,0 l/m 4,9 km/h (1 Bft) SW 223 0 min 0,000 mm 0,0 UV-I 0 W/m -1,9 C 1,7 C 6,4 km/h (2 Bft) 100,00 %
07.03.2016 00:52 1,7 C 76 % 1003,8 hPa 0,0 l/m 3,2 km/h (1 Bft) SW 227 0 min 0,000 mm 0,0 UV-I 0 W/m -2,1 C 1,7 C 6,4 km/h (2 Bft) 100,00 %
07.03.2016 00:53 1,7 C 76 % 1003,8 hPa 0,0 l/m 3,4 km/h (1 Bft) SW 227 0 min 0,000 mm 0,0 UV-I 0 W/m -2,1 C 1,7 C 4,8 km/h (1 Bft) 100,00 %
07.03.2016 00:54 1,7 C 76 % 1003,7 hPa 0,0 l/m 3,7 km/h (1 Bft) SW 227 0 min 0,000 mm 0,0 UV-I 0 W/m -2,1 C 1,7 C 4,8 km/h (1 Bft) 100,00 %
07.03.2016 00:55 1,7 C 76 % 1003,8 hPa 0,0 l/m 3,9 km/h (1 Bft) SW 229 0 min 0,000 mm 0,0 UV-I 0 W/m -2,1 C 1,7 C 4,8 km/h (1 Bft) 100,00 %
07.03.2016 00:56 1,7 C 76 % 1003,8 hPa 0,0 l/m 4,3 km/h (1 Bft) SW 229 0 min 0,000 mm 0,0 UV-I 0 W/m -2,1 C 1,7 C 4,8 km/h (1 Bft) 88,46 %
07.03.2016 00:57 1,7 C 76 % 1003,8 hPa 0,0 l/m 3,4 km/h (1 Bft) SW 229 0 min 0,000 mm 0,0 UV-I 0 W/m -2,1 C 1,7 C 4,8 km/h (1 Bft) 100,00 %
07.03.2016 00:58 1,8 C 76 % 1003,8 hPa 0,0 l/m 3,1 km/h (1 Bft) SW 229 0 min 0,000 mm 0,0 UV-I 0 W/m -2,0 C 1,8 C 4,8 km/h (1 Bft) 97,37 %
07.03.2016 00:59 1,8 C 76 % 1003,9 hPa 0,0 l/m 3,1 km/h (1 Bft) SW 229 0 min 0,000 mm 0,0 UV-I 0 W/m -2,0 C 1,8 C 4,8 km/h (1 Bft) 100,00 %
07.03.2016 01:00 1,8 C 77 % 1003,9 hPa 0,0 l/m 4,1 km/h (1 Bft) SW 229 0 min 0,000 mm 0,0 UV-I 0 W/m -1,8 C 1,8 C 6,4 km/h (2 Bft) 92,86 %
07.03.2016 01:01 1,7 C 77 % 1003,8 hPa 0,0 l/m 5,4 km/h (1 Bft) SW 223 0 min 0,000 mm 0,0 UV-I 0 W/m -1,9 C 1,7 C 8,0 km/h (2 Bft) 100,00 %
07.03.2016 01:02 1,7 C 77 % 1003,8 hPa 0,0 l/m 5,1 km/h (1 Bft) S-SW 209 0 min 0,000 mm 0,0 UV-I 0 W/m -1,9 C 1,7 C 6,4 km/h (2 Bft) 100,00 %
07.03.2016 01:03 1,7 C 78 % 1003,8 hPa 0,0 l/m 5,1 km/h (1 Bft) S-SW 202 0 min 0,000 mm 0,0 UV-I 0 W/m -1,7 C 1,7 C 6,4 km/h (2 Bft) 100,00 %
07.03.2016 01:04 1,7 C 78 % 1003,8 hPa 0,0 l/m 4,3 km/h (1 Bft) SW 221 0 min 0,000 mm 0,0 UV-I 0 W/m -1,7 C 1,7 C 6,4 km/h (2 Bft) 100,00 %
07.03.2016 01:05 1,7 C 78 % 1003,8 hPa 0,0 l/m 5,6 km/h (1 Bft) SW 214 0 min 0,000 mm 0,0 UV-I 0 W/m -1,7 C 1,7 C 6,4 km/h (2 Bft) 93,33 %
07.03.2016 01:06 1,7 C 77 % 1003,8 hPa 0,0 l/m 3,8 km/h (1 Bft) SW 217 0 min 0,000 mm 0,0 UV-I 0 W/m -1,9 C 1,7 C 4,8 km/h (1 Bft) 100,00 %
07.03.2016 01:07 1,7 C 77 % 1003,9 hPa 0,0 l/m 4,0 km/h (1 Bft) SW 217 0 min 0,000 mm 0,0 UV-I 0 W/m -1,9 C 1,7 C 4,8 km/h (1 Bft) 100,00 %
07.03.2016 01:08 1,7 C 78 % 1003,9 hPa 0,0 l/m 4,6 km/h (1 Bft) SW 235 0 min 0,000 mm 0,0 UV-I 0 W/m -1,7 C 1,7 C 6,4 km/h (2 Bft) 96,15 %
07.03.2016 01:09 1,7 C 77 % 1003,9 hPa 0,0 l/m 4,9 km/h (1 Bft) SW 235 0 min 0,000 mm 0,0 UV-I 0 W/m -1,9 C 1,7 C 6,4 km/h (2 Bft) 100,00 %
07.03.2016 01:10 1,7 C 77 % 1003,8 hPa 0,0 l/m 3,8 km/h (1 Bft) SW 226 0 min 0,000 mm 0,0 UV-I 0 W/m -1,9 C 1,7 C 4,8 km/h (1 Bft) 99,01 %
07.03.2016 01:11 1,7 C 77 % 1003,8 hPa 0,0 l/m 5,1 km/h (1 Bft) SW 227 0 min 0,000 mm 0,0 UV-I 0 W/m -1,9 C 1,7 C 6,4 km/h (2 Bft) 100,00 %
07.03.2016 01:12 1,7 C 77 % 1003,8 hPa 0,0 l/m 5,2 km/h (1 Bft) SW 227 0 min 0,000 mm 0,0 UV-I 0 W/m -1,9 C 1,7 C 6,4 km/h (2 Bft) 100,00 %
07.03.2016 01:13 1,7 C 77 % 1003,8 hPa 0,0 l/m 4,0 km/h (1 Bft) SW 229 0 min 0,000 mm 0,0 UV-I 0 W/m -1,9 C 1,7 C 6,4 km/h (2 Bft) 100,00 %
07.03.2016 01:14 1,7 C 77 % 1003,8 hPa 0,0 l/m 4,1 km/h (1 Bft) S-SW 211 0 min 0,000 mm 0,0 UV-I 0 W/m -1,9 C 1,7 C 6,4 km/h (2 Bft) 100,00 %
07.03.2016 01:15 1,8 C 77 % 1003,8 hPa 0,0 l/m 3,5 km/h (1 Bft) SW 225 0 min 0,000 mm 0,0 UV-I 0 W/m -1,8 C 1,8 C 4,8 km/h (1 Bft) 100,00 %
07.03.2016 01:16 1,8 C 77 % 1003,8 hPa 0,0 l/m 4,6 km/h (1 Bft) SW 215 0 min 0,000 mm 0,0 UV-I 0 W/m -1,8 C 1,8 C 6,4 km/h (2 Bft) 100,00 %
07.03.2016 01:17 1,8 C 76 % 1003,7 hPa 0,0 l/m 4,0 km/h (1 Bft) SW 215 0 min 0,000 mm 0,0 UV-I 0 W/m -2,0 C 1,8 C 4,8 km/h (1 Bft) 100,00 %
07.03.2016 01:18 1,8 C 77 % 1003,7 hPa 0,0 l/m 5,7 km/h (1 Bft) SW 234 0 min 0,000 mm 0,0 UV-I 0 W/m -1,8 C 1,8 C 8,0 km/h (2 Bft) 100,00 %
07.03.2016 01:19 1,8 C 77 % 1003,8 hPa 0,0 l/m 5,5 km/h (1 Bft) SW 234 0 min 0,000 mm 0,0 UV-I 0 W/m -1,8 C 1,8 C 6,4 km/h (2 Bft) 91,30 %
07.03.2016 01:20 1,8 C 77 % 1003,8 hPa 0,0 l/m 4,3 km/h (1 Bft) SW 224 0 min 0,000 mm 0,0 UV-I 0 W/m -1,8 C 1,8 C 6,4 km/h (2 Bft) 100,00 %
07.03.2016 01:21 1,8 C 77 % 1003,8 hPa 0,0 l/m 4,4 km/h (1 Bft) SW 223 0 min 0,000 mm 0,0 UV-I 0 W/m -1,8 C 1,8 C 6,4 km/h (2 Bft) 100,00 %
07.03.2016 01:22 1,8 C 77 % 1003,8 hPa 0,0 l/m 5,5 km/h (1 Bft) SW 226 0 min 0,000 mm 0,0 UV-I 0 W/m -1,8 C 1,8 C 8,0 km/h (2 Bft) 100,00 %
07.03.2016 01:23 1,8 C 77 % 1003,8 hPa 0,0 l/m 4,2 km/h (1 Bft) S-SW 212 0 min 0,000 mm 0,0 UV-I 0 W/m -1,8 C 1,8 C 4,8 km/h (1 Bft) 100,00 %
07.03.2016 01:24 1,8 C 76 % 1003,8 hPa 0,0 l/m 5,4 km/h (1 Bft) S 191 0 min 0,000 mm 0,0 UV-I 0 W/m -2,0 C 1,8 C 8,0 km/h (2 Bft) 100,00 %
07.03.2016 01:25 1,8 C 77 % 1003,8 hPa 0,0 l/m 7,1 km/h (2 Bft) S-SW 196 0 min 0,000 mm 0,0 UV-I 0 W/m -1,8 C 1,1 C 9,7 km/h (2 Bft) 100,00 %
07.03.2016 01:26 1,8 C 77 % 1003,8 hPa 0,0 l/m 6,0 km/h (2 Bft) SW 228 0 min 0,000 mm 0,0 UV-I 0 W/m -1,8 C 1,8 C 8,0 km/h (2 Bft) 100,00 %
07.03.2016 01:27 1,8 C 76 % 1003,8 hPa 0,0 l/m 5,0 km/h (1 Bft) SW 219 0 min 0,000 mm 0,0 UV-I 0 W/m -2,0 C 1,8 C 6,4 km/h (2 Bft) 100,00 %
07.03.2016 01:28 1,8 C 76 % 1003,8 hPa 0,0 l/m 5,2 km/h (1 Bft) SW 236 0 min 0,000 mm 0,0 UV-I 0 W/m -2,0 C 1,8 C 8,0 km/h (2 Bft) 100,00 %
07.03.2016 01:29 1,8 C 76 % 1003,8 hPa 0,0 l/m 4,8 km/h (1 Bft) SW 225 0 min 0,000 mm 0,0 UV-I 0 W/m -2,0 C 1,8 C 6,4 km/h (2 Bft) 100,00 %
07.03.2016 01:30 1,9 C 76 % 1003,8 hPa 0,0 l/m 3,9 km/h (1 Bft) SW 218 0 min 0,000 mm 0,0 UV-I 0 W/m -1,9 C 1,9 C 4,8 km/h (1 Bft) 100,00 %
07.03.2016 01:31 1,9 C 76 % 1003,8 hPa 0,0 l/m 5,8 km/h (2 Bft) S-SW 209 0 min 0,000 mm 0,0 UV-I 0 W/m -1,9 C 1,9 C 8,0 km/h (2 Bft) 100,00 %
07.03.2016 01:32 1,9 C 76 % 1003,8 hPa 0,0 l/m 4,4 km/h (1 Bft) SW 217 0 min 0,000 mm 0,0 UV-I 0 W/m -1,9 C 1,9 C 6,4 km/h (2 Bft) 96,15 %
07.03.2016 01:33 1,9 C 76 % 1003,8 hPa 0,0 l/m 5,6 km/h (1 Bft) S-SW 200 0 min 0,000 mm 0,0 UV-I 0 W/m -1,9 C 1,9 C 8,0 km/h (2 Bft) 100,00 %
07.03.2016 01:34 1,9 C 76 % 1003,8 hPa 0,0 l/m 6,1 km/h (2 Bft) S-SW 205 0 min 0,000 mm 0,0 UV-I 0 W/m -1,9 C 1,9 C 9,7 km/h (2 Bft) 100,00 %
07.03.2016 01:35 1,9 C 76 % 1003,8 hPa 0,0 l/m 6,8 km/h (2 Bft) SW 220 0 min 0,000 mm 0,0 UV-I 0 W/m -1,9 C 1,5 C 8,0 km/h (2 Bft) 96,30 %
07.03.2016 01:36 1,9 C 76 % 1003,8 hPa 0,0 l/m 5,9 km/h (2 Bft) SW 225 0 min 0,000 mm 0,0 UV-I 0 W/m -1,9 C 1,9 C 8,0 km/h (2 Bft) 100,00 %
07.03.2016 01:37 1,9 C 76 % 1003,8 hPa 0,0 l/m 6,9 km/h (2 Bft) SW 219 0 min 0,000 mm 0,0 UV-I 0 W/m -1,9 C 1,4 C 9,7 km/h (2 Bft) 91,67 %
07.03.2016 01:38 1,9 C 76 % 1003,8 hPa 0,0 l/m 7,7 km/h (2 Bft) S-SW 202 0 min 0,000 mm 0,0 UV-I 0 W/m -1,9 C 0,6 C 9,7 km/h (2 Bft) 96,55 %
07.03.2016 01:39 1,9 C 76 % 1003,8 hPa 0,0 l/m 8,7 km/h (2 Bft) S-SW 192 0 min 0,000 mm 0,0 UV-I 0 W/m -1,9 C -0,3 C 11,3 km/h (2 Bft) 96,30 %
07.03.2016 01:40 1,9 C 76 % 1003,8 hPa 0,0 l/m 7,3 km/h (2 Bft) S-SO 166 0 min 0,000 mm 0,0 UV-I 0 W/m -1,9 C 1,0 C 9,7 km/h (2 Bft) 100,00 %
07.03.2016 01:41 1,9 C 76 % 1003,9 hPa 0,0 l/m 7,7 km/h (2 Bft) S 188 0 min 0,000 mm 0,0 UV-I 0 W/m -1,9 C 0,6 C 9,7 km/h (2 Bft) 95,83 %
07.03.2016 01:42 1,9 C 76 % 1003,8 hPa 0,0 l/m 8,0 km/h (2 Bft) S 191 0 min 0,000 mm 0,0 UV-I 0 W/m -1,9 C 0,3 C 9,7 km/h (2 Bft) 96,55 %
07.03.2016 01:43 1,9 C 76 % 1003,8 hPa 0,0 l/m 5,3 km/h (1 Bft) S-SW 210 0 min 0,000 mm 0,0 UV-I 0 W/m -1,9 C 1,9 C 8,0 km/h (2 Bft) 100,00 %
07.03.2016 01:44 2,0 C 76 % 1003,9 hPa 0,0 l/m 5,6 km/h (1 Bft) S-SW 208 0 min 0,000 mm 0,0 UV-I 0 W/m -1,8 C 2,0 C 8,0 km/h (2 Bft) 91,30 %
07.03.2016 01:45 2,0 C 76 % 1003,9 hPa 0,0 l/m 4,8 km/h (1 Bft) S-SW 209 0 min 0,000 mm 0,0 UV-I 0 W/m -1,8 C 2,0 C 6,4 km/h (2 Bft) 100,00 %
07.03.2016 01:46 2,0 C 76 % 1003,9 hPa 0,0 l/m 4,3 km/h (1 Bft) SW 220 0 min 0,000 mm 0,0 UV-I 0 W/m -1,8 C 2,0 C 6,4 km/h (2 Bft) 90,91 %
07.03.2016 01:47 2,0 C 76 % 1003,9 hPa 0,0 l/m 4,3 km/h (1 Bft) S-SW 213 0 min 0,000 mm 0,0 UV-I 0 W/m -1,8 C 2,0 C 6,4 km/h (2 Bft) 100,00 %
07.03.2016 01:48 2,0 C 76 % 1003,9 hPa 0,0 l/m 5,2 km/h (1 Bft) S 188 0 min 0,000 mm 0,0 UV-I 0 W/m -1,8 C 2,0 C 6,4 km/h (2 Bft) 96,55 %
07.03.2016 01:49 2,0 C 76 % 1003,8 hPa 0,0 l/m 5,3 km/h (1 Bft) S 191 0 min 0,000 mm 0,0 UV-I 0 W/m -1,8 C 2,0 C 6,4 km/h (2 Bft) 95,83 %
07.03.2016 01:50 2,0 C 76 % 1003,9 hPa 0,0 l/m 6,1 km/h (2 Bft) S-SW 204 0 min 0,000 mm 0,0 UV-I 0 W/m -1,8 C 2,0 C 8,0 km/h (2 Bft) 100,00 %
07.03.2016 01:51 2,0 C 76 % 1004,0 hPa 0,0 l/m 4,8 km/h (1 Bft) S-SW 210 0 min 0,000 mm 0,0 UV-I 0 W/m -1,8 C 2,0 C 6,4 km/h (2 Bft) 95,83 %
07.03.2016 01:52 2,0 C 76 % 1004,0 hPa 0,0 l/m 5,6 km/h (1 Bft) S-SW 200 0 min 0,000 mm 0,0 UV-I 0 W/m -1,8 C 2,0 C 8,0 km/h (2 Bft) 100,00 %
07.03.2016 01:53 2,0 C 76 % 1004,0 hPa 0,0 l/m 7,7 km/h (2 Bft) S-SW 198 0 min 0,000 mm 0,0 UV-I 0 W/m -1,8 C 0,7 C 9,7 km/h (2 Bft) 96,15 %
07.03.2016 01:54 2,0 C 76 % 1004,0 hPa 0,0 l/m 7,9 km/h (2 Bft) S-SW 200 0 min 0,000 mm 0,0 UV-I 0 W/m -1,8 C 0,5 C 9,7 km/h (2 Bft) 100,00 %
07.03.2016 01:55 2,0 C 76 % 1004,0 hPa 0,0 l/m 6,4 km/h (2 Bft) S-SW 202 0 min 0,000 mm 0,0 UV-I 0 W/m -1,8 C 2,0 C 9,7 km/h (2 Bft) 96,15 %
07.03.2016 01:56 2,0 C 77 % 1004,0 hPa 0,0 l/m 5,0 km/h (1 Bft) S-SW 199 0 min 0,000 mm 0,0 UV-I 0 W/m -1,6 C 2,0 C 8,0 km/h (2 Bft) 96,30 %
07.03.2016 01:57 1,9 C 77 % 1004,0 hPa 0,0 l/m 5,7 km/h (1 Bft) SW 214 0 min 0,000 mm 0,0 UV-I 0 W/m -1,7 C 1,9 C 8,0 km/h (2 Bft) 100,00 %
07.03.2016 01:58 1,9 C 76 % 1004,0 hPa 0,0 l/m 3,8 km/h (1 Bft) S-SW 194 0 min 0,000 mm 0,0 UV-I 0 W/m -1,9 C 1,9 C 4,8 km/h (1 Bft) 96,67 %
07.03.2016 01:59 1,9 C 77 % 1004,0 hPa 0,0 l/m 4,2 km/h (1 Bft) S-SW 205 0 min 0,000 mm 0,0 UV-I 0 W/m -1,7 C 1,9 C 6,4 km/h (2 Bft) 100,00 %
07.03.2016 02:00 1,9 C 77 % 1004,0 hPa 0,0 l/m 4,4 km/h (1 Bft) S 191 0 min 0,000 mm 0,0 UV-I 0 W/m -1,7 C 1,9 C 6,4 km/h (2 Bft) 95,83 %
07.03.2016 02:01 1,9 C 76 % 1004,0 hPa 0,0 l/m 5,0 km/h (1 Bft) S-SW 202 0 min 0,000 mm 0,0 UV-I 0 W/m -1,9 C 1,9 C 6,4 km/h (2 Bft) 100,00 %
07.03.2016 02:02 1,9 C 76 % 1003,9 hPa 0,0 l/m 5,7 km/h (1 Bft) SW 221 0 min 0,000 mm 0,0 UV-I 0 W/m -1,9 C 1,9 C 8,0 km/h (2 Bft) 93,33 %
07.03.2016 02:03 1,9 C 76 % 1003,9 hPa 0,0 l/m 5,8 km/h (2 Bft) SW 221 0 min 0,000 mm 0,0 UV-I 0 W/m -1,9 C 1,9 C 9,7 km/h (2 Bft) 100,00 %
07.03.2016 02:04 1,9 C 76 % 1004,0 hPa 0,0 l/m 5,3 km/h (1 Bft) S 188 0 min 0,000 mm 0,0 UV-I 0 W/m -1,9 C 1,9 C 8,0 km/h (2 Bft) 92,59 %
07.03.2016 02:05 1,9 C 76 % 1004,0 hPa 0,0 l/m 5,6 km/h (1 Bft) SW 229 0 min 0,000 mm 0,0 UV-I 0 W/m -1,9 C 1,9 C 6,4 km/h (2 Bft) 100,00 %
07.03.2016 02:06 2,0 C 76 % 1004,0 hPa 0,0 l/m 5,9 km/h (2 Bft) SW 231 0 min 0,000 mm 0,0 UV-I 0 W/m -1,8 C 2,0 C 8,0 km/h (2 Bft) 96,30 %
07.03.2016 02:07 1,9 C 76 % 1004,0 hPa 0,0 l/m 4,9 km/h (1 Bft) SW 236 0 min 0,000 mm 0,0 UV-I 0 W/m -1,9 C 1,9 C 8,0 km/h (2 Bft) 100,00 %
07.03.2016 02:08 1,9 C 77 % 1004,0 hPa 0,0 l/m 4,0 km/h (1 Bft) SW 220 0 min 0,000 mm 0,0 UV-I 0 W/m -1,7 C 1,9 C 4,8 km/h (1 Bft) 96,30 %
07.03.2016 02:09 1,9 C 77 % 1004,0 hPa 0,0 l/m 4,6 km/h (1 Bft) SW 229 0 min 0,000 mm 0,0 UV-I 0 W/m -1,7 C 1,9 C 6,4 km/h (2 Bft) 100,00 %
07.03.2016 02:10 1,9 C 77 % 1004,1 hPa 0,0 l/m 4,0 km/h (1 Bft) SW 232 0 min 0,000 mm 0,0 UV-I 0 W/m -1,7 C 1,9 C 4,8 km/h (1 Bft) 100,00 %
07.03.2016 02:11 1,9 C 77 % 1004,1 hPa 0,0 l/m 4,5 km/h (1 Bft) SW 228 0 min 0,000 mm 0,0 UV-I 0 W/m -1,7 C 1,9 C 8,0 km/h (2 Bft) 100,00 %
07.03.2016 02:12 1,9 C 76 % 1004,0 hPa 0,0 l/m 5,5 km/h (1 Bft) SW 234 0 min 0,000 mm 0,0 UV-I 0 W/m -1,9 C 1,9 C 8,0 km/h (2 Bft) 100,00 %
07.03.2016 02:13 2,0 C 77 % 1004,0 hPa 0,0 l/m 6,1 km/h (2 Bft) SW 227 0 min 0,000 mm 0,0 UV-I 0 W/m -1,6 C 2,0 C 8,0 km/h (2 Bft) 100,00 %
07.03.2016 02:14 1,9 C 77 % 1004,1 hPa 0,0 l/m 5,5 km/h (1 Bft) SW 236 0 min 0,000 mm 0,0 UV-I 0 W/m -1,7 C 1,9 C 8,0 km/h (2 Bft) 100,00 %
07.03.2016 02:15 1,9 C 77 % 1004,1 hPa 0,0 l/m 5,8 km/h (2 Bft) SW 230 0 min 0,000 mm 0,0 UV-I 0 W/m -1,7 C 1,9 C 8,0 km/h (2 Bft) 95,83 %
07.03.2016 02:16 1,9 C 77 % 1004,0 hPa 0,0 l/m 4,9 km/h (1 Bft) SW 223 0 min 0,000 mm 0,0 UV-I 0 W/m -1,7 C 1,9 C 6,4 km/h (2 Bft) 100,00 %
07.03.2016 02:17 1,9 C 77 % 1004,1 hPa 0,0 l/m 4,2 km/h (1 Bft) SW 227 0 min 0,000 mm 0,0 UV-I 0 W/m -1,7 C 1,9 C 4,8 km/h (1 Bft) 100,00 %
07.03.2016 02:18 1,9 C 77 % 1004,0 hPa 0,0 l/m 4,7 km/h (1 Bft) SW 224 0 min 0,000 mm 0,0 UV-I 0 W/m -1,7 C 1,9 C 6,4 km/h (2 Bft) 100,00 %
07.03.2016 02:19 1,9 C 77 % 1004,1 hPa 0,0 l/m 4,7 km/h (1 Bft) SW 230 0 min 0,000 mm 0,0 UV-I 0 W/m -1,7 C 1,9 C 6,4 km/h (2 Bft) 100,00 %
07.03.2016 02:20 1,9 C 77 % 1004,0 hPa 0,0 l/m 5,4 km/h (1 Bft) SW 227 0 min 0,000 mm 0,0 UV-I 0 W/m -1,7 C 1,9 C 6,4 km/h (2 Bft) 100,00 %
07.03.2016 02:21 1,9 C 77 % 1004,0 hPa 0,0 l/m 4,3 km/h (1 Bft) SW 219 0 min 0,000 mm 0,0 UV-I 0 W/m -1,7 C 1,9 C 6,4 km/h (2 Bft) 100,00 %
07.03.2016 02:22 1,9 C 77 % 1004,0 hPa 0,0 l/m 5,6 km/h (1 Bft) SW 234 0 min 0,000 mm 0,0 UV-I 0 W/m -1,7 C 1,9 C 6,4 km/h (2 Bft) 100,00 %
07.03.2016 02:23 1,9 C 77 % 1004,0 hPa 0,0 l/m 5,1 km/h (1 Bft) W-SW 246 0 min 0,000 mm 0,0 UV-I 0 W/m -1,7 C 1,9 C 6,4 km/h (2 Bft) 100,00 %
07.03.2016 02:24 1,9 C 76 % 1004,0 hPa 0,0 l/m 4,4 km/h (1 Bft) W-SW 247 0 min 0,000 mm 0,0 UV-I 0 W/m -1,9 C 1,9 C 6,4 km/h (2 Bft) 100,00 %
07.03.2016 02:25 2,0 C 76 % 1004,0 hPa 0,0 l/m 5,5 km/h (1 Bft) W-SW 250 0 min 0,000 mm 0,0 UV-I 0 W/m -1,8 C 2,0 C 6,4 km/h (2 Bft) 100,00 %
07.03.2016 02:26 2,0 C 76 % 1004,0 hPa 0,0 l/m 3,8 km/h (1 Bft) W-SW 251 0 min 0,000 mm 0,0 UV-I 0 W/m -1,8 C 2,0 C 4,8 km/h (1 Bft) 100,00 %
07.03.2016 02:27 2,0 C 76 % 1004,0 hPa 0,0 l/m 4,5 km/h (1 Bft) W 264 0 min 0,000 mm 0,0 UV-I 0 W/m -1,8 C 2,0 C 6,4 km/h (2 Bft) 100,00 %
07.03.2016 02:28 2,0 C 76 % 1004,1 hPa 0,0 l/m 5,4 km/h (1 Bft) W-SW 256 0 min 0,000 mm 0,0 UV-I 0 W/m -1,8 C 2,0 C 6,4 km/h (2 Bft) 100,00 %
07.03.2016 02:29 2,0 C 76 % 1004,1 hPa 0,0 l/m 4,6 km/h (1 Bft) W-SW 256 0 min 0,000 mm 0,0 UV-I 0 W/m -1,8 C 2,0 C 6,4 km/h (2 Bft) 100,00 %
07.03.2016 02:30 2,1 C 76 % 1004,1 hPa 0,0 l/m 4,0 km/h (1 Bft) W-SW 256 0 min 0,000 mm 0,0 UV-I 0 W/m -1,7 C 2,1 C 4,8 km/h (1 Bft) 100,00 %
07.03.2016 02:31 2,1 C 76 % 1004,1 hPa 0,0 l/m 4,6 km/h (1 Bft) SW 228 0 min 0,000 mm 0,0 UV-I 0 W/m -1,7 C 2,1 C 6,4 km/h (2 Bft) 93,33 %
07.03.2016 02:32 2,0 C 77 % 1004,1 hPa 0,0 l/m 3,9 km/h (1 Bft) SW 228 0 min 0,000 mm 0,0 UV-I 0 W/m -1,6 C 2,0 C 6,4 km/h (2 Bft) 96,30 %
07.03.2016 02:33 2,0 C 77 % 1004,1 hPa 0,0 l/m 4,3 km/h (1 Bft) SW 227 0 min 0,000 mm 0,0 UV-I 0 W/m -1,6 C 2,0 C 4,8 km/h (1 Bft) 100,00 %
07.03.2016 02:34 2,0 C 77 % 1004,0 hPa 0,0 l/m 4,9 km/h (1 Bft) S-SW 210 0 min 0,000 mm 0,0 UV-I 0 W/m -1,6 C 2,0 C 6,4 km/h (2 Bft) 100,00 %
07.03.2016 02:35 1,9 C 77 % 1004,1 hPa 0,0 l/m 4,2 km/h (1 Bft) S 186 0 min 0,000 mm 0,0 UV-I 0 W/m -1,7 C 1,9 C 6,4 km/h (2 Bft) 100,00 %
07.03.2016 02:36 1,9 C 77 % 1004,1 hPa 0,0 l/m 4,9 km/h (1 Bft) S-SW 209 0 min 0,000 mm 0,0 UV-I 0 W/m -1,7 C 1,9 C 8,0 km/h (2 Bft) 100,00 %
07.03.2016 02:37 1,9 C 77 % 1004,1 hPa 0,0 l/m 3,7 km/h (1 Bft) SW 219 0 min 0,000 mm 0,0 UV-I 0 W/m -1,7 C 1,9 C 4,8 km/h (1 Bft) 100,00 %
07.03.2016 02:38 1,9 C 77 % 1004,1 hPa 0,0 l/m 2,7 km/h (1 Bft) SW 219 0 min 0,000 mm 0,0 UV-I 0 W/m -1,7 C 1,9 C 3,2 km/h (1 Bft) 100,00 %
07.03.2016 02:39 1,9 C 77 % 1004,1 hPa 0,0 l/m 3,3 km/h (1 Bft) SW 216 0 min 0,000 mm 0,0 UV-I 0 W/m -1,7 C 1,9 C 4,8 km/h (1 Bft) 100,00 %
07.03.2016 02:40 1,9 C 77 % 1004,1 hPa 0,0 l/m 3,5 km/h (1 Bft) SW 214 0 min 0,000 mm 0,0 UV-I 0 W/m -1,7 C 1,9 C 4,8 km/h (1 Bft) 100,00 %
07.03.2016 02:41 1,9 C 76 % 1004,1 hPa 0,0 l/m 3,8 km/h (1 Bft) SW 220 0 min 0,000 mm 0,0 UV-I 0 W/m -1,9 C 1,9 C 4,8 km/h (1 Bft) 100,00 %
07.03.2016 02:42 1,9 C 76 % 1004,1 hPa 0,0 l/m 4,2 km/h (1 Bft) SW 224 0 min 0,000 mm 0,0 UV-I 0 W/m -1,9 C 1,9 C 6,4 km/h (2 Bft) 100,00 %
07.03.2016 02:43 1,9 C 77 % 1004,1 hPa 0,0 l/m 4,4 km/h (1 Bft) SW 222 0 min 0,000 mm 0,0 UV-I 0 W/m -1,7 C 1,9 C 4,8 km/h (1 Bft) 100,00 %
07.03.2016 02:44 1,9 C 76 % 1004,1 hPa 0,0 l/m 4,3 km/h (1 Bft) SW 224 0 min 0,000 mm 0,0 UV-I 0 W/m -1,9 C 1,9 C 4,8 km/h (1 Bft) 100,00 %
07.03.2016 02:45 1,9 C 77 % 1004,1 hPa 0,0 l/m 3,6 km/h (1 Bft) SW 224 0 min 0,000 mm 0,0 UV-I 0 W/m -1,7 C 1,9 C 4,8 km/h (1 Bft) 95,65 %
07.03.2016 02:46 1,9 C 77 % 1004,1 hPa 0,0 l/m 3,2 km/h (1 Bft) SW 224 0 min 0,000 mm 0,0 UV-I 0 W/m -1,7 C 1,9 C 4,8 km/h (1 Bft) 100,00 %
07.03.2016 02:47 1,9 C 77 % 1004,1 hPa 0,0 l/m 3,2 km/h (1 Bft) SW 224 0 min 0,000 mm 0,0 UV-I 0 W/m -1,7 C 1,9 C 4,8 km/h (1 Bft) 100,00 %
07.03.2016 02:48 1,9 C 77 % 1004,1 hPa 0,0 l/m 3,2 km/h (1 Bft) SW 221 0 min 0,000 mm 0,0 UV-I 0 W/m -1,7 C 1,9 C 4,8 km/h (1 Bft) 100,00 %
07.03.2016 02:49 1,9 C 77 % 1004,1 hPa 0,0 l/m 3,6 km/h (1 Bft) SW 221 0 min 0,000 mm 0,0 UV-I 0 W/m -1,7 C 1,9 C 4,8 km/h (1 Bft) 96,15 %
07.03.2016 02:50 1,9 C 77 % 1004,1 hPa 0,0 l/m 3,9 km/h (1 Bft) SW 221 0 min 0,000 mm 0,0 UV-I 0 W/m -1,7 C 1,9 C 6,4 km/h (2 Bft) 100,00 %
07.03.2016 02:51 1,9 C 77 % 1004,1 hPa 0,0 l/m 4,2 km/h (1 Bft) SW 221 0 min 0,000 mm 0,0 UV-I 0 W/m -1,7 C 1,9 C 4,8 km/h (1 Bft) 100,00 %
07.03.2016 02:52 1,9 C 77 % 1004,0 hPa 0,0 l/m 3,8 km/h (1 Bft) SW 221 0 min 0,000 mm 0,0 UV-I 0 W/m -1,7 C 1,9 C 4,8 km/h (1 Bft) 100,00 %
07.03.2016 02:53 1,9 C 77 % 1004,1 hPa 0,0 l/m 4,0 km/h (1 Bft) SW 221 0 min 0,000 mm 0,0 UV-I 0 W/m -1,7 C 1,9 C 4,8 km/h (1 Bft) 100,00 %
07.03.2016 02:54 1,9 C 77 % 1004,0 hPa 0,0 l/m 3,8 km/h (1 Bft) SW 221 0 min 0,000 mm 0,0 UV-I 0 W/m -1,7 C 1,9 C 6,4 km/h (2 Bft) 100,00 %
07.03.2016 02:55 1,9 C 77 % 1004,1 hPa 0,0 l/m 3,8 km/h (1 Bft) SW 220 0 min 0,000 mm 0,0 UV-I 0 W/m -1,7 C 1,9 C 4,8 km/h (1 Bft) 100,00 %
07.03.2016 02:56 1,9 C 77 % 1004,0 hPa 0,0 l/m 3,6 km/h (1 Bft) SW 219 0 min 0,000 mm 0,0 UV-I 0 W/m -1,7 C 1,9 C 4,8 km/h (1 Bft) 100,00 %
07.03.2016 02:57 1,9 C 77 % 1004,1 hPa 0,0 l/m 4,2 km/h (1 Bft) SW 221 0 min 0,000 mm 0,0 UV-I 0 W/m -1,7 C 1,9 C 4,8 km/h (1 Bft) 100,00 %
07.03.2016 02:58 1,9 C 77 % 1004,0 hPa 0,0 l/m 3,6 km/h (1 Bft) SW 219 0 min 0,000 mm 0,0 UV-I 0 W/m -1,7 C 1,9 C 4,8 km/h (1 Bft) 100,00 %
07.03.2016 02:59 1,9 C 77 % 1004,0 hPa 0,0 l/m 3,8 km/h (1 Bft) SW 218 0 min 0,000 mm 0,0 UV-I 0 W/m -1,7 C 1,9 C 4,8 km/h (1 Bft) 96,30 %
07.03.2016 03:00 1,9 C 77 % 1004,1 hPa 0,0 l/m 3,7 km/h (1 Bft) SW 218 0 min 0,000 mm 0,0 UV-I 0 W/m -1,7 C 1,9 C 4,8 km/h (1 Bft) 100,00 %
07.03.2016 03:01 1,9 C 77 % 1004,0 hPa 0,0 l/m 4,0 km/h (1 Bft) S-SW 213 0 min 0,000 mm 0,0 UV-I 0 W/m -1,7 C 1,9 C 4,8 km/h (1 Bft) 100,00 %
07.03.2016 03:02 1,9 C 77 % 1004,1 hPa 0,0 l/m 4,3 km/h (1 Bft) S 182 0 min 0,000 mm 0,0 UV-I 0 W/m -1,7 C 1,9 C 4,8 km/h (1 Bft) 100,00 %
07.03.2016 03:03 1,9 C 78 % 1004,0 hPa 0,0 l/m 3,8 km/h (1 Bft) SW 219 0 min 0,000 mm 0,0 UV-I 0 W/m -1,5 C 1,9 C 4,8 km/h (1 Bft) 100,00 %
07.03.2016 03:04 1,9 C 78 % 1004,1 hPa 0,0 l/m 3,1 km/h (1 Bft) SW 219 0 min 0,000 mm 0,0 UV-I 0 W/m -1,5 C 1,9 C 3,2 km/h (1 Bft) 90,91 %
07.03.2016 03:05 1,9 C 78 % 1004,1 hPa 0,0 l/m 2,4 km/h (1 Bft) SW 219 0 min 0,000 mm 0,0 UV-I 0 W/m -1,5 C 1,9 C 3,2 km/h (1 Bft) 100,00 %
07.03.2016 03:06 1,8 C 79 % 1004,1 hPa 0,0 l/m 3,0 km/h (1 Bft) SW 219 0 min 0,000 mm 0,0 UV-I 0 W/m -1,4 C 1,8 C 4,8 km/h (1 Bft) 100,00 %
07.03.2016 03:07 1,8 C 79 % 1004,1 hPa 0,0 l/m 2,4 km/h (1 Bft) SW 219 0 min 0,000 mm 0,0 UV-I 0 W/m -1,4 C 1,8 C 4,8 km/h (1 Bft) 95,83 %
07.03.2016 03:08 1,8 C 79 % 1004,0 hPa 0,0 l/m 2,4 km/h (1 Bft) SW 219 0 min 0,000 mm 0,0 UV-I 0 W/m -1,4 C 1,8 C 3,2 km/h (1 Bft) 100,00 %
07.03.2016 03:09 1,8 C 78 % 1004,0 hPa 0,0 l/m 3,5 km/h (1 Bft) SW 219 0 min 0,000 mm 0,0 UV-I 0 W/m -1,6 C 1,8 C 4,8 km/h (1 Bft) 100,00 %
07.03.2016 03:10 1,8 C 78 % 1004,0 hPa 0,0 l/m 3,2 km/h (1 Bft) SW 219 0 min 0,000 mm 0,0 UV-I 0 W/m -1,6 C 1,8 C 4,8 km/h (1 Bft) 100,00 %
07.03.2016 03:11 1,8 C 78 % 1004,0 hPa 0,0 l/m 3,1 km/h (1 Bft) SW 219 0 min 0,000 mm 0,0 UV-I 0 W/m -1,6 C 1,8 C 4,8 km/h (1 Bft) 100,00 %
07.03.2016 03:12 1,8 C 79 % 1004,0 hPa 0,0 l/m 3,0 km/h (1 Bft) SW 219 0 min 0,000 mm 0,0 UV-I 0 W/m -1,4 C 1,8 C 3,2 km/h (1 Bft) 100,00 %
07.03.2016 03:13 1,8 C 78 % 1004,0 hPa 0,0 l/m 3,2 km/h (1 Bft) SW 219 0 min 0,000 mm 0,0 UV-I 0 W/m -1,6 C 1,8 C 4,8 km/h (1 Bft) 100,00 %
07.03.2016 03:14 1,8 C 78 % 1004,0 hPa 0,0 l/m 3,7 km/h (1 Bft) SW 219 0 min 0,000 mm 0,0 UV-I 0 W/m -1,6 C 1,8 C 4,8 km/h (1 Bft) 100,00 %
07.03.2016 03:15 1,8 C 78 % 1004,0 hPa 0,0 l/m 3,0 km/h (1 Bft) SW 219 0 min 0,000 mm 0,0 UV-I 0 W/m -1,6 C 1,8 C 3,2 km/h (1 Bft) 100,00 %
07.03.2016 03:16 1,8 C 78 % 1004,0 hPa 0,0 l/m 3,7 km/h (1 Bft) SW 219 0 min 0,000 mm 0,0 UV-I 0 W/m -1,6 C 1,8 C 4,8 km/h (1 Bft) 100,00 %
07.03.2016 03:17 1,8 C 78 % 1004,0 hPa 0,0 l/m 3,1 km/h (1 Bft) SW 219 0 min 0,000 mm 0,0 UV-I 0 W/m -1,6 C 1,8 C 4,8 km/h (1 Bft) 100,00 %
07.03.2016 03:18 1,8 C 78 % 1004,0 hPa 0,0 l/m 4,9 km/h (1 Bft) SW 219 0 min 0,000 mm 0,0 UV-I 0 W/m -1,6 C 1,8 C 6,4 km/h (2 Bft) 100,00 %
07.03.2016 03:19 1,8 C 78 % 1004,0 hPa 0,0 l/m 3,4 km/h (1 Bft) SW 219 0 min 0,000 mm 0,0 UV-I 0 W/m -1,6 C 1,8 C 4,8 km/h (1 Bft) 96,15 %
07.03.2016 03:20 1,8 C 78 % 1004,0 hPa 0,0 l/m 3,1 km/h (1 Bft) SW 219 0 min 0,000 mm 0,0 UV-I 0 W/m -1,6 C 1,8 C 3,2 km/h (1 Bft) 100,00 %
07.03.2016 03:21 1,8 C 78 % 1004,0 hPa 0,0 l/m 2,2 km/h (1 Bft) SW 219 0 min 0,000 mm 0,0 UV-I 0 W/m -1,6 C 1,8 C 3,2 km/h (1 Bft) 100,00 %
07.03.2016 03:22 1,8 C 78 % 1004,0 hPa 0,0 l/m 1,9 km/h (1 Bft) SW 219 0 min 0,000 mm 0,0 UV-I 0 W/m -1,6 C 1,8 C 3,2 km/h (1 Bft) 100,00 %
07.03.2016 03:23 1,8 C 79 % 1004,0 hPa 0,0 l/m 1,4 km/h (1 Bft) SW 219 0 min 0,000 mm 0,0 UV-I 0 W/m -1,4 C 1,8 C 3,2 km/h (1 Bft) 100,00 %
07.03.2016 03:24 1,8 C 80 % 1004,0 hPa 0,0 l/m 0,2 km/h (0 Bft) SW 219 0 min 0,000 mm 0,0 UV-I 0 W/m -1,3 C 1,8 C 1,6 km/h (1 Bft) 100,00 %
07.03.2016 03:25 1,7 C 80 % 1004,0 hPa 0,0 l/m 0,3 km/h (0 Bft) SW 219 0 min 0,000 mm 0,0 UV-I 0 W/m -1,4 C 1,7 C 1,6 km/h (1 Bft) 100,00 %
07.03.2016 03:26 1,7 C 80 % 1004,0 hPa 0,0 l/m 0,1 km/h (0 Bft) SW 219 0 min 0,000 mm 0,0 UV-I 0 W/m -1,4 C 1,7 C 1,6 km/h (1 Bft) 100,00 %
07.03.2016 03:27 1,6 C 81 % 1004,0 hPa 0,0 l/m 0,1 km/h (0 Bft) SW 219 0 min 0,000 mm 0,0 UV-I 0 W/m -1,3 C 1,6 C 1,6 km/h (1 Bft) 100,00 %
07.03.2016 03:28 1,6 C 81 % 1004,0 hPa 0,0 l/m 0,3 km/h (0 Bft) SW 219 0 min 0,000 mm 0,0 UV-I 0 W/m -1,3 C 1,6 C 1,6 km/h (1 Bft) 100,00 %
07.03.2016 03:29 1,6 C 81 % 1004,0 hPa 0,0 l/m 1,0 km/h (0 Bft) SW 219 0 min 0,000 mm 0,0 UV-I 0 W/m -1,3 C 1,6 C 1,6 km/h (1 Bft) 100,00 %
07.03.2016 03:30 1,5 C 80 % 1004,0 hPa 0,0 l/m 0,3 km/h (0 Bft) SW 219 0 min 0,000 mm 0,0 UV-I 0 W/m -1,6 C 1,5 C 1,6 km/h (1 Bft) 100,00 %
07.03.2016 03:31 1,5 C 80 % 1004,0 hPa 0,0 l/m 0,8 km/h (0 Bft) SW 219 0 min 0,000 mm 0,0 UV-I 0 W/m -1,6 C 1,5 C 1,6 km/h (1 Bft) 100,00 %
07.03.2016 03:32 1,5 C 79 % 1004,0 hPa 0,0 l/m 0,0 km/h (0 Bft) SW 219 0 min 0,000 mm 0,0 UV-I 0 W/m -1,7 C 1,5 C 0,0 km/h (0 Bft) 100,00 %
07.03.2016 03:33 1,6 C 80 % 1003,9 hPa 0,0 l/m 0,3 km/h (0 Bft) SW 219 0 min 0,000 mm 0,0 UV-I 0 W/m -1,5 C 1,6 C 1,6 km/h (1 Bft) 100,00 %
07.03.2016 03:34 1,6 C 80 % 1004,0 hPa 0,0 l/m 0,7 km/h (0 Bft) SW 219 0 min 0,000 mm 0,0 UV-I 0 W/m -1,5 C 1,6 C 1,6 km/h (1 Bft) 100,00 %
07.03.2016 03:35 1,6 C 80 % 1004,0 hPa 0,0 l/m 0,1 km/h (0 Bft) SW 219 0 min 0,000 mm 0,0 UV-I 0 W/m -1,5 C 1,6 C 1,6 km/h (1 Bft) 100,00 %
07.03.2016 03:36 1,6 C 80 % 1004,0 hPa 0,0 l/m 0,0 km/h (0 Bft) SW 219 0 min 0,000 mm 0,0 UV-I 0 W/m -1,5 C 1,6 C 0,0 km/h (0 Bft) 96,55 %
07.03.2016 03:37 1,6 C 79 % 1004,0 hPa 0,0 l/m 0,0 km/h (0 Bft) SW 219 0 min 0,000 mm 0,0 UV-I 0 W/m -1,6 C 1,6 C 0,0 km/h (0 Bft) 96,30 %
07.03.2016 03:38 1,6 C 78 % 1004,0 hPa 0,0 l/m 0,3 km/h (0 Bft) SW 219 0 min 0,000 mm 0,0 UV-I 0 W/m -1,8 C 1,6 C 1,6 km/h (1 Bft) 100,00 %
07.03.2016 03:39 1,7 C 78 % 1004,0 hPa 0,0 l/m 0,7 km/h (0 Bft) SW 219 0 min 0,000 mm 0,0 UV-I 0 W/m -1,7 C 1,7 C 1,6 km/h (1 Bft) 91,67 %
07.03.2016 03:40 1,7 C 78 % 1004,0 hPa 0,0 l/m 0,5 km/h (0 Bft) SW 219 0 min 0,000 mm 0,0 UV-I 0 W/m -1,7 C 1,7 C 1,6 km/h (1 Bft) 90,91 %
07.03.2016 03:41 1,7 C 78 % 1004,0 hPa 0,0 l/m 1,6 km/h (1 Bft) SW 219 0 min 0,000 mm 0,0 UV-I 0 W/m -1,7 C 1,7 C 3,2 km/h (1 Bft) 96,30 %
07.03.2016 03:42 1,7 C 78 % 1004,0 hPa 0,0 l/m 2,9 km/h (1 Bft) SW 219 0 min 0,000 mm 0,0 UV-I 0 W/m -1,7 C 1,7 C 3,2 km/h (1 Bft) 100,00 %
07.03.2016 03:43 1,8 C 78 % 1004,0 hPa 0,0 l/m 2,4 km/h (1 Bft) SW 219 0 min 0,000 mm 0,0 UV-I 0 W/m -1,6 C 1,8 C 3,2 km/h (1 Bft) 95,83 %
07.03.2016 03:44 1,8 C 78 % 1004,0 hPa 0,0 l/m 1,8 km/h (1 Bft) SW 219 0 min 0,000 mm 0,0 UV-I 0 W/m -1,6 C 1,8 C 3,2 km/h (1 Bft) 95,65 %
07.03.2016 03:45 1,8 C 78 % 1004,0 hPa 0,0 l/m 1,9 km/h (1 Bft) SW 219 0 min 0,000 mm 0,0 UV-I 0 W/m -1,6 C 1,8 C 3,2 km/h (1 Bft) 100,00 %
07.03.2016 03:46 1,8 C 79 % 1003,9 hPa 0,0 l/m 2,2 km/h (1 Bft) SW 219 0 min 0,000 mm 0,0 UV-I 0 W/m -1,4 C 1,8 C 3,2 km/h (1 Bft) 95,65 %
07.03.2016 03:47 1,8 C 78 % 1003,9 hPa 0,0 l/m 2,1 km/h (1 Bft) SW 219 0 min 0,000 mm 0,0 UV-I 0 W/m -1,6 C 1,8 C 3,2 km/h (1 Bft) 100,00 %
07.03.2016 03:48 1,8 C 77 % 1003,9 hPa 0,0 l/m 3,0 km/h (1 Bft) SW 219 0 min 0,000 mm 0,0 UV-I 0 W/m -1,8 C 1,8 C 4,8 km/h (1 Bft) 96,15 %
07.03.2016 03:49 1,8 C 77 % 1003,8 hPa 0,0 l/m 3,0 km/h (1 Bft) SW 219 0 min 0,000 mm 0,0 UV-I 0 W/m -1,8 C 1,8 C 3,2 km/h (1 Bft) 100,00 %
07.03.2016 03:50 1,8 C 77 % 1003,8 hPa 0,0 l/m 2,3 km/h (1 Bft) SW 219 0 min 0,000 mm 0,0 UV-I 0 W/m -1,8 C 1,8 C 4,8 km/h (1 Bft) 95,65 %
07.03.2016 03:51 1,8 C 77 % 1003,8 hPa 0,0 l/m 1,6 km/h (1 Bft) SW 219 0 min 0,000 mm 0,0 UV-I 0 W/m -1,8 C 1,8 C 3,2 km/h (1 Bft) 95,83 %
07.03.2016 03:52 1,9 C 77 % 1003,8 hPa 0,0 l/m 1,4 km/h (1 Bft) SW 219 0 min 0,000 mm 0,0 UV-I 0 W/m -1,7 C 1,9 C 1,6 km/h (1 Bft) 95,65 %
07.03.2016 03:53 1,9 C 78 % 1003,8 hPa 0,0 l/m 1,0 km/h (0 Bft) SW 219 0 min 0,000 mm 0,0 UV-I 0 W/m -1,5 C 1,9 C 1,6 km/h (1 Bft) 96,30 %
07.03.2016 03:54 1,8 C 78 % 1003,8 hPa 0,0 l/m 1,9 km/h (1 Bft) SW 219 0 min 0,000 mm 0,0 UV-I 0 W/m -1,6 C 1,8 C 3,2 km/h (1 Bft) 100,00 %
07.03.2016 03:55 1,8 C 79 % 1003,8 hPa 0,0 l/m 1,4 km/h (1 Bft) SW 219 0 min 0,000 mm 0,0 UV-I 0 W/m -1,4 C 1,8 C 3,2 km/h (1 Bft) 96,15 %
07.03.2016 03:56 1,8 C 79 % 1003,8 hPa 0,0 l/m 2,6 km/h (1 Bft) SW 219 0 min 0,000 mm 0,0 UV-I 0 W/m -1,4 C 1,8 C 3,2 km/h (1 Bft) 100,00 %
07.03.2016 03:57 1,7 C 80 % 1003,8 hPa 0,0 l/m 2,4 km/h (1 Bft) SW 219 0 min 0,000 mm 0,0 UV-I 0 W/m -1,4 C 1,7 C 3,2 km/h (1 Bft) 95,65 %
07.03.2016 03:58 1,7 C 80 % 1003,9 hPa 0,0 l/m 1,8 km/h (1 Bft) SW 219 0 min 0,000 mm 0,0 UV-I 0 W/m -1,4 C 1,7 C 3,2 km/h (1 Bft) 96,30 %
07.03.2016 03:59 1,6 C 81 % 1003,9 hPa 0,0 l/m 1,0 km/h (0 Bft) SW 219 0 min 0,000 mm 0,0 UV-I 0 W/m -1,3 C 1,6 C 1,6 km/h (1 Bft) 95,65 %
07.03.2016 04:00 1,6 C 82 % 1003,9 hPa 0,0 l/m 0,8 km/h (0 Bft) SW 219 0 min 0,000 mm 0,0 UV-I 0 W/m -1,1 C 1,6 C 1,6 km/h (1 Bft) 95,83 %
07.03.2016 04:03 1,4 C 83 % 1003,8 hPa 0,0 l/m 0,8 km/h (0 Bft) SW 219 0 min 0,000 mm 0,0 UV-I 0 W/m -1,2 C 1,4 C 1,6 km/h (1 Bft) 97,62 %
07.03.2016 04:04 1,4 C 83 % 1003,9 hPa 0,0 l/m 1,2 km/h (1 Bft) SW 219 0 min 0,000 mm 0,0 UV-I 0 W/m -1,2 C 1,4 C 3,2 km/h (1 Bft) 96,30 %
07.03.2016 04:05 1,4 C 83 % 1003,9 hPa 0,0 l/m 2,7 km/h (1 Bft) SW 219 0 min 0,000 mm 0,0 UV-I 0 W/m -1,2 C 1,4 C 3,2 km/h (1 Bft) 96,55 %
07.03.2016 04:06 1,4 C 83 % 1003,8 hPa 0,0 l/m 1,3 km/h (1 Bft) SW 219 0 min 0,000 mm 0,0 UV-I 0 W/m -1,2 C 1,4 C 3,2 km/h (1 Bft) 95,83 %
07.03.2016 04:07 1,4 C 84 % 1003,9 hPa 0,0 l/m 0,1 km/h (0 Bft) SW 219 0 min 0,000 mm 0,0 UV-I 0 W/m -1,0 C 1,4 C 1,6 km/h (1 Bft) 100,00 %
07.03.2016 04:08 1,4 C 83 % 1003,9 hPa 0,0 l/m 0,0 km/h (0 Bft) SW 219 0 min 0,000 mm 0,0 UV-I 0 W/m -1,2 C 1,4 C 0,0 km/h (0 Bft) 96,30 %
07.03.2016 04:09 1,3 C 84 % 1003,9 hPa 0,0 l/m 0,3 km/h (0 Bft) SW 219 0 min 0,000 mm 0,0 UV-I 0 W/m -1,1 C 1,3 C 1,6 km/h (1 Bft) 96,15 %
07.03.2016 04:10 1,3 C 84 % 1003,9 hPa 0,0 l/m 0,9 km/h (0 Bft) SW 219 0 min 0,000 mm 0,0 UV-I 0 W/m -1,1 C 1,3 C 1,6 km/h (1 Bft) 100,00 %
07.03.2016 04:11 1,3 C 83 % 1003,9 hPa 0,0 l/m 0,9 km/h (0 Bft) SW 219 0 min 0,000 mm 0,0 UV-I 0 W/m -1,3 C 1,3 C 1,6 km/h (1 Bft) 95,65 %
07.03.2016 04:12 1,3 C 82 % 1004,0 hPa 0,0 l/m 1,5 km/h (1 Bft) SW 219 0 min 0,000 mm 0,0 UV-I 0 W/m -1,4 C 1,3 C 3,2 km/h (1 Bft) 100,00 %
07.03.2016 04:13 1,3 C 82 % 1003,9 hPa 0,0 l/m 1,9 km/h (1 Bft) SW 218 0 min 0,000 mm 0,0 UV-I 0 W/m -1,4 C 1,3 C 3,2 km/h (1 Bft) 96,30 %
07.03.2016 04:14 1,4 C 82 % 1003,9 hPa 0,0 l/m 0,7 km/h (0 Bft) SW 218 0 min 0,000 mm 0,0 UV-I 0 W/m -1,3 C 1,4 C 1,6 km/h (1 Bft) 95,65 %
07.03.2016 04:15 1,4 C 82 % 1004,0 hPa 0,0 l/m 0,3 km/h (0 Bft) SW 218 0 min 0,000 mm 0,0 UV-I 0 W/m -1,3 C 1,4 C 1,6 km/h (1 Bft) 100,00 %
07.03.2016 04:16 1,4 C 81 % 1004,0 hPa 0,0 l/m 1,3 km/h (1 Bft) SW 218 0 min 0,000 mm 0,0 UV-I 0 W/m -1,5 C 1,4 C 1,6 km/h (1 Bft) 100,00 %
07.03.2016 04:17 1,4 C 82 % 1004,0 hPa 0,0 l/m 1,9 km/h (1 Bft) SW 218 0 min 0,000 mm 0,0 UV-I 0 W/m -1,3 C 1,4 C 3,2 km/h (1 Bft) 95,83 %
07.03.2016 04:18 1,4 C 81 % 1004,0 hPa 0,0 l/m 3,6 km/h (1 Bft) SW 218 0 min 0,000 mm 0,0 UV-I 0 W/m -1,5 C 1,4 C 4,8 km/h (1 Bft) 100,00 %
07.03.2016 04:19 1,5 C 81 % 1004,0 hPa 0,0 l/m 3,1 km/h (1 Bft) SW 218 0 min 0,000 mm 0,0 UV-I 0 W/m -1,4 C 1,5 C 4,8 km/h (1 Bft) 100,00 %
07.03.2016 04:20 1,5 C 80 % 1004,1 hPa 0,0 l/m 3,4 km/h (1 Bft) SW 218 0 min 0,000 mm 0,0 UV-I 0 W/m -1,6 C 1,5 C 4,8 km/h (1 Bft) 91,30 %
07.03.2016 04:21 1,6 C 80 % 1004,0 hPa 0,0 l/m 4,0 km/h (1 Bft) SW 218 0 min 0,000 mm 0,0 UV-I 0 W/m -1,5 C 1,6 C 4,8 km/h (1 Bft) 93,33 %
07.03.2016 04:22 1,6 C 80 % 1004,0 hPa 0,0 l/m 4,7 km/h (1 Bft) SW 217 0 min 0,000 mm 0,0 UV-I 0 W/m -1,5 C 1,6 C 6,4 km/h (2 Bft) 100,00 %
07.03.2016 04:23 1,7 C 79 % 1004,0 hPa 0,0 l/m 3,9 km/h (1 Bft) SW 217 0 min 0,000 mm 0,0 UV-I 0 W/m -1,5 C 1,7 C 6,4 km/h (2 Bft) 100,00 %
07.03.2016 04:24 1,7 C 79 % 1004,1 hPa 0,0 l/m 3,4 km/h (1 Bft) SW 217 0 min 0,000 mm 0,0 UV-I 0 W/m -1,5 C 1,7 C 6,4 km/h (2 Bft) 100,00 %
07.03.2016 04:25 1,7 C 79 % 1004,1 hPa 0,0 l/m 2,7 km/h (1 Bft) SW 217 0 min 0,000 mm 0,0 UV-I 0 W/m -1,5 C 1,7 C 4,8 km/h (1 Bft) 100,00 %
07.03.2016 04:26 1,8 C 79 % 1004,1 hPa 0,0 l/m 1,9 km/h (1 Bft) SW 217 0 min 0,000 mm 0,0 UV-I 0 W/m -1,4 C 1,8 C 3,2 km/h (1 Bft) 100,00 %
07.03.2016 04:27 1,8 C 79 % 1004,1 hPa 0,0 l/m 3,4 km/h (1 Bft) SW 217 0 min 0,000 mm 0,0 UV-I 0 W/m -1,4 C 1,8 C 4,8 km/h (1 Bft) 100,00 %
07.03.2016 04:28 1,8 C 79 % 1004,1 hPa 0,0 l/m 3,5 km/h (1 Bft) SW 217 0 min 0,000 mm 0,0 UV-I 0 W/m -1,4 C 1,8 C 4,8 km/h (1 Bft) 91,67 %
07.03.2016 04:29 1,8 C 79 % 1004,0 hPa 0,0 l/m 3,0 km/h (1 Bft) SW 217 0 min 0,000 mm 0,0 UV-I 0 W/m -1,4 C 1,8 C 4,8 km/h (1 Bft) 100,00 %
07.03.2016 04:30 1,8 C 80 % 1004,1 hPa 0,0 l/m 3,6 km/h (1 Bft) SW 217 0 min 0,000 mm 0,0 UV-I 0 W/m -1,3 C 1,8 C 4,8 km/h (1 Bft) 100,00 %
07.03.2016 04:31 1,7 C 79 % 1004,1 hPa 0,0 l/m 4,0 km/h (1 Bft) SW 217 0 min 0,000 mm 0,0 UV-I 0 W/m -1,5 C 1,7 C 6,4 km/h (2 Bft) 100,00 %
07.03.2016 04:32 1,7 C 79 % 1004,1 hPa 0,0 l/m 4,2 km/h (1 Bft) SW 217 0 min 0,000 mm 0,0 UV-I 0 W/m -1,5 C 1,7 C 4,8 km/h (1 Bft) 100,00 %
07.03.2016 04:33 1,7 C 79 % 1004,1 hPa 0,0 l/m 4,2 km/h (1 Bft) SW 217 0 min 0,000 mm 0,0 UV-I 0 W/m -1,5 C 1,7 C 4,8 km/h (1 Bft) 100,00 %
07.03.2016 04:34 1,7 C 79 % 1004,1 hPa 0,0 l/m 4,1 km/h (1 Bft) S 184 0 min 0,000 mm 0,0 UV-I 0 W/m -1,5 C 1,7 C 6,4 km/h (2 Bft) 92,59 %
07.03.2016 04:35 1,7 C 79 % 1004,1 hPa 0,0 l/m 4,0 km/h (1 Bft) S 184 0 min 0,000 mm 0,0 UV-I 0 W/m -1,5 C 1,7 C 4,8 km/h (1 Bft) 95,65 %
07.03.2016 04:36 1,8 C 80 % 1004,1 hPa 0,0 l/m 5,6 km/h (1 Bft) S 186 0 min 0,000 mm 0,0 UV-I 0 W/m -1,3 C 1,8 C 8,0 km/h (2 Bft) 100,00 %
07.03.2016 04:37 1,7 C 79 % 1004,1 hPa 0,0 l/m 2,8 km/h (1 Bft) S 180 0 min 0,000 mm 0,0 UV-I 0 W/m -1,5 C 1,7 C 4,8 km/h (1 Bft) 100,00 %
07.03.2016 04:38 1,8 C 79 % 1004,1 hPa 0,0 l/m 4,4 km/h (1 Bft) S 181 0 min 0,000 mm 0,0 UV-I 0 W/m -1,4 C 1,8 C 6,4 km/h (2 Bft) 100,00 %
07.03.2016 04:39 1,8 C 79 % 1004,1 hPa 0,0 l/m 4,0 km/h (1 Bft) S 171 0 min 0,000 mm 0,0 UV-I 0 W/m -1,4 C 1,8 C 6,4 km/h (2 Bft) 100,00 %
07.03.2016 04:40 1,8 C 79 % 1004,2 hPa 0,0 l/m 5,3 km/h (1 Bft) S 176 0 min 0,000 mm 0,0 UV-I 0 W/m -1,4 C 1,8 C 6,4 km/h (2 Bft) 100,00 %
07.03.2016 04:41 1,8 C 79 % 1004,2 hPa 0,0 l/m 3,7 km/h (1 Bft) S 176 0 min 0,000 mm 0,0 UV-I 0 W/m -1,4 C 1,8 C 4,8 km/h (1 Bft) 100,00 %
07.03.2016 04:42 1,8 C 79 % 1004,2 hPa 0,0 l/m 3,4 km/h (1 Bft) S 176 0 min 0,000 mm 0,0 UV-I 0 W/m -1,4 C 1,8 C 4,8 km/h (1 Bft) 100,00 %
07.03.2016 04:43 1,8 C 79 % 1004,1 hPa 0,0 l/m 4,7 km/h (1 Bft) S 182 0 min 0,000 mm 0,0 UV-I 0 W/m -1,4 C 1,8 C 6,4 km/h (2 Bft) 100,00 %
07.03.2016 04:44 1,8 C 79 % 1004,1 hPa 0,0 l/m 5,2 km/h (1 Bft) S 188 0 min 0,000 mm 0,0 UV-I 0 W/m -1,4 C 1,8 C 8,0 km/h (2 Bft) 100,00 %
07.03.2016 04:45 1,8 C 79 % 1004,2 hPa 0,0 l/m 4,6 km/h (1 Bft) S-SW 201 0 min 0,000 mm 0,0 UV-I 0 W/m -1,4 C 1,8 C 6,4 km/h (2 Bft) 100,00 %
07.03.2016 04:46 1,8 C 79 % 1004,2 hPa 0,0 l/m 3,9 km/h (1 Bft) S-SW 202 0 min 0,000 mm 0,0 UV-I 0 W/m -1,4 C 1,8 C 4,8 km/h (1 Bft) 100,00 %
07.03.2016 04:47 1,8 C 79 % 1004,2 hPa 0,0 l/m 3,8 km/h (1 Bft) SW 219 0 min 0,000 mm 0,0 UV-I 0 W/m -1,4 C 1,8 C 4,8 km/h (1 Bft) 100,00 %
07.03.2016 04:48 1,8 C 79 % 1004,2 hPa 0,0 l/m 2,3 km/h (1 Bft) SW 219 0 min 0,000 mm 0,0 UV-I 0 W/m -1,4 C 1,8 C 3,2 km/h (1 Bft) 100,00 %
07.03.2016 04:49 1,8 C 79 % 1004,2 hPa 0,0 l/m 3,5 km/h (1 Bft) SW 216 0 min 0,000 mm 0,0 UV-I 0 W/m -1,4 C 1,8 C 4,8 km/h (1 Bft) 100,00 %
07.03.2016 04:50 1,8 C 79 % 1004,2 hPa 0,0 l/m 3,5 km/h (1 Bft) SW 216 0 min 0,000 mm 0,0 UV-I 0 W/m -1,4 C 1,8 C 4,8 km/h (1 Bft) 100,00 %
07.03.2016 04:51 1,9 C 79 % 1004,2 hPa 0,0 l/m 3,4 km/h (1 Bft) SW 216 0 min 0,000 mm 0,0 UV-I 0 W/m -1,3 C 1,9 C 4,8 km/h (1 Bft) 96,15 %
07.03.2016 04:52 1,8 C 80 % 1004,2 hPa 0,0 l/m 3,0 km/h (1 Bft) SW 216 0 min 0,000 mm 0,0 UV-I 0 W/m -1,3 C 1,8 C 4,8 km/h (1 Bft) 100,00 %
07.03.2016 04:53 1,9 C 80 % 1004,2 hPa 0,0 l/m 4,3 km/h (1 Bft) SW 221 0 min 0,000 mm 0,0 UV-I 0 W/m -1,2 C 1,9 C 4,8 km/h (1 Bft) 100,00 %
07.03.2016 04:54 1,9 C 80 % 1004,2 hPa 0,0 l/m 3,8 km/h (1 Bft) SW 221 0 min 0,000 mm 0,0 UV-I 0 W/m -1,2 C 1,9 C 6,4 km/h (2 Bft) 100,00 %
07.03.2016 04:55 1,8 C 80 % 1004,2 hPa 0,0 l/m 4,3 km/h (1 Bft) SW 215 0 min 0,000 mm 0,0 UV-I 0 W/m -1,3 C 1,8 C 6,4 km/h (2 Bft) 100,00 %
07.03.2016 04:56 1,8 C 80 % 1004,2 hPa 0,0 l/m 4,7 km/h (1 Bft) S-SW 213 0 min 0,000 mm 0,0 UV-I 0 W/m -1,3 C 1,8 C 6,4 km/h (2 Bft) 100,00 %
07.03.2016 04:57 1,9 C 79 % 1004,2 hPa 0,0 l/m 3,6 km/h (1 Bft) S-SW 211 0 min 0,000 mm 0,0 UV-I 0 W/m -1,3 C 1,9 C 4,8 km/h (1 Bft) 100,00 %
07.03.2016 04:58 1,9 C 79 % 1004,2 hPa 0,0 l/m 3,6 km/h (1 Bft) SW 216 0 min 0,000 mm 0,0 UV-I 0 W/m -1,3 C 1,9 C 4,8 km/h (1 Bft) 100,00 %
07.03.2016 04:59 1,9 C 80 % 1004,2 hPa 0,0 l/m 4,6 km/h (1 Bft) W-SW 246 0 min 0,000 mm 0,0 UV-I 0 W/m -1,2 C 1,9 C 6,4 km/h (2 Bft) 100,00 %
07.03.2016 05:00 1,9 C 80 % 1004,2 hPa 0,0 l/m 3,7 km/h (1 Bft) SW 223 0 min 0,000 mm 0,0 UV-I 0 W/m -1,2 C 1,9 C 4,8 km/h (1 Bft) 100,00 %
07.03.2016 05:01 1,9 C 80 % 1004,2 hPa 0,0 l/m 2,4 km/h (1 Bft) SW 222 0 min 0,000 mm 0,0 UV-I 0 W/m -1,2 C 1,9 C 4,8 km/h (1 Bft) 100,00 %
07.03.2016 05:02 1,9 C 80 % 1004,2 hPa 0,0 l/m 3,3 km/h (1 Bft) SW 223 0 min 0,000 mm 0,0 UV-I 0 W/m -1,2 C 1,9 C 4,8 km/h (1 Bft) 100,00 %
07.03.2016 05:03 1,9 C 80 % 1004,2 hPa 0,0 l/m 4,2 km/h (1 Bft) SW 229 0 min 0,000 mm 0,0 UV-I 0 W/m -1,2 C 1,9 C 6,4 km/h (2 Bft) 100,00 %
07.03.2016 05:04 1,9 C 80 % 1004,2 hPa 0,0 l/m 3,5 km/h (1 Bft) W 259 0 min 0,000 mm 0,0 UV-I 0 W/m -1,2 C 1,9 C 6,4 km/h (2 Bft) 100,00 %
07.03.2016 05:05 1,9 C 80 % 1004,2 hPa 0,0 l/m 5,8 km/h (2 Bft) W-SW 249 0 min 0,000 mm 0,0 UV-I 0 W/m -1,2 C 1,9 C 6,4 km/h (2 Bft) 100,00 %
07.03.2016 05:06 1,9 C 80 % 1004,2 hPa 0,0 l/m 6,1 km/h (2 Bft) W-SW 251 0 min 0,000 mm 0,0 UV-I 0 W/m -1,2 C 1,9 C 8,0 km/h (2 Bft) 100,00 %
07.03.2016 05:07 1,9 C 80 % 1004,2 hPa 0,0 l/m 8,2 km/h (2 Bft) W-SW 240 0 min 0,000 mm 0,0 UV-I 0 W/m -1,2 C 0,2 C 12,9 km/h (3 Bft) 100,00 %
07.03.2016 05:08 1,9 C 80 % 1004,2 hPa 0,0 l/m 7,2 km/h (2 Bft) W-SW 251 0 min 0,000 mm 0,0 UV-I 0 W/m -1,2 C 1,1 C 11,3 km/h (2 Bft) 100,00 %
07.03.2016 05:09 1,8 C 81 % 1004,2 hPa 0,0 l/m 5,6 km/h (1 Bft) W-SW 254 0 min 0,000 mm 0,0 UV-I 0 W/m -1,1 C 1,8 C 9,7 km/h (2 Bft) 95,83 %
07.03.2016 05:10 1,9 C 81 % 1004,2 hPa 0,0 l/m 6,5 km/h (2 Bft) W-SW 241 0 min 0,000 mm 0,0 UV-I 0 W/m -1,0 C 1,8 C 9,7 km/h (2 Bft) 100,00 %
07.03.2016 05:11 1,8 C 81 % 1004,1 hPa 0,0 l/m 6,3 km/h (2 Bft) W-SW 246 0 min 0,000 mm 0,0 UV-I 0 W/m -1,1 C 1,8 C 8,0 km/h (2 Bft) 100,00 %
07.03.2016 05:12 1,8 C 80 % 1004,1 hPa 0,0 l/m 4,7 km/h (1 Bft) W-SW 251 0 min 0,000 mm 0,0 UV-I 0 W/m -1,3 C 1,8 C 6,4 km/h (2 Bft) 100,00 %
07.03.2016 05:13 1,9 C 80 % 1004,1 hPa 0,0 l/m 8,5 km/h (2 Bft) W-SW 248 0 min 0,000 mm 0,0 UV-I 0 W/m -1,2 C -0,1 C 11,3 km/h (2 Bft) 100,00 %
07.03.2016 05:14 1,9 C 80 % 1004,1 hPa 0,0 l/m 5,9 km/h (2 Bft) W-SW 250 0 min 0,000 mm 0,0 UV-I 0 W/m -1,2 C 1,9 C 8,0 km/h (2 Bft) 100,00 %
07.03.2016 05:15 1,9 C 80 % 1004,1 hPa 0,0 l/m 5,0 km/h (1 Bft) W-SW 250 0 min 0,000 mm 0,0 UV-I 0 W/m -1,2 C 1,9 C 8,0 km/h (2 Bft) 100,00 %
07.03.2016 05:16 1,9 C 80 % 1004,1 hPa 0,0 l/m 5,3 km/h (1 Bft) W-SW 254 0 min 0,000 mm 0,0 UV-I 0 W/m -1,2 C 1,9 C 6,4 km/h (2 Bft) 100,00 %
07.03.2016 05:17 1,9 C 80 % 1004,1 hPa 0,0 l/m 5,0 km/h (1 Bft) W 264 0 min 0,000 mm 0,0 UV-I 0 W/m -1,2 C 1,9 C 6,4 km/h (2 Bft) 100,00 %
07.03.2016 05:18 1,9 C 80 % 1004,1 hPa 0,0 l/m 6,0 km/h (2 Bft) W-SW 250 0 min 0,000 mm 0,0 UV-I 0 W/m -1,2 C 1,9 C 11,3 km/h (2 Bft) 100,00 %
07.03.2016 05:19 1,9 C 80 % 1004,1 hPa 0,0 l/m 4,4 km/h (1 Bft) W-SW 254 0 min 0,000 mm 0,0 UV-I 0 W/m -1,2 C 1,9 C 4,8 km/h (1 Bft) 100,00 %
07.03.2016 05:20 1,9 C 80 % 1004,1 hPa 0,0 l/m 4,3 km/h (1 Bft) W 271 0 min 0,000 mm 0,0 UV-I 0 W/m -1,2 C 1,9 C 6,4 km/h (2 Bft) 100,00 %
07.03.2016 05:21 1,9 C 80 % 1004,0 hPa 0,0 l/m 3,8 km/h (1 Bft) W 271 0 min 0,000 mm 0,0 UV-I 0 W/m -1,2 C 1,9 C 4,8 km/h (1 Bft) 100,00 %
07.03.2016 05:22 1,9 C 80 % 1004,0 hPa 0,0 l/m 4,1 km/h (1 Bft) W 261 0 min 0,000 mm 0,0 UV-I 0 W/m -1,2 C 1,9 C 6,4 km/h (2 Bft) 100,00 %
07.03.2016 05:23 1,9 C 80 % 1004,0 hPa 0,0 l/m 3,8 km/h (1 Bft) W 261 0 min 0,000 mm 0,0 UV-I 0 W/m -1,2 C 1,9 C 4,8 km/h (1 Bft) 95,65 %
07.03.2016 05:24 1,9 C 80 % 1004,0 hPa 0,0 l/m 4,0 km/h (1 Bft) W 269 0 min 0,000 mm 0,0 UV-I 0 W/m -1,2 C 1,9 C 4,8 km/h (1 Bft) 100,00 %
07.03.2016 05:25 1,9 C 80 % 1004,1 hPa 0,0 l/m 4,0 km/h (1 Bft) W 269 0 min 0,000 mm 0,0 UV-I 0 W/m -1,2 C 1,9 C 4,8 km/h (1 Bft) 100,00 %
07.03.2016 05:26 1,9 C 80 % 1004,1 hPa 0,0 l/m 3,8 km/h (1 Bft) W 269 0 min 0,000 mm 0,0 UV-I 0 W/m -1,2 C 1,9 C 4,8 km/h (1 Bft) 100,00 %
07.03.2016 05:27 1,9 C 80 % 1004,1 hPa 0,0 l/m 4,9 km/h (1 Bft) W 269 0 min 0,000 mm 0,0 UV-I 0 W/m -1,2 C 1,9 C 6,4 km/h (2 Bft) 100,00 %
07.03.2016 05:28 1,9 C 80 % 1004,1 hPa 0,0 l/m 3,8 km/h (1 Bft) W 269 0 min 0,000 mm 0,0 UV-I 0 W/m -1,2 C 1,9 C 6,4 km/h (2 Bft) 87,50 %
07.03.2016 05:29 1,9 C 80 % 1004,1 hPa 0,0 l/m 2,5 km/h (1 Bft) W 269 0 min 0,000 mm 0,0 UV-I 0 W/m -1,2 C 1,9 C 4,8 km/h (1 Bft) 95,65 %
07.03.2016 05:30 1,9 C 80 % 1004,1 hPa 0,0 l/m 2,4 km/h (1 Bft) W 269 0 min 0,000 mm 0,0 UV-I 0 W/m -1,2 C 1,9 C 3,2 km/h (1 Bft) 100,00 %
07.03.2016 05:31 1,9 C 80 % 1004,2 hPa 0,0 l/m 2,5 km/h (1 Bft) W 264 0 min 0,000 mm 0,0 UV-I 0 W/m -1,2 C 1,9 C 3,2 km/h (1 Bft) 100,00 %
07.03.2016 05:32 1,9 C 80 % 1004,2 hPa 0,0 l/m 3,6 km/h (1 Bft) W-SW 248 0 min 0,000 mm 0,0 UV-I 0 W/m -1,2 C 1,9 C 6,4 km/h (2 Bft) 100,00 %
07.03.2016 05:33 1,9 C 80 % 1004,2 hPa 0,0 l/m 2,3 km/h (1 Bft) W-SW 248 0 min 0,000 mm 0,0 UV-I 0 W/m -1,2 C 1,9 C 3,2 km/h (1 Bft) 96,30 %
07.03.2016 05:34 1,9 C 80 % 1004,1 hPa 0,0 l/m 2,3 km/h (1 Bft) W-SW 248 0 min 0,000 mm 0,0 UV-I 0 W/m -1,2 C 1,9 C 3,2 km/h (1 Bft) 96,55 %
07.03.2016 05:35 1,9 C 80 % 1004,2 hPa 0,0 l/m 5,6 km/h (1 Bft) W-SW 238 0 min 0,000 mm 0,0 UV-I 0 W/m -1,2 C 1,9 C 8,0 km/h (2 Bft) 100,00 %
07.03.2016 05:36 1,9 C 80 % 1004,2 hPa 0,0 l/m 4,7 km/h (1 Bft) W-SW 237 0 min 0,000 mm 0,0 UV-I 0 W/m -1,2 C 1,9 C 6,4 km/h (2 Bft) 100,00 %
07.03.2016 05:37 1,9 C 80 % 1004,2 hPa 0,0 l/m 3,9 km/h (1 Bft) W-SW 237 0 min 0,000 mm 0,0 UV-I 0 W/m -1,2 C 1,9 C 4,8 km/h (1 Bft) 100,00 %
07.03.2016 05:38 1,9 C 80 % 1004,2 hPa 0,0 l/m 3,1 km/h (1 Bft) W-SW 237 0 min 0,000 mm 0,0 UV-I 0 W/m -1,2 C 1,9 C 4,8 km/h (1 Bft) 100,00 %
07.03.2016 05:39 1,9 C 80 % 1004,2 hPa 0,0 l/m 3,1 km/h (1 Bft) W-SW 237 0 min 0,000 mm 0,0 UV-I 0 W/m -1,2 C 1,9 C 4,8 km/h (1 Bft) 100,00 %
07.03.2016 05:40 1,9 C 80 % 1004,2 hPa 0,0 l/m 2,9 km/h (1 Bft) W-SW 237 0 min 0,000 mm 0,0 UV-I 0 W/m -1,2 C 1,9 C 4,8 km/h (1 Bft) 100,00 %
07.03.2016 05:41 1,9 C 80 % 1004,2 hPa 0,0 l/m 4,9 km/h (1 Bft) SW 222 0 min 0,000 mm 0,0 UV-I 0 W/m -1,2 C 1,9 C 6,4 km/h (2 Bft) 100,00 %
07.03.2016 05:42 1,9 C 81 % 1004,2 hPa 0,0 l/m 3,7 km/h (1 Bft) W-SW 258 0 min 0,000 mm 0,0 UV-I 0 W/m -1,0 C 1,9 C 6,4 km/h (2 Bft) 96,15 %
07.03.2016 05:43 1,9 C 81 % 1004,2 hPa 0,0 l/m 5,5 km/h (1 Bft) W-SW 248 0 min 0,000 mm 0,0 UV-I 0 W/m -1,0 C 1,9 C 8,0 km/h (2 Bft) 95,83 %
07.03.2016 05:44 1,9 C 81 % 1004,2 hPa 0,0 l/m 7,2 km/h (2 Bft) SW 229 0 min 0,000 mm 0,0 UV-I 0 W/m -1,0 C 1,1 C 8,0 km/h (2 Bft) 100,00 %
07.03.2016 05:45 1,8 C 82 % 1004,2 hPa 0,0 l/m 7,3 km/h (2 Bft) SW 235 0 min 0,000 mm 0,0 UV-I 0 W/m -0,9 C 0,9 C 9,7 km/h (2 Bft) 96,30 %
07.03.2016 05:46 1,8 C 82 % 1004,2 hPa 0,0 l/m 6,5 km/h (2 Bft) SW 233 0 min 0,000 mm 0,0 UV-I 0 W/m -0,9 C 1,7 C 11,3 km/h (2 Bft) 95,65 %
07.03.2016 05:47 1,8 C 82 % 1004,2 hPa 0,0 l/m 6,7 km/h (2 Bft) SW 214 0 min 0,000 mm 0,0 UV-I 0 W/m -0,9 C 1,5 C 9,7 km/h (2 Bft) 100,00 %
07.03.2016 05:48 1,8 C 83 % 1004,2 hPa 0,0 l/m 7,6 km/h (2 Bft) W-SW 250 0 min 0,000 mm 0,0 UV-I 0 W/m -0,8 C 0,6 C 11,3 km/h (2 Bft) 92,31 %
07.03.2016 05:49 1,8 C 83 % 1004,2 hPa 0,0 l/m 6,1 km/h (2 Bft) W-SW 244 0 min 0,000 mm 0,0 UV-I 0 W/m -0,8 C 1,8 C 8,0 km/h (2 Bft) 100,00 %
07.03.2016 05:50 1,8 C 83 % 1004,2 hPa 0,0 l/m 6,4 km/h (2 Bft) W-SW 258 0 min 0,000 mm 0,0 UV-I 0 W/m -0,8 C 1,8 C 9,7 km/h (2 Bft) 96,15 %
07.03.2016 05:51 1,7 C 83 % 1004,2 hPa 0,0 l/m 5,9 km/h (2 Bft) W 267 0 min 0,000 mm 0,0 UV-I 0 W/m -0,9 C 1,7 C 9,7 km/h (2 Bft) 96,30 %
07.03.2016 05:52 1,7 C 84 % 1004,2 hPa 0,0 l/m 4,1 km/h (1 Bft) W 273 0 min 0,000 mm 0,0 UV-I 0 W/m -0,7 C 1,7 C 6,4 km/h (2 Bft) 100,00 %
07.03.2016 05:53 1,7 C 84 % 1004,2 hPa 0,0 l/m 2,7 km/h (1 Bft) W 265 0 min 0,000 mm 0,0 UV-I 0 W/m -0,7 C 1,7 C 4,8 km/h (1 Bft) 100,00 %
07.03.2016 05:54 1,7 C 84 % 1004,2 hPa 0,0 l/m 6,0 km/h (2 Bft) W 268 0 min 0,000 mm 0,0 UV-I 0 W/m -0,7 C 1,7 C 9,7 km/h (2 Bft) 95,83 %
07.03.2016 05:55 1,7 C 84 % 1004,2 hPa 0,0 l/m 5,6 km/h (1 Bft) W-NW 283 0 min 0,000 mm 0,0 UV-I 0 W/m -0,7 C 1,7 C 9,7 km/h (2 Bft) 91,30 %
07.03.2016 05:56 1,7 C 84 % 1004,2 hPa 0,0 l/m 3,7 km/h (1 Bft) W-NW 288 0 min 0,000 mm 0,0 UV-I 0 W/m -0,7 C 1,7 C 4,8 km/h (1 Bft) 100,00 %
07.03.2016 05:57 1,7 C 84 % 1004,2 hPa 0,0 l/m 2,4 km/h (1 Bft) W-NW 290 0 min 0,000 mm 0,0 UV-I 0 W/m -0,7 C 1,7 C 3,2 km/h (1 Bft) 95,65 %
07.03.2016 05:58 1,7 C 84 % 1004,2 hPa 0,0 l/m 3,1 km/h (1 Bft) W-NW 290 0 min 0,000 mm 0,0 UV-I 0 W/m -0,7 C 1,7 C 4,8 km/h (1 Bft) 100,00 %
07.03.2016 05:59 1,6 C 84 % 1004,2 hPa 0,0 l/m 0,9 km/h (0 Bft) W-NW 290 0 min 0,000 mm 0,0 UV-I 0 W/m -0,8 C 1,6 C 1,6 km/h (1 Bft) 95,65 %
07.03.2016 06:00 1,6 C 84 % 1004,2 hPa 0,0 l/m 1,9 km/h (1 Bft) W-NW 291 0 min 0,000 mm 0,0 UV-I 0 W/m -0,8 C 1,6 C 4,8 km/h (1 Bft) 100,00 %
07.03.2016 06:01 1,6 C 84 % 1004,2 hPa 0,0 l/m 1,6 km/h (1 Bft) W-NW 291 0 min 0,000 mm 0,0 UV-I 0 W/m -0,8 C 1,6 C 3,2 km/h (1 Bft) 95,65 %
07.03.2016 06:02 1,6 C 84 % 1004,2 hPa 0,0 l/m 0,7 km/h (0 Bft) W-NW 291 0 min 0,000 mm 0,0 UV-I 0 W/m -0,8 C 1,6 C 1,6 km/h (1 Bft) 96,30 %
07.03.2016 06:03 1,6 C 85 % 1004,1 hPa 0,0 l/m 0,7 km/h (0 Bft) W-NW 291 0 min 0,000 mm 0,0 UV-I 0 W/m -0,6 C 1,6 C 1,6 km/h (1 Bft) 100,00 %
07.03.2016 06:04 1,5 C 86 % 1004,1 hPa 0,0 l/m 0,8 km/h (0 Bft) W-NW 291 0 min 0,000 mm 0,0 UV-I 0 W/m -0,6 C 1,5 C 1,6 km/h (1 Bft) 86,67 %
07.03.2016 06:05 1,5 C 86 % 1004,1 hPa 0,0 l/m 0,5 km/h (0 Bft) W-NW 291 0 min 0,000 mm 0,0 UV-I 0 W/m -0,6 C 1,5 C 1,6 km/h (1 Bft) 100,00 %
07.03.2016 06:06 1,4 C 86 % 1004,1 hPa 0,0 l/m 0,8 km/h (0 Bft) W-NW 291 0 min 0,000 mm 0,0 UV-I 0 W/m -0,7 C 1,4 C 1,6 km/h (1 Bft) 95,83 %
07.03.2016 06:07 1,4 C 86 % 1004,1 hPa 0,0 l/m 0,1 km/h (0 Bft) W-NW 291 0 min 0,000 mm 0,0 UV-I 0 W/m -0,7 C 1,4 C 1,6 km/h (1 Bft) 100,00 %
07.03.2016 06:08 1,4 C 86 % 1004,1 hPa 0,0 l/m 0,6 km/h (0 Bft) W-NW 291 0 min 0,000 mm 0,0 UV-I 0 W/m -0,7 C 1,4 C 1,6 km/h (1 Bft) 95,83 %
07.03.2016 06:09 1,4 C 86 % 1004,2 hPa 0,0 l/m 0,4 km/h (0 Bft) W-NW 291 0 min 0,000 mm 0,0 UV-I 0 W/m -0,7 C 1,4 C 1,6 km/h (1 Bft) 96,15 %
07.03.2016 06:10 1,4 C 86 % 1004,2 hPa 0,0 l/m 0,7 km/h (0 Bft) W-NW 291 0 min 0,000 mm 0,0 UV-I 0 W/m -0,7 C 1,4 C 1,6 km/h (1 Bft) 95,83 %
07.03.2016 06:11 1,4 C 86 % 1004,2 hPa 0,0 l/m 0,1 km/h (0 Bft) W-NW 291 0 min 0,000 mm 0,0 UV-I 0 W/m -0,7 C 1,4 C 1,6 km/h (1 Bft) 95,83 %
07.03.2016 06:12 1,4 C 86 % 1004,2 hPa 0,0 l/m 1,1 km/h (1 Bft) W-NW 291 0 min 0,000 mm 0,0 UV-I 0 W/m -0,7 C 1,4 C 3,2 km/h (1 Bft) 100,00 %
07.03.2016 06:13 1,4 C 86 % 1004,2 hPa 0,0 l/m 0,1 km/h (0 Bft) W-NW 291 0 min 0,000 mm 0,0 UV-I 0 W/m -0,7 C 1,4 C 1,6 km/h (1 Bft) 95,83 %
07.03.2016 06:14 1,4 C 86 % 1004,3 hPa 0,0 l/m 0,8 km/h (0 Bft) W-NW 291 0 min 0,000 mm 0,0 UV-I 0 W/m -0,7 C 1,4 C 1,6 km/h (1 Bft) 100,00 %
07.03.2016 06:15 1,4 C 86 % 1004,3 hPa 0,0 l/m 0,0 km/h (0 Bft) W-NW 291 0 min 0,000 mm 0,0 UV-I 0 W/m -0,7 C 1,4 C 0,0 km/h (0 Bft) 95,83 %
07.03.2016 06:16 1,3 C 86 % 1004,3 hPa 0,0 l/m 0,0 km/h (0 Bft) W-NW 291 0 min 0,000 mm 0,0 UV-I 0 W/m -0,8 C 1,3 C 0,0 km/h (0 Bft) 100,00 %
07.03.2016 06:17 1,3 C 86 % 1004,3 hPa 0,0 l/m 0,1 km/h (0 Bft) W-NW 291 0 min 0,000 mm 0,0 UV-I 0 W/m -0,8 C 1,3 C 1,6 km/h (1 Bft) 91,67 %
07.03.2016 06:18 1,3 C 86 % 1004,3 hPa 0,0 l/m 0,1 km/h (0 Bft) W-NW 291 0 min 0,000 mm 0,0 UV-I 0 W/m -0,8 C 1,3 C 1,6 km/h (1 Bft) 100,00 %
07.03.2016 06:19 1,4 C 86 % 1004,3 hPa 0,0 l/m 0,6 km/h (0 Bft) W-NW 291 0 min 0,000 mm 0,0 UV-I 0 W/m -0,7 C 1,4 C 3,2 km/h (1 Bft) 100,00 %
07.03.2016 06:20 1,3 C 86 % 1004,3 hPa 0,0 l/m 0,6 km/h (0 Bft) W-NW 291 0 min 0,000 mm 0,0 UV-I 0 W/m -0,8 C 1,3 C 1,6 km/h (1 Bft) 100,00 %
07.03.2016 06:21 1,3 C 86 % 1004,3 hPa 0,0 l/m 0,4 km/h (0 Bft) W-NW 291 0 min 0,000 mm 0,0 UV-I 0 W/m -0,8 C 1,3 C 1,6 km/h (1 Bft) 100,00 %
07.03.2016 06:22 1,3 C 86 % 1004,3 hPa 0,0 l/m 0,2 km/h (0 Bft) W-NW 291 0 min 0,000 mm 0,0 UV-I 0 W/m -0,8 C 1,3 C 1,6 km/h (1 Bft) 100,00 %
07.03.2016 06:23 1,4 C 86 % 1004,3 hPa 0,0 l/m 0,1 km/h (0 Bft) W-NW 291 0 min 0,000 mm 0,0 UV-I 0 W/m -0,7 C 1,4 C 1,6 km/h (1 Bft) 100,00 %
07.03.2016 06:24 1,4 C 86 % 1004,3 hPa 0,0 l/m 0,0 km/h (0 Bft) W-NW 291 0 min 0,000 mm 0,0 UV-I 0 W/m -0,7 C 1,4 C 0,0 km/h (0 Bft) 100,00 %
07.03.2016 06:25 1,4 C 86 % 1004,3 hPa 0,0 l/m 0,1 km/h (0 Bft) W-NW 291 0 min 0,000 mm 0,0 UV-I 0 W/m -0,7 C 1,4 C 1,6 km/h (1 Bft) 100,00 %
07.03.2016 06:26 1,4 C 86 % 1004,3 hPa 0,0 l/m 0,1 km/h (0 Bft) W-NW 291 0 min 0,000 mm 0,0 UV-I 0 W/m -0,7 C 1,4 C 1,6 km/h (1 Bft) 95,65 %
07.03.2016 06:27 1,4 C 86 % 1004,3 hPa 0,0 l/m 0,0 km/h (0 Bft) W-NW 291 0 min 0,000 mm 0,0 UV-I 0 W/m -0,7 C 1,4 C 0,0 km/h (0 Bft) 100,00 %
07.03.2016 06:28 1,4 C 86 % 1004,3 hPa 0,0 l/m 0,0 km/h (0 Bft) W-NW 291 0 min 0,000 mm 0,0 UV-I 0 W/m -0,7 C 1,4 C 0,0 km/h (0 Bft) 100,00 %
07.03.2016 06:29 1,4 C 86 % 1004,3 hPa 0,0 l/m 0,2 km/h (0 Bft) W-NW 291 0 min 0,000 mm 0,0 UV-I 0 W/m -0,7 C 1,4 C 1,6 km/h (1 Bft) 100,00 %
07.03.2016 06:30 1,4 C 86 % 1004,3 hPa 0,0 l/m 0,0 km/h (0 Bft) W-NW 291 0 min 0,000 mm 0,0 UV-I 0 W/m -0,7 C 1,4 C 0,0 km/h (0 Bft) 100,00 %
07.03.2016 06:31 1,4 C 86 % 1004,3 hPa 0,0 l/m 0,0 km/h (0 Bft) W-NW 291 0 min 0,000 mm 0,0 UV-I 0 W/m -0,7 C 1,4 C 0,0 km/h (0 Bft) 100,00 %
07.03.2016 06:32 1,4 C 86 % 1004,3 hPa 0,0 l/m 0,0 km/h (0 Bft) W-NW 291 0 min 0,000 mm 0,0 UV-I 0 W/m -0,7 C 1,4 C 0,0 km/h (0 Bft) 100,00 %
07.03.2016 06:33 1,4 C 86 % 1004,3 hPa 0,0 l/m 0,0 km/h (0 Bft) W-NW 291 0 min 0,000 mm 0,0 UV-I 0 W/m -0,7 C 1,4 C 0,0 km/h (0 Bft) 95,65 %
07.03.2016 06:34 1,4 C 86 % 1004,3 hPa 0,0 l/m 0,0 km/h (0 Bft) W-NW 291 0 min 0,000 mm 0,0 UV-I 0 W/m -0,7 C 1,4 C 0,0 km/h (0 Bft) 100,00 %
07.03.2016 06:35 1,4 C 86 % 1004,3 hPa 0,0 l/m 0,0 km/h (0 Bft) W-NW 291 0 min 0,000 mm 0,0 UV-I 0 W/m -0,7 C 1,4 C 0,0 km/h (0 Bft) 95,65 %
07.03.2016 06:36 1,4 C 86 % 1004,3 hPa 0,0 l/m 0,1 km/h (0 Bft) W-NW 291 0 min 0,000 mm 0,0 UV-I 0 W/m -0,7 C 1,4 C 1,6 km/h (1 Bft) 100,00 %
07.03.2016 06:37 1,4 C 86 % 1004,3 hPa 0,0 l/m 0,1 km/h (0 Bft) W-NW 291 0 min 0,000 mm 0,0 UV-I 0 W/m -0,7 C 1,4 C 1,6 km/h (1 Bft) 100,00 %
07.03.2016 06:38 1,4 C 86 % 1004,3 hPa 0,0 l/m 0,0 km/h (0 Bft) W-NW 291 0 min 0,000 mm 0,0 UV-I 0 W/m -0,7 C 1,4 C 0,0 km/h (0 Bft) 100,00 %
07.03.2016 06:39 1,4 C 86 % 1004,3 hPa 0,0 l/m 0,1 km/h (0 Bft) W-NW 291 0 min 0,000 mm 0,0 UV-I 4 W/m -0,7 C 1,4 C 1,6 km/h (1 Bft) 100,00 %
07.03.2016 06:40 1,4 C 86 % 1004,3 hPa 0,0 l/m 0,3 km/h (0 Bft) W-NW 291 0 min 0,000 mm 0,0 UV-I 5 W/m -0,7 C 1,4 C 1,6 km/h (1 Bft) 100,00 %
07.03.2016 06:41 1,4 C 86 % 1004,4 hPa 0,0 l/m 0,0 km/h (0 Bft) W-NW 291 0 min 0,000 mm 0,0 UV-I 5 W/m -0,7 C 1,4 C 0,0 km/h (0 Bft) 100,00 %
07.03.2016 06:42 1,4 C 87 % 1004,4 hPa 0,0 l/m 0,1 km/h (0 Bft) W-NW 291 0 min 0,000 mm 0,0 UV-I 5 W/m -0,5 C 1,4 C 1,6 km/h (1 Bft) 100,00 %
07.03.2016 06:43 1,4 C 87 % 1004,4 hPa 0,0 l/m 0,1 km/h (0 Bft) W-NW 291 0 min 0,000 mm 0,0 UV-I 5 W/m -0,5 C 1,4 C 1,6 km/h (1 Bft) 100,00 %
07.03.2016 06:44 1,3 C 87 % 1004,4 hPa 0,0 l/m 0,8 km/h (0 Bft) W-NW 291 0 min 0,000 mm 0,0 UV-I 5 W/m -0,6 C 1,3 C 1,6 km/h (1 Bft) 100,00 %
07.03.2016 06:45 1,3 C 87 % 1004,4 hPa 0,0 l/m 1,2 km/h (1 Bft) W-NW 291 0 min 0,000 mm 0,0 UV-I 5 W/m -0,6 C 1,3 C 3,2 km/h (1 Bft) 100,00 %
07.03.2016 06:46 1,3 C 87 % 1004,4 hPa 0,0 l/m 0,1 km/h (0 Bft) W-NW 291 0 min 0,000 mm 0,0 UV-I 7 W/m -0,6 C 1,3 C 1,6 km/h (1 Bft) 100,00 %
07.03.2016 06:47 1,3 C 87 % 1004,4 hPa 0,0 l/m 0,2 km/h (0 Bft) W-NW 291 0 min 0,000 mm 0,0 UV-I 7 W/m -0,6 C 1,3 C 1,6 km/h (1 Bft) 100,00 %
07.03.2016 06:48 1,3 C 87 % 1004,5 hPa 0,0 l/m 0,7 km/h (0 Bft) W-NW 285 0 min 0,000 mm 0,0 UV-I 7 W/m -0,6 C 1,3 C 1,6 km/h (1 Bft) 100,00 %
07.03.2016 06:49 1,3 C 87 % 1004,4 hPa 0,0 l/m 0,8 km/h (0 Bft) W-NW 284 0 min 0,000 mm 0,0 UV-I 7 W/m -0,6 C 1,3 C 1,6 km/h (1 Bft) 100,00 %
07.03.2016 06:50 1,2 C 87 % 1004,5 hPa 0,0 l/m 1,7 km/h (1 Bft) W-SW 239 0 min 0,000 mm 0,0 UV-I 7 W/m -0,7 C 1,2 C 3,2 km/h (1 Bft) 100,00 %
07.03.2016 06:51 1,2 C 87 % 1004,5 hPa 0,0 l/m 1,8 km/h (1 Bft) W-SW 239 0 min 0,000 mm 0,0 UV-I 9 W/m -0,7 C 1,2 C 3,2 km/h (1 Bft) 100,00 %
07.03.2016 06:52 1,2 C 87 % 1004,5 hPa 0,0 l/m 1,6 km/h (1 Bft) W-SW 239 0 min 0,000 mm 0,0 UV-I 9 W/m -0,7 C 1,2 C 3,2 km/h (1 Bft) 100,00 %
07.03.2016 06:53 1,2 C 87 % 1004,5 hPa 0,0 l/m 0,8 km/h (0 Bft) W-SW 239 0 min 0,000 mm 0,0 UV-I 9 W/m -0,7 C 1,2 C 1,6 km/h (1 Bft) 95,83 %
07.03.2016 06:54 1,2 C 87 % 1004,5 hPa 0,0 l/m 0,9 km/h (0 Bft) W-SW 239 0 min 0,000 mm 0,0 UV-I 9 W/m -0,7 C 1,2 C 3,2 km/h (1 Bft) 96,15 %
07.03.2016 06:55 1,2 C 87 % 1004,5 hPa 0,0 l/m 1,7 km/h (1 Bft) W-SW 239 0 min 0,000 mm 0,0 UV-I 9 W/m -0,7 C 1,2 C 3,2 km/h (1 Bft) 100,00 %
07.03.2016 06:56 1,2 C 86 % 1004,5 hPa 0,0 l/m 1,7 km/h (1 Bft) W-SW 238 0 min 0,000 mm 0,0 UV-I 9 W/m -0,9 C 1,2 C 3,2 km/h (1 Bft) 100,00 %
07.03.2016 06:57 1,3 C 86 % 1004,5 hPa 0,0 l/m 2,1 km/h (1 Bft) S-SW 198 0 min 0,000 mm 0,0 UV-I 11 W/m -0,8 C 1,3 C 4,8 km/h (1 Bft) 100,00 %
07.03.2016 06:58 1,3 C 86 % 1004,5 hPa 0,0 l/m 1,7 km/h (1 Bft) S 184 0 min 0,000 mm 0,0 UV-I 11 W/m -0,8 C 1,3 C 3,2 km/h (1 Bft) 100,00 %
07.03.2016 06:59 1,3 C 86 % 1004,5 hPa 0,0 l/m 2,1 km/h (1 Bft) S 183 0 min 0,000 mm 0,0 UV-I 11 W/m -0,8 C 1,3 C 4,8 km/h (1 Bft) 100,00 %
07.03.2016 07:00 1,4 C 86 % 1004,5 hPa 0,0 l/m 1,5 km/h (1 Bft) S 183 0 min 0,000 mm 0,0 UV-I 12 W/m -0,7 C 1,4 C 1,6 km/h (1 Bft) 100,00 %
07.03.2016 07:01 1,4 C 86 % 1004,5 hPa 0,0 l/m 3,6 km/h (1 Bft) S-SO 160 0 min 0,000 mm 0,0 UV-I 12 W/m -0,7 C 1,4 C 6,4 km/h (2 Bft) 100,00 %
07.03.2016 07:02 1,4 C 86 % 1004,5 hPa 0,0 l/m 2,5 km/h (1 Bft) S-SO 156 0 min 0,000 mm 0,0 UV-I 14 W/m -0,7 C 1,4 C 4,8 km/h (1 Bft) 100,00 %
07.03.2016 07:03 1,4 C 87 % 1004,5 hPa 0,0 l/m 1,5 km/h (1 Bft) S-SO 163 0 min 0,000 mm 0,0 UV-I 16 W/m -0,5 C 1,4 C 3,2 km/h (1 Bft) 100,00 %
07.03.2016 07:04 1,4 C 87 % 1004,5 hPa 0,0 l/m 3,6 km/h (1 Bft) S-SO 163 0 min 0,000 mm 0,0 UV-I 16 W/m -0,5 C 1,4 C 6,4 km/h (2 Bft) 100,00 %
07.03.2016 07:05 1,4 C 87 % 1004,6 hPa 0,0 l/m 2,9 km/h (1 Bft) S-SO 163 0 min 0,000 mm 0,0 UV-I 18 W/m -0,5 C 1,4 C 6,4 km/h (2 Bft) 100,00 %
07.03.2016 07:06 1,4 C 87 % 1004,5 hPa 0,0 l/m 4,6 km/h (1 Bft) S 184 0 min 0,000 mm 0,0 UV-I 19 W/m -0,5 C 1,4 C 6,4 km/h (2 Bft) 100,00 %
07.03.2016 07:07 1,4 C 86 % 1004,5 hPa 0,0 l/m 3,8 km/h (1 Bft) S 184 0 min 0,000 mm 0,0 UV-I 19 W/m -0,7 C 1,4 C 6,4 km/h (2 Bft) 100,00 %
07.03.2016 07:08 1,4 C 86 % 1004,5 hPa 0,0 l/m 5,3 km/h (1 Bft) S 174 0 min 0,000 mm 0,0 UV-I 21 W/m -0,7 C 1,4 C 8,0 km/h (2 Bft) 100,00 %
07.03.2016 07:09 1,4 C 86 % 1004,5 hPa 0,0 l/m 5,0 km/h (1 Bft) S 173 0 min 0,000 mm 0,0 UV-I 21 W/m -0,7 C 1,4 C 8,0 km/h (2 Bft) 100,00 %
07.03.2016 07:10 1,4 C 86 % 1004,5 hPa 0,0 l/m 4,1 km/h (1 Bft) S 182 0 min 0,000 mm 0,0 UV-I 21 W/m -0,7 C 1,4 C 8,0 km/h (2 Bft) 100,00 %
07.03.2016 07:11 1,5 C 86 % 1004,5 hPa 0,0 l/m 4,0 km/h (1 Bft) SW 216 0 min 0,000 mm 0,0 UV-I 21 W/m -0,6 C 1,5 C 4,8 km/h (1 Bft) 100,00 %
07.03.2016 07:12 1,5 C 85 % 1004,5 hPa 0,0 l/m 2,7 km/h (1 Bft) SW 216 0 min 0,000 mm 0,0 UV-I 21 W/m -0,7 C 1,5 C 4,8 km/h (1 Bft) 100,00 %
07.03.2016 07:13 1,5 C 85 % 1004,5 hPa 0,0 l/m 2,3 km/h (1 Bft) SW 216 0 min 0,000 mm 0,0 UV-I 21 W/m -0,7 C 1,5 C 3,2 km/h (1 Bft) 100,00 %
07.03.2016 07:14 1,5 C 86 % 1004,5 hPa 0,0 l/m 3,5 km/h (1 Bft) W-SW 244 0 min 0,000 mm 0,0 UV-I 21 W/m -0,6 C 1,5 C 6,4 km/h (2 Bft) 100,00 %
07.03.2016 07:15 1,4 C 86 % 1004,5 hPa 0,0 l/m 5,5 km/h (1 Bft) SW 227 0 min 0,000 mm 0,0 UV-I 19 W/m -0,7 C 1,4 C 8,0 km/h (2 Bft) 100,00 %
07.03.2016 07:16 1,5 C 85 % 1004,5 hPa 0,0 l/m 5,6 km/h (1 Bft) S 184 0 min 0,000 mm 0,0 UV-I 20 W/m -0,7 C 1,5 C 8,0 km/h (2 Bft) 96,30 %
07.03.2016 07:17 1,4 C 85 % 1004,5 hPa 0,0 l/m 4,7 km/h (1 Bft) SW 221 0 min 0,000 mm 0,0 UV-I 21 W/m -0,8 C 1,4 C 8,0 km/h (2 Bft) 100,00 %
07.03.2016 07:18 1,5 C 85 % 1004,5 hPa 0,0 l/m 2,7 km/h (1 Bft) SW 234 0 min 0,000 mm 0,0 UV-I 21 W/m -0,7 C 1,5 C 3,2 km/h (1 Bft) 100,00 %
07.03.2016 07:19 1,5 C 85 % 1004,5 hPa 0,0 l/m 2,6 km/h (1 Bft) SW 234 0 min 0,000 mm 0,0 UV-I 21 W/m -0,7 C 1,5 C 4,8 km/h (1 Bft) 95,65 %
07.03.2016 07:20 1,5 C 85 % 1004,5 hPa 0,0 l/m 4,3 km/h (1 Bft) SW 221 0 min 0,000 mm 0,0 UV-I 21 W/m -0,7 C 1,5 C 6,4 km/h (2 Bft) 100,00 %
07.03.2016 07:21 1,5 C 85 % 1004,5 hPa 0,0 l/m 4,1 km/h (1 Bft) SW 218 0 min 0,000 mm 0,0 UV-I 23 W/m -0,7 C 1,5 C 6,4 km/h (2 Bft) 100,00 %
07.03.2016 07:22 1,5 C 86 % 1004,5 hPa 0,0 l/m 4,3 km/h (1 Bft) SW 234 0 min 0,000 mm 0,0 UV-I 24 W/m -0,6 C 1,5 C 6,4 km/h (2 Bft) 100,00 %
07.03.2016 07:23 1,5 C 85 % 1004,5 hPa 0,0 l/m 4,0 km/h (1 Bft) SW 234 0 min 0,000 mm 0,0 UV-I 25 W/m -0,7 C 1,5 C 4,8 km/h (1 Bft) 95,65 %
07.03.2016 07:24 1,4 C 86 % 1004,5 hPa 0,0 l/m 5,4 km/h (1 Bft) SW 233 0 min 0,000 mm 0,0 UV-I 25 W/m -0,7 C 1,4 C 6,4 km/h (2 Bft) 100,00 %
07.03.2016 07:25 1,4 C 86 % 1004,6 hPa 0,0 l/m 4,3 km/h (1 Bft) SW 232 0 min 0,000 mm 0,0 UV-I 26 W/m -0,7 C 1,4 C 4,8 km/h (1 Bft) 100,00 %
07.03.2016 07:26 1,4 C 86 % 1004,6 hPa 0,0 l/m 5,4 km/h (1 Bft) SW 236 0 min 0,000 mm 0,0 UV-I 26 W/m -0,7 C 1,4 C 8,0 km/h (2 Bft) 100,00 %
07.03.2016 07:27 1,4 C 86 % 1004,5 hPa 0,0 l/m 3,2 km/h (1 Bft) SW 236 0 min 0,000 mm 0,0 UV-I 28 W/m -0,7 C 1,4 C 4,8 km/h (1 Bft) 100,00 %
07.03.2016 07:28 1,4 C 86 % 1004,6 hPa 0,0 l/m 4,0 km/h (1 Bft) SW 215 0 min 0,000 mm 0,0 UV-I 30 W/m -0,7 C 1,4 C 6,4 km/h (2 Bft) 100,00 %
07.03.2016 07:29 1,4 C 86 % 1004,5 hPa 0,0 l/m 4,2 km/h (1 Bft) SW 215 0 min 0,000 mm 0,0 UV-I 31 W/m -0,7 C 1,4 C 6,4 km/h (2 Bft) 100,00 %
07.03.2016 07:30 1,4 C 86 % 1004,5 hPa 0,0 l/m 5,0 km/h (1 Bft) SW 230 0 min 0,000 mm 0,0 UV-I 33 W/m -0,7 C 1,4 C 6,4 km/h (2 Bft) 100,00 %
07.03.2016 07:31 1,4 C 86 % 1004,5 hPa 0,0 l/m 4,8 km/h (1 Bft) W-SW 248 0 min 0,000 mm 0,0 UV-I 34 W/m -0,7 C 1,4 C 8,0 km/h (2 Bft) 100,00 %
07.03.2016 07:32 1,4 C 86 % 1004,5 hPa 0,0 l/m 4,3 km/h (1 Bft) S-SW 213 0 min 0,000 mm 0,0 UV-I 37 W/m -0,7 C 1,4 C 6,4 km/h (2 Bft) 100,00 %
07.03.2016 07:33 1,5 C 86 % 1004,5 hPa 0,0 l/m 5,8 km/h (2 Bft) SW 215 0 min 0,000 mm 0,0 UV-I 39 W/m -0,6 C 1,5 C 9,7 km/h (2 Bft) 100,00 %
07.03.2016 07:34 1,5 C 86 % 1004,5 hPa 0,0 l/m 3,8 km/h (1 Bft) SW 223 0 min 0,000 mm 0,0 UV-I 40 W/m -0,6 C 1,5 C 6,4 km/h (2 Bft) 100,00 %
07.03.2016 07:35 1,4 C 86 % 1004,5 hPa 0,0 l/m 4,1 km/h (1 Bft) S-SW 207 0 min 0,000 mm 0,0 UV-I 40 W/m -0,7 C 1,4 C 6,4 km/h (2 Bft) 100,00 %
07.03.2016 07:36 1,5 C 86 % 1004,6 hPa 0,0 l/m 5,5 km/h (1 Bft) S-SW 197 0 min 0,000 mm 0,0 UV-I 39 W/m -0,6 C 1,5 C 8,0 km/h (2 Bft) 97,14 %
07.03.2016 07:37 1,5 C 86 % 1004,6 hPa 0,0 l/m 4,2 km/h (1 Bft) S-SW 205 0 min 0,000 mm 0,0 UV-I 39 W/m -0,6 C 1,5 C 8,0 km/h (2 Bft) 100,00 %
07.03.2016 07:38 1,5 C 86 % 1004,5 hPa 0,0 l/m 7,0 km/h (2 Bft) S 186 0 min 0,000 mm 0,0 UV-I 39 W/m -0,6 C 0,9 C 9,7 km/h (2 Bft) 100,00 %
07.03.2016 07:39 1,5 C 86 % 1004,5 hPa 0,0 l/m 4,1 km/h (1 Bft) S 188 0 min 0,000 mm 0,0 UV-I 39 W/m -0,6 C 1,5 C 6,4 km/h (2 Bft) 100,00 %
07.03.2016 07:40 1,5 C 86 % 1004,6 hPa 0,0 l/m 4,1 km/h (1 Bft) SW 223 0 min 0,000 mm 0,0 UV-I 39 W/m -0,6 C 1,5 C 6,4 km/h (2 Bft) 92,86 %
07.03.2016 07:41 1,5 C 86 % 1004,6 hPa 0,0 l/m 5,7 km/h (1 Bft) S 180 0 min 0,000 mm 0,0 UV-I 40 W/m -0,6 C 1,5 C 9,7 km/h (2 Bft) 100,00 %
07.03.2016 07:42 1,5 C 86 % 1004,6 hPa 0,0 l/m 4,4 km/h (1 Bft) S-SW 197 0 min 0,000 mm 0,0 UV-I 40 W/m -0,6 C 1,5 C 6,4 km/h (2 Bft) 100,00 %
07.03.2016 07:43 1,5 C 87 % 1004,6 hPa 0,0 l/m 5,0 km/h (1 Bft) S 189 0 min 0,000 mm 0,0 UV-I 42 W/m -0,4 C 1,5 C 6,4 km/h (2 Bft) 95,83 %
07.03.2016 07:44 1,5 C 87 % 1004,6 hPa 0,0 l/m 3,6 km/h (1 Bft) S-SW 192 0 min 0,000 mm 0,0 UV-I 42 W/m -0,4 C 1,5 C 6,4 km/h (2 Bft) 95,65 %
07.03.2016 07:45 1,5 C 87 % 1004,6 hPa 0,0 l/m 3,8 km/h (1 Bft) SW 221 0 min 0,000 mm 0,0 UV-I 44 W/m -0,4 C 1,5 C 6,4 km/h (2 Bft) 100,00 %
07.03.2016 07:46 1,5 C 87 % 1004,6 hPa 0,0 l/m 6,2 km/h (2 Bft) SW 214 0 min 0,000 mm 0,0 UV-I 46 W/m -0,4 C 1,5 C 9,7 km/h (2 Bft) 95,65 %
07.03.2016 07:47 1,6 C 87 % 1004,6 hPa 0,0 l/m 5,0 km/h (1 Bft) SW 223 0 min 0,000 mm 0,0 UV-I 48 W/m -0,3 C 1,6 C 6,4 km/h (2 Bft) 100,00 %
07.03.2016 07:48 1,6 C 87 % 1004,7 hPa 0,0 l/m 4,3 km/h (1 Bft) S-SW 194 0 min 0,000 mm 0,0 UV-I 49 W/m -0,3 C 1,6 C 6,4 km/h (2 Bft) 95,65 %
07.03.2016 07:49 1,6 C 87 % 1004,7 hPa 0,0 l/m 5,1 km/h (1 Bft) S 186 0 min 0,000 mm 0,0 UV-I 51 W/m -0,3 C 1,6 C 8,0 km/h (2 Bft) 98,78 %
07.03.2016 07:50 1,5 C 87 % 1004,6 hPa 0,0 l/m 4,8 km/h (1 Bft) SW 219 0 min 0,000 mm 0,0 UV-I 53 W/m -0,4 C 1,5 C 6,4 km/h (2 Bft) 97,44 %
07.03.2016 07:51 1,6 C 87 % 1004,7 hPa 0,0 l/m 3,5 km/h (1 Bft) SW 222 0 min 0,000 mm 0,0 UV-I 53 W/m -0,3 C 1,6 C 6,4 km/h (2 Bft) 100,00 %
07.03.2016 07:52 1,5 C 87 % 1004,7 hPa 0,0 l/m 3,8 km/h (1 Bft) W-SW 240 0 min 0,000 mm 0,0 UV-I 53 W/m -0,4 C 1,5 C 8,0 km/h (2 Bft) 95,83 %
07.03.2016 07:53 1,5 C 87 % 1004,7 hPa 0,0 l/m 5,5 km/h (1 Bft) SW 219 0 min 0,000 mm 0,0 UV-I 53 W/m -0,4 C 1,5 C 9,7 km/h (2 Bft) 92,31 %
07.03.2016 07:54 1,5 C 87 % 1004,7 hPa 0,0 l/m 6,8 km/h (2 Bft) SW 235 0 min 0,000 mm 0,0 UV-I 52 W/m -0,4 C 1,1 C 8,0 km/h (2 Bft) 93,33 %
07.03.2016 07:55 1,6 C 87 % 1004,7 hPa 0,0 l/m 5,1 km/h (1 Bft) SW 220 0 min 0,000 mm 0,0 UV-I 49 W/m -0,3 C 1,6 C 8,0 km/h (2 Bft) 96,15 %
07.03.2016 07:56 1,6 C 87 % 1004,7 hPa 0,0 l/m 4,8 km/h (1 Bft) SW 236 0 min 0,000 mm 0,0 UV-I 49 W/m -0,3 C 1,6 C 6,4 km/h (2 Bft) 100,00 %
07.03.2016 07:57 1,6 C 87 % 1004,7 hPa 0,0 l/m 2,4 km/h (1 Bft) SW 230 0 min 0,000 mm 0,0 UV-I 47 W/m -0,3 C 1,6 C 4,8 km/h (1 Bft) 96,15 %
07.03.2016 07:58 1,6 C 87 % 1004,7 hPa 0,0 l/m 5,2 km/h (1 Bft) W-SW 244 0 min 0,000 mm 0,0 UV-I 45 W/m -0,3 C 1,6 C 8,0 km/h (2 Bft) 100,00 %
07.03.2016 07:59 1,6 C 87 % 1004,7 hPa 0,0 l/m 3,3 km/h (1 Bft) S-SW 201 0 min 0,000 mm 0,0 UV-I 43 W/m -0,3 C 1,6 C 4,8 km/h (1 Bft) 95,65 %
07.03.2016 08:00 1,6 C 87 % 1004,7 hPa 0,0 l/m 3,4 km/h (1 Bft) S-SW 201 0 min 0,025 mm 0,0 UV-I 41 W/m -0,3 C 1,6 C 4,8 km/h (1 Bft) 100,00 %
07.03.2016 08:01 1,6 C 87 % 1004,7 hPa 0,0 l/m 4,0 km/h (1 Bft) SW 223 0 min 0,000 mm 0,0 UV-I 40 W/m -0,3 C 1,6 C 4,8 km/h (1 Bft) 92,31 %
07.03.2016 08:02 1,6 C 87 % 1004,8 hPa 0,0 l/m 4,0 km/h (1 Bft) SW 223 0 min 0,000 mm 0,0 UV-I 39 W/m -0,3 C 1,6 C 4,8 km/h (1 Bft) 96,30 %
07.03.2016 08:03 1,6 C 87 % 1004,7 hPa 0,0 l/m 3,4 km/h (1 Bft) W 260 0 min 0,000 mm 0,0 UV-I 37 W/m -0,3 C 1,6 C 4,8 km/h (1 Bft) 100,00 %
07.03.2016 08:04 1,6 C 87 % 1004,8 hPa 0,0 l/m 4,4 km/h (1 Bft) SW 230 0 min 0,000 mm 0,0 UV-I 36 W/m -0,3 C 1,6 C 6,4 km/h (2 Bft) 95,83 %
07.03.2016 08:05 1,6 C 87 % 1004,8 hPa 0,0 l/m 4,9 km/h (1 Bft) SW 227 0 min 0,000 mm 0,0 UV-I 35 W/m -0,3 C 1,6 C 6,4 km/h (2 Bft) 100,00 %
07.03.2016 08:06 1,6 C 87 % 1004,8 hPa 0,0 l/m 3,5 km/h (1 Bft) S-SW 210 0 min 0,000 mm 0,0 UV-I 35 W/m -0,3 C 1,6 C 4,8 km/h (1 Bft) 96,15 %
07.03.2016 08:07 1,6 C 87 % 1004,8 hPa 0,0 l/m 3,6 km/h (1 Bft) S-SW 211 0 min 0,000 mm 0,0 UV-I 35 W/m -0,3 C 1,6 C 4,8 km/h (1 Bft) 95,65 %
07.03.2016 08:08 1,6 C 87 % 1004,8 hPa 0,0 l/m 4,9 km/h (1 Bft) W-SW 244 0 min 0,000 mm 0,0 UV-I 37 W/m -0,3 C 1,6 C 6,4 km/h (2 Bft) 95,83 %
07.03.2016 08:09 1,6 C 87 % 1004,8 hPa 0,0 l/m 5,3 km/h (1 Bft) W-SW 242 0 min 0,000 mm 0,0 UV-I 39 W/m -0,3 C 1,6 C 6,4 km/h (2 Bft) 93,10 %
07.03.2016 08:10 1,6 C 87 % 1004,8 hPa 0,0 l/m 4,6 km/h (1 Bft) SW 236 0 min 0,000 mm 0,0 UV-I 43 W/m -0,3 C 1,6 C 6,4 km/h (2 Bft) 100,00 %
07.03.2016 08:11 1,6 C 87 % 1004,8 hPa 0,0 l/m 6,2 km/h (2 Bft) SW 223 0 min 0,000 mm 0,0 UV-I 45 W/m -0,3 C 1,6 C 8,0 km/h (2 Bft) 96,30 %
07.03.2016 08:12 1,7 C 87 % 1004,8 hPa 0,0 l/m 5,2 km/h (1 Bft) W 261 0 min 0,000 mm 0,0 UV-I 47 W/m -0,2 C 1,7 C 6,4 km/h (2 Bft) 100,00 %
07.03.2016 08:13 1,7 C 87 % 1004,8 hPa 0,0 l/m 4,2 km/h (1 Bft) W-SW 252 0 min 0,000 mm 0,0 UV-I 47 W/m -0,2 C 1,7 C 6,4 km/h (2 Bft) 96,30 %
07.03.2016 08:14 1,7 C 87 % 1004,9 hPa 0,0 l/m 2,8 km/h (1 Bft) W-SW 252 0 min 0,000 mm 0,0 UV-I 50 W/m -0,2 C 1,7 C 4,8 km/h (1 Bft) 100,00 %
07.03.2016 08:15 1,7 C 87 % 1004,8 hPa 0,0 l/m 2,8 km/h (1 Bft) W-SW 252 0 min 0,000 mm 0,0 UV-I 53 W/m -0,2 C 1,7 C 4,8 km/h (1 Bft) 91,67 %
07.03.2016 08:16 1,7 C 87 % 1004,9 hPa 0,0 l/m 3,2 km/h (1 Bft) W-SW 254 0 min 0,000 mm 0,0 UV-I 56 W/m -0,2 C 1,7 C 4,8 km/h (1 Bft) 100,00 %
07.03.2016 08:17 1,7 C 87 % 1004,8 hPa 0,0 l/m 3,6 km/h (1 Bft) W-SW 253 0 min 0,000 mm 0,0 UV-I 60 W/m -0,2 C 1,7 C 6,4 km/h (2 Bft) 95,83 %
07.03.2016 08:18 1,7 C 87 % 1004,8 hPa 0,0 l/m 3,9 km/h (1 Bft) W-SW 246 0 min 0,000 mm 0,0 UV-I 62 W/m -0,2 C 1,7 C 6,4 km/h (2 Bft) 100,00 %
07.03.2016 08:19 1,7 C 87 % 1004,8 hPa 0,0 l/m 4,1 km/h (1 Bft) SW 232 0 min 0,000 mm 0,0 UV-I 62 W/m -0,2 C 1,7 C 4,8 km/h (1 Bft) 100,00 %
07.03.2016 08:20 1,7 C 87 % 1004,8 hPa 0,0 l/m 4,5 km/h (1 Bft) W-SW 258 0 min 0,000 mm 0,0 UV-I 66 W/m -0,2 C 1,7 C 6,4 km/h (2 Bft) 95,65 %
07.03.2016 08:21 1,8 C 87 % 1004,8 hPa 0,0 l/m 6,4 km/h (2 Bft) W-SW 254 0 min 0,000 mm 0,0 UV-I 72 W/m -0,1 C 1,8 C 9,7 km/h (2 Bft) 100,00 %
07.03.2016 08:22 1,8 C 87 % 1004,8 hPa 0,0 l/m 5,4 km/h (1 Bft) W-SW 248 0 min 0,000 mm 0,0 UV-I 78 W/m -0,1 C 1,8 C 6,4 km/h (2 Bft) 92,86 %
07.03.2016 08:23 1,8 C 87 % 1004,8 hPa 0,0 l/m 3,9 km/h (1 Bft) W-SW 248 0 min 0,000 mm 0,0 UV-I 80 W/m -0,1 C 1,8 C 4,8 km/h (1 Bft) 100,00 %
07.03.2016 08:24 1,8 C 87 % 1004,8 hPa 0,0 l/m 4,1 km/h (1 Bft) W-SW 237 0 min 0,000 mm 0,0 UV-I 82 W/m -0,1 C 1,8 C 4,8 km/h (1 Bft) 100,00 %
07.03.2016 08:25 1,8 C 87 % 1004,8 hPa 0,0 l/m 4,9 km/h (1 Bft) W-SW 257 0 min 0,000 mm 0,0 UV-I 84 W/m -0,1 C 1,8 C 8,0 km/h (2 Bft) 96,30 %
07.03.2016 08:26 1,8 C 87 % 1004,9 hPa 0,0 l/m 6,7 km/h (2 Bft) W-SW 251 0 min 0,000 mm 0,0 UV-I 91 W/m -0,1 C 1,5 C 8,0 km/h (2 Bft) 96,15 %
07.03.2016 08:27 1,9 C 87 % 1004,9 hPa 0,0 l/m 6,2 km/h (2 Bft) W-SW 258 0 min 0,000 mm 0,0 UV-I 95 W/m -0,0 C 1,9 C 8,0 km/h (2 Bft) 100,00 %
07.03.2016 08:28 1,9 C 86 % 1004,9 hPa 0,0 l/m 5,8 km/h (2 Bft) SW 219 0 min 0,000 mm 0,0 UV-I 99 W/m -0,2 C 1,9 C 8,0 km/h (2 Bft) 94,44 %
07.03.2016 08:29 1,9 C 86 % 1004,8 hPa 0,0 l/m 4,5 km/h (1 Bft) SW 233 0 min 0,000 mm 0,0 UV-I 103 W/m -0,2 C 1,9 C 6,4 km/h (2 Bft) 100,00 %
07.03.2016 08:30 1,9 C 86 % 1004,9 hPa 0,0 l/m 4,0 km/h (1 Bft) W 266 0 min 0,000 mm 0,0 UV-I 107 W/m -0,2 C 1,9 C 6,4 km/h (2 Bft) 100,00 %
07.03.2016 08:31 1,9 C 86 % 1004,9 hPa 0,0 l/m 5,3 km/h (1 Bft) W 259 0 min 0,000 mm 0,0 UV-I 111 W/m -0,2 C 1,9 C 6,4 km/h (2 Bft) 93,33 %
07.03.2016 08:32 2,0 C 87 % 1004,9 hPa 0,0 l/m 3,8 km/h (1 Bft) W-SW 257 0 min 0,000 mm 0,0 UV-I 115 W/m 0,1 C 2,0 C 4,8 km/h (1 Bft) 100,00 %
07.03.2016 08:33 2,1 C 87 % 1004,9 hPa 0,0 l/m 5,9 km/h (2 Bft) W 271 0 min 0,000 mm 0,0 UV-I 119 W/m 0,2 C 2,1 C 9,7 km/h (2 Bft) 100,00 %
07.03.2016 08:34 2,1 C 86 % 1004,8 hPa 0,0 l/m 5,6 km/h (1 Bft) W-SW 250 0 min 0,000 mm 0,0 UV-I 125 W/m 0,0 C 2,1 C 9,7 km/h (2 Bft) 100,00 %
07.03.2016 08:35 2,1 C 86 % 1004,9 hPa 0,0 l/m 7,1 km/h (2 Bft) W-SW 254 0 min 0,000 mm 0,0 UV-I 132 W/m 0,0 C 1,4 C 11,3 km/h (2 Bft) 100,00 %
07.03.2016 08:36 2,2 C 87 % 1004,9 hPa 0,0 l/m 5,3 km/h (1 Bft) W 271 0 min 0,000 mm 0,0 UV-I 141 W/m 0,3 C 2,2 C 6,4 km/h (2 Bft) 96,30 %
07.03.2016 08:37 2,2 C 86 % 1004,9 hPa 0,0 l/m 5,0 km/h (1 Bft) W 259 0 min 0,000 mm 0,0 UV-I 149 W/m 0,1 C 2,2 C 9,7 km/h (2 Bft) 100,00 %
07.03.2016 08:38 2,2 C 86 % 1004,9 hPa 0,0 l/m 7,4 km/h (2 Bft) W-SW 250 0 min 0,000 mm 0,0 UV-I 156 W/m 0,1 C 1,2 C 12,9 km/h (3 Bft) 95,83 %
07.03.2016 08:39 2,2 C 86 % 1004,9 hPa 0,0 l/m 7,9 km/h (2 Bft) W-SW 249 0 min 0,000 mm 0,0 UV-I 164 W/m 0,1 C 0,8 C 11,3 km/h (2 Bft) 100,00 %
07.03.2016 08:40 2,3 C 85 % 1004,9 hPa 0,0 l/m 6,6 km/h (2 Bft) W 259 0 min 0,000 mm 0,0 UV-I 175 W/m 0,0 C 2,1 C 11,3 km/h (2 Bft) 100,00 %
07.03.2016 08:41 2,3 C 85 % 1004,9 hPa 0,0 l/m 8,7 km/h (2 Bft) W-SW 258 0 min 0,000 mm 0,0 UV-I 178 W/m 0,0 C 0,1 C 11,3 km/h (2 Bft) 96,15 %
07.03.2016 08:42 2,3 C 84 % 1004,9 hPa 0,0 l/m 7,5 km/h (2 Bft) W-SW 243 1 min 0,000 mm 0,0 UV-I 186 W/m -0,1 C 1,2 C 11,3 km/h (2 Bft) 100,00 %
07.03.2016 08:43 2,3 C 85 % 1004,9 hPa 0,0 l/m 3,8 km/h (1 Bft) SW 221 1 min 0,000 mm 0,0 UV-I 192 W/m 0,0 C 2,3 C 6,4 km/h (2 Bft) 100,00 %
07.03.2016 08:44 2,4 C 85 % 1004,9 hPa 0,0 l/m 6,3 km/h (2 Bft) W 259 1 min 0,000 mm 0,0 UV-I 193 W/m 0,1 C 2,4 C 11,3 km/h (2 Bft) 100,00 %
07.03.2016 08:45 2,5 C 85 % 1004,9 hPa 0,0 l/m 5,8 km/h (2 Bft) W-SW 248 1 min 0,000 mm 0,0 UV-I 194 W/m 0,2 C 2,5 C 9,7 km/h (2 Bft) 96,15 %
07.03.2016 08:46 2,6 C 85 % 1004,9 hPa 0,0 l/m 4,9 km/h (1 Bft) W 281 1 min 0,000 mm 0,0 UV-I 195 W/m 0,3 C 2,6 C 6,4 km/h (2 Bft) 100,00 %
07.03.2016 08:47 2,6 C 84 % 1004,9 hPa 0,0 l/m 4,0 km/h (1 Bft) W 263 1 min 0,000 mm 0,0 UV-I 196 W/m 0,2 C 2,6 C 4,8 km/h (1 Bft) 96,15 %
07.03.2016 08:48 2,7 C 84 % 1004,9 hPa 0,0 l/m 5,3 km/h (1 Bft) W-SW 237 1 min 0,000 mm 0,0 UV-I 199 W/m 0,3 C 2,7 C 8,0 km/h (2 Bft) 100,00 %
07.03.2016 08:49 2,6 C 83 % 1004,9 hPa 0,0 l/m 6,3 km/h (2 Bft) SW 227 1 min 0,000 mm 0,0 UV-I 202 W/m 0,0 C 2,6 C 9,7 km/h (2 Bft) 100,00 %
07.03.2016 08:50 2,6 C 84 % 1004,8 hPa 0,0 l/m 8,7 km/h (2 Bft) S 186 1 min 0,000 mm 0,0 UV-I 197 W/m 0,2 C 0,5 C 11,3 km/h (2 Bft) 100,00 %
07.03.2016 08:51 2,7 C 83 % 1004,9 hPa 0,0 l/m 8,4 km/h (2 Bft) SW 218 0 min 0,000 mm 0,0 UV-I 190 W/m 0,1 C 0,8 C 12,9 km/h (3 Bft) 100,00 %
07.03.2016 08:52 2,7 C 83 % 1004,9 hPa 0,0 l/m 8,2 km/h (2 Bft) S-SW 202 0 min 0,000 mm 0,0 UV-I 184 W/m 0,1 C 1,0 C 11,3 km/h (2 Bft) 100,00 %
07.03.2016 08:53 2,7 C 83 % 1004,9 hPa 0,0 l/m 7,5 km/h (2 Bft) W-SW 240 0 min 0,000 mm 0,0 UV-I 177 W/m 0,1 C 1,6 C 12,9 km/h (3 Bft) 100,00 %
07.03.2016 08:54 2,7 C 83 % 1004,9 hPa 0,0 l/m 6,7 km/h (2 Bft) SW 220 0 min 0,000 mm 0,0 UV-I 174 W/m 0,1 C 2,4 C 11,3 km/h (2 Bft) 100,00 %
07.03.2016 08:55 2,7 C 84 % 1004,8 hPa 0,0 l/m 8,0 km/h (2 Bft) SW 217 0 min 0,000 mm 0,0 UV-I 172 W/m 0,3 C 1,2 C 11,3 km/h (2 Bft) 100,00 %
07.03.2016 08:56 2,7 C 84 % 1004,8 hPa 0,0 l/m 8,2 km/h (2 Bft) W-SW 246 0 min 0,000 mm 0,0 UV-I 159 W/m 0,3 C 1,0 C 12,9 km/h (3 Bft) 100,00 %
07.03.2016 08:57 2,7 C 83 % 1004,8 hPa 0,0 l/m 6,8 km/h (2 Bft) SW 234 0 min 0,000 mm 0,0 UV-I 149 W/m 0,1 C 2,3 C 11,3 km/h (2 Bft) 100,00 %
07.03.2016 08:58 2,7 C 83 % 1004,8 hPa 0,0 l/m 7,0 km/h (2 Bft) SW 234 0 min 0,000 mm 0,0 UV-I 147 W/m 0,1 C 2,1 C 8,0 km/h (2 Bft) 95,65 %
07.03.2016 08:59 2,7 C 83 % 1004,8 hPa 0,0 l/m 6,2 km/h (2 Bft) W-SW 242 0 min 0,000 mm 0,0 UV-I 144 W/m 0,1 C 2,7 C 8,0 km/h (2 Bft) 100,00 %
07.03.2016 09:00 2,7 C 83 % 1004,8 hPa 0,0 l/m 5,6 km/h (1 Bft) SW 235 0 min 0,000 mm 0,0 UV-I 141 W/m 0,1 C 2,7 C 9,7 km/h (2 Bft) 100,00 %
07.03.2016 09:01 2,7 C 83 % 1004,8 hPa 0,0 l/m 7,0 km/h (2 Bft) S-SW 206 0 min 0,051 mm 0,0 UV-I 136 W/m 0,1 C 2,1 C 9,7 km/h (2 Bft) 100,00 %
07.03.2016 09:02 2,7 C 83 % 1004,8 hPa 0,0 l/m 6,8 km/h (2 Bft) SW 215 0 min 0,000 mm 0,0 UV-I 133 W/m 0,1 C 2,3 C 8,0 km/h (2 Bft) 100,00 %
07.03.2016 09:03 2,8 C 83 % 1004,8 hPa 0,0 l/m 7,6 km/h (2 Bft) SW 235 0 min 0,000 mm 0,0 UV-I 131 W/m 0,2 C 1,7 C 11,3 km/h (2 Bft) 100,00 %
07.03.2016 09:04 2,8 C 82 % 1004,8 hPa 0,0 l/m 6,9 km/h (2 Bft) W-SW 250 0 min 0,000 mm 0,0 UV-I 129 W/m 0,0 C 2,3 C 9,7 km/h (2 Bft) 100,00 %
07.03.2016 09:05 2,8 C 83 % 1004,8 hPa 0,0 l/m 10,3 km/h (2 Bft) W 265 0 min 0,000 mm 0,0 UV-I 128 W/m 0,2 C -0,6 C 14,5 km/h (3 Bft) 91,67 %
07.03.2016 09:06 2,8 C 82 % 1004,8 hPa 0,0 l/m 5,3 km/h (1 Bft) W-SW 257 0 min 0,000 mm 0,0 UV-I 128 W/m 0,0 C 2,8 C 8,0 km/h (2 Bft) 100,00 %
07.03.2016 09:07 2,8 C 82 % 1004,8 hPa 0,0 l/m 8,3 km/h (2 Bft) W 268 0 min 0,000 mm 0,0 UV-I 127 W/m 0,0 C 1,0 C 14,5 km/h (3 Bft) 100,00 %
07.03.2016 09:08 2,7 C 81 % 1004,8 hPa 0,0 l/m 10,5 km/h (2 Bft) W-SW 258 0 min 0,000 mm 0,0 UV-I 127 W/m -0,2 C -0,8 C 12,9 km/h (3 Bft) 100,00 %
07.03.2016 09:09 2,7 C 81 % 1004,8 hPa 0,0 l/m 7,6 km/h (2 Bft) W-SW 256 0 min 0,000 mm 0,0 UV-I 127 W/m -0,2 C 1,6 C 11,3 km/h (2 Bft) 100,00 %
07.03.2016 09:10 2,7 C 80 % 1004,8 hPa 0,0 l/m 8,5 km/h (2 Bft) W-SW 238 0 min 0,000 mm 0,0 UV-I 127 W/m -0,4 C 0,7 C 12,9 km/h (3 Bft) 100,00 %
07.03.2016 09:11 2,7 C 80 % 1004,8 hPa 0,0 l/m 7,2 km/h (2 Bft) W-SW 240 0 min 0,000 mm 0,0 UV-I 128 W/m -0,4 C 1,9 C 9,7 km/h (2 Bft) 100,00 %
07.03.2016 09:12 2,7 C 81 % 1004,7 hPa 0,0 l/m 6,6 km/h (2 Bft) W-SW 254 0 min 0,000 mm 0,0 UV-I 133 W/m -0,2 C 2,5 C 11,3 km/h (2 Bft) 100,00 %
07.03.2016 09:13 2,7 C 80 % 1004,7 hPa 0,0 l/m 5,3 km/h (1 Bft) W-SW 241 0 min 0,000 mm 0,5 UV-I 138 W/m -0,4 C 2,7 C 8,0 km/h (2 Bft) 100,00 %
07.03.2016 09:14 2,7 C 81 % 1004,7 hPa 0,0 l/m 6,8 km/h (2 Bft) W-SW 238 0 min 0,000 mm 0,5 UV-I 144 W/m -0,2 C 2,3 C 9,7 km/h (2 Bft) 100,00 %
07.03.2016 09:15 2,7 C 81 % 1004,7 hPa 0,0 l/m 6,8 km/h (2 Bft) W-SW 240 0 min 0,000 mm 0,5 UV-I 152 W/m -0,2 C 2,3 C 11,3 km/h (2 Bft) 100,00 %
07.03.2016 09:16 2,8 C 81 % 1004,8 hPa 0,0 l/m 6,9 km/h (2 Bft) SW 224 0 min 0,000 mm 0,5 UV-I 159 W/m -0,1 C 2,3 C 9,7 km/h (2 Bft) 100,00 %
07.03.2016 09:17 2,8 C 81 % 1004,8 hPa 0,0 l/m 4,3 km/h (1 Bft) W-SW 238 0 min 0,000 mm 0,5 UV-I 166 W/m -0,1 C 2,8 C 6,4 km/h (2 Bft) 100,00 %
07.03.2016 09:18 2,8 C 82 % 1004,8 hPa 0,0 l/m 3,4 km/h (1 Bft) W-SW 238 0 min 0,000 mm 0,5 UV-I 171 W/m 0,0 C 2,8 C 4,8 km/h (1 Bft) 91,67 %
07.03.2016 09:19 2,8 C 82 % 1004,8 hPa 0,0 l/m 7,8 km/h (2 Bft) W 259 0 min 0,000 mm 0,5 UV-I 177 W/m 0,0 C 1,5 C 12,9 km/h (3 Bft) 100,00 %
07.03.2016 09:20 2,8 C 82 % 1004,7 hPa 0,0 l/m 8,8 km/h (2 Bft) W 275 0 min 0,000 mm 0,5 UV-I 183 W/m 0,0 C 0,6 C 11,3 km/h (2 Bft) 100,00 %
07.03.2016 09:21 2,8 C 82 % 1004,8 hPa 0,0 l/m 4,5 km/h (1 Bft) W-SW 255 0 min 0,000 mm 0,5 UV-I 193 W/m 0,0 C 2,8 C 6,4 km/h (2 Bft) 95,65 %
07.03.2016 09:22 2,8 C 82 % 1004,8 hPa 0,0 l/m 3,8 km/h (1 Bft) W 261 0 min 0,000 mm 0,6 UV-I 204 W/m 0,0 C 2,8 C 6,4 km/h (2 Bft) 100,00 %
07.03.2016 09:23 2,8 C 83 % 1004,8 hPa 0,0 l/m 5,4 km/h (1 Bft) W 279 0 min 0,000 mm 0,6 UV-I 202 W/m 0,2 C 2,8 C 6,4 km/h (2 Bft) 100,00 %
07.03.2016 09:24 2,9 C 83 % 1004,8 hPa 0,0 l/m 8,0 km/h (2 Bft) W-SW 240 0 min 0,000 mm 0,6 UV-I 207 W/m 0,3 C 1,4 C 11,3 km/h (2 Bft) 95,83 %
07.03.2016 09:25 2,9 C 82 % 1004,8 hPa 0,0 l/m 6,7 km/h (2 Bft) SW 229 0 min 0,000 mm 0,6 UV-I 216 W/m 0,1 C 2,6 C 9,7 km/h (2 Bft) 100,00 %
07.03.2016 09:26 2,9 C 82 % 1004,8 hPa 0,0 l/m 6,8 km/h (2 Bft) SW 219 0 min 0,000 mm 0,6 UV-I 220 W/m 0,1 C 2,5 C 9,7 km/h (2 Bft) 100,00 %
07.03.2016 09:27 3,0 C 81 % 1004,7 hPa 0,0 l/m 5,6 km/h (1 Bft) W-SW 257 0 min 0,000 mm 0,6 UV-I 224 W/m 0,1 C 3,0 C 8,0 km/h (2 Bft) 100,00 %
07.03.2016 09:28 3,0 C 81 % 1004,8 hPa 0,0 l/m 4,3 km/h (1 Bft) S-SW 202 0 min 0,000 mm 0,7 UV-I 229 W/m 0,1 C 3,0 C 8,0 km/h (2 Bft) 96,30 %
07.03.2016 09:29 2,9 C 80 % 1004,8 hPa 0,0 l/m 4,1 km/h (1 Bft) W 275 0 min 0,000 mm 0,7 UV-I 235 W/m -0,2 C 2,9 C 9,7 km/h (2 Bft) 100,00 %
07.03.2016 09:30 3,0 C 82 % 1004,8 hPa 0,0 l/m 5,6 km/h (1 Bft) SW 232 1 min 0,000 mm 0,7 UV-I 243 W/m 0,2 C 3,0 C 8,0 km/h (2 Bft) 100,00 %
07.03.2016 09:31 3,1 C 82 % 1004,8 hPa 0,0 l/m 5,8 km/h (2 Bft) W-SW 252 1 min 0,000 mm 0,7 UV-I 256 W/m 0,3 C 3,1 C 9,7 km/h (2 Bft) 100,00 %
07.03.2016 09:32 3,1 C 81 % 1004,8 hPa 0,0 l/m 5,5 km/h (1 Bft) W-SW 255 1 min 0,000 mm 0,7 UV-I 275 W/m 0,2 C 3,1 C 8,0 km/h (2 Bft) 100,00 %
07.03.2016 09:33 3,1 C 81 % 1004,8 hPa 0,0 l/m 6,9 km/h (2 Bft) W-SW 241 1 min 0,000 mm 0,7 UV-I 288 W/m 0,2 C 2,6 C 9,7 km/h (2 Bft) 100,00 %
07.03.2016 09:34 3,1 C 80 % 1004,8 hPa 0,0 l/m 7,5 km/h (2 Bft) W-SW 241 1 min 0,000 mm 0,7 UV-I 289 W/m -0,0 C 2,1 C 11,3 km/h (2 Bft) 100,00 %
07.03.2016 09:35 3,2 C 80 % 1004,9 hPa 0,0 l/m 7,3 km/h (2 Bft) S-SW 196 1 min 0,000 mm 0,7 UV-I 287 W/m 0,1 C 2,4 C 9,7 km/h (2 Bft) 100,00 %
07.03.2016 09:36 3,1 C 78 % 1004,9 hPa 0,0 l/m 5,7 km/h (1 Bft) SW 233 1 min 0,000 mm 0,6 UV-I 252 W/m -0,4 C 3,1 C 8,0 km/h (2 Bft) 100,00 %
07.03.2016 09:37 3,1 C 78 % 1004,8 hPa 0,0 l/m 4,8 km/h (1 Bft) W-SW 245 0 min 0,000 mm 0,6 UV-I 223 W/m -0,4 C 3,1 C 6,4 km/h (2 Bft) 100,00 %
07.03.2016 09:38 3,1 C 79 % 1004,8 hPa 0,0 l/m 2,8 km/h (1 Bft) W-SW 245 0 min 0,000 mm 0,6 UV-I 205 W/m -0,2 C 3,1 C 6,4 km/h (2 Bft) 100,00 %
07.03.2016 09:39 3,1 C 79 % 1004,8 hPa 0,0 l/m 8,1 km/h (2 Bft) W 260 0 min 0,000 mm 0,6 UV-I 186 W/m -0,2 C 1,5 C 11,3 km/h (2 Bft) 100,00 %
07.03.2016 09:40 3,1 C 79 % 1004,8 hPa 0,0 l/m 6,5 km/h (2 Bft) W 273 0 min 0,000 mm 0,5 UV-I 175 W/m -0,2 C 3,0 C 11,3 km/h (2 Bft) 100,00 %
07.03.2016 09:41 3,1 C 78 % 1004,8 hPa 0,0 l/m 8,5 km/h (2 Bft) SW 229 0 min 0,000 mm 0,5 UV-I 176 W/m -0,4 C 1,2 C 11,3 km/h (2 Bft) 100,00 %
07.03.2016 09:42 3,1 C 78 % 1004,8 hPa 0,0 l/m 8,3 km/h (2 Bft) W-SW 252 0 min 0,000 mm 0,5 UV-I 185 W/m -0,4 C 1,3 C 12,9 km/h (3 Bft) 100,00 %
07.03.2016 09:43 3,1 C 78 % 1004,8 hPa 0,0 l/m 6,5 km/h (2 Bft) W 275 0 min 0,000 mm 0,5 UV-I 187 W/m -0,4 C 3,0 C 11,3 km/h (2 Bft) 93,33 %
07.03.2016 09:44 3,1 C 78 % 1004,8 hPa 0,0 l/m 5,3 km/h (1 Bft) W 259 0 min 0,000 mm 0,5 UV-I 181 W/m -0,4 C 3,1 C 8,0 km/h (2 Bft) 100,00 %
07.03.2016 09:45 3,1 C 78 % 1004,8 hPa 0,0 l/m 5,2 km/h (1 Bft) W-NW 292 0 min 0,000 mm 0,5 UV-I 180 W/m -0,4 C 3,1 C 6,4 km/h (2 Bft) 96,30 %
07.03.2016 09:46 3,1 C 79 % 1004,8 hPa 0,0 l/m 3,6 km/h (1 Bft) W-NW 298 0 min 0,000 mm 0,6 UV-I 190 W/m -0,2 C 3,1 C 6,4 km/h (2 Bft) 95,65 %
07.03.2016 09:47 3,1 C 78 % 1004,8 hPa 0,0 l/m 2,8 km/h (1 Bft) W 280 0 min 0,000 mm 0,6 UV-I 208 W/m -0,4 C 3,1 C 4,8 km/h (1 Bft) 100,00 %
07.03.2016 09:48 3,1 C 79 % 1004,8 hPa 0,0 l/m 4,4 km/h (1 Bft) SW 228 0 min 0,000 mm 0,6 UV-I 234 W/m -0,2 C 3,1 C 8,0 km/h (2 Bft) 96,30 %
07.03.2016 09:49 3,2 C 79 % 1004,7 hPa 0,0 l/m 4,9 km/h (1 Bft) W 277 0 min 0,000 mm 0,7 UV-I 244 W/m -0,1 C 3,2 C 9,7 km/h (2 Bft) 100,00 %
07.03.2016 09:50 3,3 C 79 % 1004,8 hPa 0,0 l/m 5,0 km/h (1 Bft) W 263 0 min 0,000 mm 0,7 UV-I 236 W/m 0,0 C 3,3 C 6,4 km/h (2 Bft) 95,83 %
07.03.2016 09:51 3,2 C 78 % 1004,8 hPa 0,0 l/m 4,3 km/h (1 Bft) W 281 0 min 0,000 mm 0,7 UV-I 228 W/m -0,3 C 3,2 C 6,4 km/h (2 Bft) 100,00 %
07.03.2016 09:52 3,3 C 78 % 1004,8 hPa 0,0 l/m 7,0 km/h (2 Bft) W 259 0 min 0,000 mm 0,7 UV-I 236 W/m -0,2 C 2,7 C 9,7 km/h (2 Bft) 95,83 %
07.03.2016 09:53 3,2 C 78 % 1004,8 hPa 0,0 l/m 6,0 km/h (2 Bft) W-SW 238 0 min 0,000 mm 0,7 UV-I 247 W/m -0,3 C 3,2 C 11,3 km/h (2 Bft) 100,00 %
07.03.2016 09:54 3,2 C 78 % 1004,8 hPa 0,0 l/m 4,0 km/h (1 Bft) W-NW 288 0 min 0,000 mm 0,8 UV-I 246 W/m -0,3 C 3,2 C 4,8 km/h (1 Bft) 96,30 %
07.03.2016 09:55 3,2 C 79 % 1004,7 hPa 0,0 l/m 3,9 km/h (1 Bft) W-NW 302 0 min 0,000 mm 0,8 UV-I 256 W/m -0,1 C 3,2 C 6,4 km/h (2 Bft) 100,00 %
07.03.2016 09:56 3,3 C 78 % 1004,8 hPa 0,0 l/m 6,0 km/h (2 Bft) NW 307 0 min 0,000 mm 0,8 UV-I 258 W/m -0,2 C 3,3 C 9,7 km/h (2 Bft) 92,59 %
07.03.2016 09:57 3,3 C 78 % 1004,8 hPa 0,0 l/m 1,9 km/h (1 Bft) NW 308 0 min 0,000 mm 0,9 UV-I 256 W/m -0,2 C 3,3 C 4,8 km/h (1 Bft) 96,15 %
07.03.2016 09:58 3,4 C 77 % 1004,7 hPa 0,0 l/m 5,6 km/h (1 Bft) W-SW 251 0 min 0,000 mm 0,9 UV-I 261 W/m -0,2 C 3,4 C 11,3 km/h (2 Bft) 100,00 %
07.03.2016 09:59 3,4 C 76 % 1004,7 hPa 0,0 l/m 5,7 km/h (1 Bft) W 273 0 min 0,000 mm 0,9 UV-I 267 W/m -0,4 C 3,4 C 9,7 km/h (2 Bft) 90,91 %
07.03.2016 10:00 3,4 C 77 % 1004,7 hPa 0,0 l/m 2,1 km/h (1 Bft) W 264 1 min 0,000 mm 0,9 UV-I 277 W/m -0,2 C 3,4 C 3,2 km/h (1 Bft) 100,00 %
07.03.2016 10:01 3,4 C 77 % 1004,7 hPa 0,0 l/m 2,3 km/h (1 Bft) W-NW 292 1 min 0,076 mm 1,0 UV-I 328 W/m -0,2 C 3,4 C 4,8 km/h (1 Bft) 96,15 %
07.03.2016 10:02 3,4 C 77 % 1004,7 hPa 0,0 l/m 3,2 km/h (1 Bft) W 277 1 min 0,000 mm 1,0 UV-I 315 W/m -0,2 C 3,4 C 4,8 km/h (1 Bft) 95,83 %
07.03.2016 10:03 3,5 C 75 % 1004,7 hPa 0,0 l/m 2,1 km/h (1 Bft) W 274 1 min 0,000 mm 1,0 UV-I 280 W/m -0,5 C 3,5 C 3,2 km/h (1 Bft) 100,00 %
07.03.2016 10:04 3,4 C 75 % 1004,7 hPa 0,0 l/m 1,2 km/h (1 Bft) W 275 1 min 0,000 mm 1,1 UV-I 292 W/m -0,6 C 3,4 C 3,2 km/h (1 Bft) 95,83 %
07.03.2016 10:05 3,5 C 76 % 1004,7 hPa 0,0 l/m 2,7 km/h (1 Bft) W-NW 294 0 min 0,000 mm 1,0 UV-I 264 W/m -0,3 C 3,5 C 4,8 km/h (1 Bft) 100,00 %
07.03.2016 10:06 3,5 C 76 % 1004,7 hPa 0,0 l/m 5,1 km/h (1 Bft) W-SW 240 1 min 0,000 mm 1,0 UV-I 280 W/m -0,3 C 3,5 C 8,0 km/h (2 Bft) 92,31 %
07.03.2016 10:07 3,5 C 76 % 1004,7 hPa 0,0 l/m 7,3 km/h (2 Bft) SW 236 0 min 0,000 mm 1,0 UV-I 236 W/m -0,3 C 2,7 C 11,3 km/h (2 Bft) 100,00 %
07.03.2016 10:08 3,4 C 75 % 1004,7 hPa 0,0 l/m 6,9 km/h (2 Bft) SW 235 0 min 0,000 mm 1,1 UV-I 219 W/m -0,6 C 2,9 C 8,0 km/h (2 Bft) 96,15 %
07.03.2016 10:09 3,4 C 75 % 1004,7 hPa 0,0 l/m 5,7 km/h (1 Bft) W-SW 238 0 min 0,000 mm 0,9 UV-I 187 W/m -0,6 C 3,4 C 8,0 km/h (2 Bft) 100,00 %
07.03.2016 10:10 3,3 C 75 % 1004,7 hPa 0,0 l/m 5,5 km/h (1 Bft) SW 219 0 min 0,000 mm 0,9 UV-I 184 W/m -0,7 C 3,3 C 8,0 km/h (2 Bft) 91,67 %
07.03.2016 10:11 3,2 C 75 % 1004,7 hPa 0,0 l/m 4,2 km/h (1 Bft) SW 221 0 min 0,000 mm 0,9 UV-I 200 W/m -0,8 C 3,2 C 4,8 km/h (1 Bft) 100,00 %
07.03.2016 10:12 3,2 C 76 % 1004,7 hPa 0,0 l/m 3,0 km/h (1 Bft) W-SW 241 0 min 0,000 mm 0,9 UV-I 178 W/m -0,6 C 3,2 C 6,4 km/h (2 Bft) 95,65 %
07.03.2016 10:13 3,2 C 77 % 1004,7 hPa 0,0 l/m 2,5 km/h (1 Bft) S-SW 211 0 min 0,000 mm 0,9 UV-I 168 W/m -0,4 C 3,2 C 4,8 km/h (1 Bft) 100,00 %
07.03.2016 10:14 3,2 C 77 % 1004,7 hPa 0,0 l/m 2,3 km/h (1 Bft) S-SW 211 0 min 0,000 mm 0,9 UV-I 168 W/m -0,4 C 3,2 C 3,2 km/h (1 Bft) 100,00 %
07.03.2016 10:15 3,3 C 78 % 1004,7 hPa 0,0 l/m 4,6 km/h (1 Bft) W-NW 284 0 min 0,000 mm 0,9 UV-I 186 W/m -0,2 C 3,3 C 6,4 km/h (2 Bft) 100,00 %
07.03.2016 10:16 3,3 C 76 % 1004,7 hPa 0,0 l/m 4,3 km/h (1 Bft) W 271 0 min 0,000 mm 1,0 UV-I 199 W/m -0,5 C 3,3 C 6,4 km/h (2 Bft) 100,00 %
07.03.2016 10:17 3,4 C 76 % 1004,7 hPa 0,0 l/m 3,4 km/h (1 Bft) SW 232 0 min 0,000 mm 1,0 UV-I 215 W/m -0,4 C 3,4 C 4,8 km/h (1 Bft) 95,83 %
07.03.2016 10:18 3,5 C 76 % 1004,7 hPa 0,0 l/m 3,1 km/h (1 Bft) SW 232 0 min 0,000 mm 1,0 UV-I 243 W/m -0,3 C 3,5 C 4,8 km/h (1 Bft) 96,15 %
07.03.2016 10:19 3,6 C 76 % 1004,7 hPa 0,0 l/m 3,1 km/h (1 Bft) S-SW 212 0 min 0,000 mm 1,1 UV-I 260 W/m -0,2 C 3,6 C 4,8 km/h (1 Bft) 95,83 %
07.03.2016 10:20 3,5 C 75 % 1004,6 hPa 0,0 l/m 7,1 km/h (2 Bft) S-SW 211 0 min 0,000 mm 1,1 UV-I 271 W/m -0,5 C 2,8 C 9,7 km/h (2 Bft) 92,86 %
07.03.2016 10:21 3,4 C 75 % 1004,6 hPa 0,0 l/m 6,3 km/h (2 Bft) S-SW 193 0 min 0,000 mm 1,1 UV-I 277 W/m -0,6 C 3,4 C 8,0 km/h (2 Bft) 100,00 %
07.03.2016 10:22 3,3 C 76 % 1004,6 hPa 0,0 l/m 7,4 km/h (2 Bft) S-SW 198 0 min 0,000 mm 1,1 UV-I 272 W/m -0,5 C 2,4 C 8,0 km/h (2 Bft) 100,00 %
07.03.2016 10:23 3,3 C 76 % 1004,6 hPa 0,0 l/m 6,1 km/h (2 Bft) S 186 0 min 0,000 mm 1,1 UV-I 267 W/m -0,5 C 3,3 C 8,0 km/h (2 Bft) 100,00 %
07.03.2016 10:24 3,4 C 76 % 1004,6 hPa 0,0 l/m 1,9 km/h (1 Bft) S 176 0 min 0,000 mm 1,1 UV-I 260 W/m -0,4 C 3,4 C 4,8 km/h (1 Bft) 100,00 %
07.03.2016 10:25 3,4 C 77 % 1004,7 hPa 0,0 l/m 0,6 km/h (0 Bft) S 187 0 min 0,000 mm 1,1 UV-I 258 W/m -0,2 C 3,4 C 1,6 km/h (1 Bft) 100,00 %
07.03.2016 10:26 3,4 C 76 % 1004,7 hPa 0,0 l/m 0,1 km/h (0 Bft) S 187 0 min 0,000 mm 1,1 UV-I 260 W/m -0,4 C 3,4 C 1,6 km/h (1 Bft) 95,65 %
07.03.2016 10:27 3,5 C 77 % 1004,6 hPa 0,0 l/m 0,2 km/h (0 Bft) S 187 0 min 0,000 mm 1,1 UV-I 243 W/m -0,1 C 3,5 C 1,6 km/h (1 Bft) 100,00 %
07.03.2016 10:28 3,5 C 76 % 1004,6 hPa 0,0 l/m 1,4 km/h (1 Bft) W-SW 246 0 min 0,000 mm 1,1 UV-I 243 W/m -0,3 C 3,5 C 3,2 km/h (1 Bft) 86,67 %
07.03.2016 10:29 3,5 C 76 % 1004,7 hPa 0,0 l/m 0,2 km/h (0 Bft) W-SW 246 0 min 0,000 mm 1,1 UV-I 263 W/m -0,3 C 3,5 C 1,6 km/h (1 Bft) 100,00 %
07.03.2016 10:30 3,4 C 76 % 1004,7 hPa 0,0 l/m 0,6 km/h (0 Bft) W-SW 246 0 min 0,000 mm 1,1 UV-I 285 W/m -0,4 C 3,4 C 1,6 km/h (1 Bft) 100,00 %
07.03.2016 10:31 3,4 C 76 % 1004,7 hPa 0,0 l/m 2,8 km/h (1 Bft) W-SW 248 1 min 0,000 mm 1,1 UV-I 318 W/m -0,4 C 3,4 C 4,8 km/h (1 Bft) 100,00 %
07.03.2016 10:32 3,4 C 76 % 1004,6 hPa 0,0 l/m 1,5 km/h (1 Bft) W-SW 248 1 min 0,000 mm 1,1 UV-I 326 W/m -0,4 C 3,4 C 3,2 km/h (1 Bft) 100,00 %
07.03.2016 10:33 3,5 C 77 % 1004,7 hPa 0,0 l/m 0,1 km/h (0 Bft) W-SW 248 1 min 0,000 mm 1,2 UV-I 353 W/m -0,1 C 3,5 C 1,6 km/h (1 Bft) 95,65 %
07.03.2016 10:34 3,6 C 77 % 1004,7 hPa 0,0 l/m 0,7 km/h (0 Bft) W-SW 248 1 min 0,000 mm 1,3 UV-I 449 W/m -0,0 C 3,6 C 3,2 km/h (1 Bft) 100,00 %
07.03.2016 10:35 3,7 C 76 % 1004,7 hPa 0,0 l/m 2,1 km/h (1 Bft) S-SW 211 1 min 0,000 mm 1,2 UV-I 496 W/m -0,1 C 3,7 C 4,8 km/h (1 Bft) 100,00 %
07.03.2016 10:36 3,7 C 76 % 1004,7 hPa 0,0 l/m 3,2 km/h (1 Bft) W-NW 284 1 min 0,000 mm 1,2 UV-I 418 W/m -0,1 C 3,7 C 4,8 km/h (1 Bft) 100,00 %
07.03.2016 10:37 3,8 C 76 % 1004,7 hPa 0,0 l/m 2,7 km/h (1 Bft) W-NW 284 1 min 0,000 mm 1,2 UV-I 337 W/m -0,0 C 3,8 C 4,8 km/h (1 Bft) 100,00 %
07.03.2016 10:38 3,8 C 75 % 1004,7 hPa 0,0 l/m 2,3 km/h (1 Bft) W-NW 284 1 min 0,000 mm 1,2 UV-I 338 W/m -0,2 C 3,8 C 3,2 km/h (1 Bft) 100,00 %
07.03.2016 10:39 3,8 C 74 % 1004,7 hPa 0,0 l/m 1,4 km/h (1 Bft) W-NW 284 1 min 0,000 mm 1,2 UV-I 344 W/m -0,4 C 3,8 C 4,8 km/h (1 Bft) 100,00 %
07.03.2016 10:40 3,7 C 74 % 1004,6 hPa 0,0 l/m 0,2 km/h (0 Bft) W-NW 284 1 min 0,000 mm 1,2 UV-I 348 W/m -0,5 C 3,7 C 1,6 km/h (1 Bft) 100,00 %
07.03.2016 10:41 3,6 C 74 % 1004,6 hPa 0,0 l/m 1,0 km/h (0 Bft) W-NW 284 1 min 0,000 mm 1,2 UV-I 336 W/m -0,6 C 3,6 C 3,2 km/h (1 Bft) 100,00 %
07.03.2016 10:42 3,7 C 75 % 1004,6 hPa 0,0 l/m 2,2 km/h (1 Bft) W-NW 286 1 min 0,000 mm 1,1 UV-I 322 W/m -0,3 C 3,7 C 3,2 km/h (1 Bft) 100,00 %
07.03.2016 10:43 3,7 C 77 % 1004,6 hPa 0,0 l/m 2,8 km/h (1 Bft) NW 308 1 min 0,000 mm 1,1 UV-I 314 W/m 0,1 C 3,7 C 3,2 km/h (1 Bft) 100,00 %
07.03.2016 10:44 3,8 C 77 % 1004,6 hPa 0,0 l/m 1,3 km/h (1 Bft) NW 308 1 min 0,000 mm 1,1 UV-I 307 W/m 0,1 C 3,8 C 3,2 km/h (1 Bft) 96,30 %
07.03.2016 10:45 3,9 C 76 % 1004,6 hPa 0,0 l/m 0,5 km/h (0 Bft) NW 308 1 min 0,000 mm 1,1 UV-I 312 W/m 0,1 C 3,9 C 1,6 km/h (1 Bft) 100,00 %
07.03.2016 10:46 4,0 C 76 % 1004,6 hPa 0,0 l/m 0,7 km/h (0 Bft) NW 308 1 min 0,000 mm 1,1 UV-I 322 W/m 0,2 C 4,0 C 1,6 km/h (1 Bft) 100,00 %
07.03.2016 10:47 4,1 C 76 % 1004,5 hPa 0,0 l/m 0,3 km/h (0 Bft) NW 308 1 min 0,000 mm 1,2 UV-I 339 W/m 0,3 C 4,1 C 1,6 km/h (1 Bft) 100,00 %
07.03.2016 10:48 4,3 C 77 % 1004,6 hPa 0,0 l/m 4,5 km/h (1 Bft) S 188 1 min 0,000 mm 1,5 UV-I 339 W/m 0,6 C 4,3 C 6,4 km/h (2 Bft) 100,00 %
07.03.2016 10:49 4,4 C 73 % 1004,5 hPa 0,0 l/m 4,5 km/h (1 Bft) S-SO 157 1 min 0,000 mm 1,4 UV-I 339 W/m -0,0 C 4,4 C 9,7 km/h (2 Bft) 100,00 %
07.03.2016 10:50 4,3 C 73 % 1004,5 hPa 0,0 l/m 6,8 km/h (2 Bft) S-SW 206 1 min 0,000 mm 1,6 UV-I 563 W/m -0,1 C 3,9 C 8,0 km/h (2 Bft) 100,00 %
07.03.2016 10:51 4,3 C 73 % 1004,5 hPa 0,0 l/m 2,6 km/h (1 Bft) W-SW 254 1 min 0,000 mm 1,5 UV-I 684 W/m -0,1 C 4,3 C 3,2 km/h (1 Bft) 100,00 %
07.03.2016 10:52 4,3 C 73 % 1004,5 hPa 0,0 l/m 1,9 km/h (1 Bft) W-NW 291 1 min 0,000 mm 1,3 UV-I 381 W/m -0,1 C 4,3 C 3,2 km/h (1 Bft) 96,15 %
07.03.2016 10:53 4,3 C 75 % 1004,5 hPa 0,0 l/m 2,4 km/h (1 Bft) W-NW 302 1 min 0,000 mm 1,3 UV-I 380 W/m 0,3 C 4,3 C 4,8 km/h (1 Bft) 96,30 %
07.03.2016 10:54 4,3 C 73 % 1004,5 hPa 0,0 l/m 1,3 km/h (1 Bft) N-NW 336 1 min 0,000 mm 1,4 UV-I 380 W/m -0,1 C 4,3 C 3,2 km/h (1 Bft) 100,00 %
07.03.2016 10:55 4,3 C 74 % 1004,5 hPa 0,0 l/m 3,1 km/h (1 Bft) N-NW 344 1 min 0,000 mm 1,8 UV-I 636 W/m 0,1 C 4,3 C 6,4 km/h (2 Bft) 100,00 %
07.03.2016 10:56 4,3 C 76 % 1004,5 hPa 0,0 l/m 3,0 km/h (1 Bft) NW 306 1 min 0,000 mm 1,8 UV-I 823 W/m 0,5 C 4,3 C 4,8 km/h (1 Bft) 100,00 %
07.03.2016 10:57 4,5 C 75 % 1004,5 hPa 0,0 l/m 3,1 km/h (1 Bft) NW 310 1 min 0,000 mm 1,8 UV-I 828 W/m 0,5 C 4,5 C 4,8 km/h (1 Bft) 100,00 %
07.03.2016 10:58 4,6 C 73 % 1004,5 hPa 0,0 l/m 2,3 km/h (1 Bft) NW 311 1 min 0,000 mm 1,8 UV-I 833 W/m 0,2 C 4,6 C 4,8 km/h (1 Bft) 100,00 %
07.03.2016 10:59 4,6 C 74 % 1004,5 hPa 0,0 l/m 1,4 km/h (1 Bft) NW 311 1 min 0,000 mm 1,7 UV-I 826 W/m 0,4 C 4,6 C 3,2 km/h (1 Bft) 100,00 %
07.03.2016 11:00 4,6 C 73 % 1004,5 hPa 0,0 l/m 2,0 km/h (1 Bft) NW 311 1 min 0,000 mm 1,4 UV-I 826 W/m 0,2 C 4,6 C 3,2 km/h (1 Bft) 100,00 %
07.03.2016 11:01 4,7 C 76 % 1004,5 hPa 0,0 l/m 2,4 km/h (1 Bft) N-NW 340 1 min 0,153 mm 1,4 UV-I 826 W/m 0,8 C 4,7 C 4,8 km/h (1 Bft) 100,00 %
07.03.2016 11:02 4,8 C 74 % 1004,5 hPa 0,0 l/m 2,9 km/h (1 Bft) NW 323 1 min 0,000 mm 1,2 UV-I 484 W/m 0,6 C 4,8 C 6,4 km/h (2 Bft) 100,00 %
07.03.2016 11:03 4,8 C 73 % 1004,5 hPa 0,0 l/m 3,7 km/h (1 Bft) NW 305 1 min 0,000 mm 1,2 UV-I 368 W/m 0,4 C 4,8 C 11,3 km/h (2 Bft) 100,00 %
07.03.2016 11:04 4,7 C 73 % 1004,5 hPa 0,0 l/m 6,1 km/h (2 Bft) N-NW 338 1 min 0,000 mm 1,2 UV-I 371 W/m 0,3 C 4,7 C 11,3 km/h (2 Bft) 100,00 %
07.03.2016 11:05 4,7 C 73 % 1004,5 hPa 0,0 l/m 1,7 km/h (1 Bft) N-NW 347 1 min 0,000 mm 1,2 UV-I 347 W/m 0,3 C 4,7 C 4,8 km/h (1 Bft) 100,00 %
07.03.2016 11:06 4,6 C 73 % 1004,5 hPa 0,0 l/m 0,5 km/h (0 Bft) N-NW 344 0 min 0,000 mm 1,1 UV-I 293 W/m 0,2 C 4,6 C 1,6 km/h (1 Bft) 100,00 %
07.03.2016 11:07 4,5 C 74 % 1004,5 hPa 0,0 l/m 3,6 km/h (1 Bft) W-NW 302 0 min 0,000 mm 1,1 UV-I 283 W/m 0,3 C 4,5 C 8,0 km/h (2 Bft) 100,00 %
07.03.2016 11:08 4,4 C 72 % 1004,5 hPa 0,0 l/m 4,1 km/h (1 Bft) N-NW 329 0 min 0,000 mm 1,1 UV-I 289 W/m -0,2 C 4,4 C 4,8 km/h (1 Bft) 98,65 %
07.03.2016 11:09 4,4 C 74 % 1004,5 hPa 0,0 l/m 1,8 km/h (1 Bft) NW 312 0 min 0,000 mm 1,1 UV-I 298 W/m 0,2 C 4,4 C 3,2 km/h (1 Bft) 100,00 %
07.03.2016 11:10 4,4 C 75 % 1004,5 hPa 0,0 l/m 2,9 km/h (1 Bft) N-NW 327 0 min 0,000 mm 1,2 UV-I 293 W/m 0,4 C 4,4 C 4,8 km/h (1 Bft) 100,00 %
07.03.2016 11:11 4,3 C 73 % 1004,5 hPa 0,0 l/m 3,8 km/h (1 Bft) NW 314 0 min 0,000 mm 1,2 UV-I 280 W/m -0,1 C 4,3 C 4,8 km/h (1 Bft) 100,00 %
07.03.2016 11:12 4,3 C 74 % 1004,5 hPa 0,0 l/m 3,3 km/h (1 Bft) NW 306 0 min 0,000 mm 1,1 UV-I 264 W/m 0,1 C 4,3 C 6,4 km/h (2 Bft) 100,00 %
07.03.2016 11:13 4,2 C 73 % 1004,5 hPa 0,0 l/m 4,4 km/h (1 Bft) W-NW 288 0 min 0,000 mm 1,1 UV-I 255 W/m -0,2 C 4,2 C 6,4 km/h (2 Bft) 100,00 %
07.03.2016 11:14 4,2 C 73 % 1004,5 hPa 0,0 l/m 3,5 km/h (1 Bft) W-NW 292 0 min 0,000 mm 1,1 UV-I 244 W/m -0,2 C 4,2 C 6,4 km/h (2 Bft) 100,00 %
07.03.2016 11:15 4,2 C 74 % 1004,5 hPa 0,0 l/m 2,4 km/h (1 Bft) NW 316 0 min 0,000 mm 1,1 UV-I 229 W/m -0,0 C 4,2 C 6,4 km/h (2 Bft) 100,00 %
07.03.2016 11:16 4,3 C 74 % 1004,5 hPa 0,0 l/m 3,0 km/h (1 Bft) N-NW 327 0 min 0,000 mm 1,1 UV-I 218 W/m 0,1 C 4,3 C 6,4 km/h (2 Bft) 100,00 %
07.03.2016 11:17 4,3 C 73 % 1004,5 hPa 0,0 l/m 3,2 km/h (1 Bft) W-NW 298 0 min 0,000 mm 1,0 UV-I 209 W/m -0,1 C 4,3 C 6,4 km/h (2 Bft) 100,00 %
07.03.2016 11:18 4,2 C 73 % 1004,4 hPa 0,0 l/m 3,6 km/h (1 Bft) W 266 0 min 0,000 mm 1,0 UV-I 203 W/m -0,2 C 4,2 C 9,7 km/h (2 Bft) 100,00 %
07.03.2016 11:19 4,2 C 73 % 1004,4 hPa 0,0 l/m 4,0 km/h (1 Bft) W 280 0 min 0,000 mm 1,0 UV-I 196 W/m -0,2 C 4,2 C 6,4 km/h (2 Bft) 100,00 %
07.03.2016 11:20 4,2 C 73 % 1004,5 hPa 0,0 l/m 0,5 km/h (0 Bft) W-NW 286 0 min 0,000 mm 1,0 UV-I 192 W/m -0,2 C 4,2 C 1,6 km/h (1 Bft) 100,00 %
07.03.2016 11:21 4,2 C 76 % 1004,5 hPa 0,0 l/m 2,2 km/h (1 Bft) NW 318 0 min 0,000 mm 1,0 UV-I 193 W/m 0,4 C 4,2 C 4,8 km/h (1 Bft) 100,00 %
07.03.2016 11:22 4,3 C 75 % 1004,5 hPa 0,0 l/m 4,2 km/h (1 Bft) NW 319 0 min 0,000 mm 1,0 UV-I 198 W/m 0,3 C 4,3 C 6,4 km/h (2 Bft) 100,00 %
07.03.2016 11:23 4,2 C 74 % 1004,5 hPa 0,0 l/m 0,5 km/h (0 Bft) NW 320 0 min 0,000 mm 1,0 UV-I 199 W/m -0,0 C 4,2 C 1,6 km/h (1 Bft) 100,00 %
07.03.2016 11:24 4,2 C 75 % 1004,5 hPa 0,0 l/m 1,3 km/h (1 Bft) N-NW 346 0 min 0,000 mm 1,0 UV-I 200 W/m 0,2 C 4,2 C 3,2 km/h (1 Bft) 100,00 %
07.03.2016 11:25 4,2 C 75 % 1004,5 hPa 0,0 l/m 1,5 km/h (1 Bft) N-NW 341 0 min 0,000 mm 1,0 UV-I 195 W/m 0,2 C 4,2 C 3,2 km/h (1 Bft) 98,70 %
07.03.2016 11:26 4,2 C 74 % 1004,4 hPa 0,0 l/m 1,8 km/h (1 Bft) N-NW 341 0 min 0,000 mm 1,0 UV-I 189 W/m -0,0 C 4,2 C 3,2 km/h (1 Bft) 100,00 %
07.03.2016 11:27 4,2 C 75 % 1004,5 hPa 0,0 l/m 1,5 km/h (1 Bft) N-NW 347 0 min 0,000 mm 1,0 UV-I 184 W/m 0,2 C 4,2 C 3,2 km/h (1 Bft) 100,00 %
07.03.2016 11:28 4,2 C 75 % 1004,4 hPa 0,0 l/m 0,9 km/h (0 Bft) N-NW 346 0 min 0,000 mm 1,0 UV-I 180 W/m 0,2 C 4,2 C 3,2 km/h (1 Bft) 100,00 %
07.03.2016 11:29 4,2 C 74 % 1004,4 hPa 0,0 l/m 1,9 km/h (1 Bft) N-NW 335 0 min 0,000 mm 1,1 UV-I 188 W/m -0,0 C 4,2 C 3,2 km/h (1 Bft) 100,00 %
07.03.2016 11:30 4,3 C 76 % 1004,4 hPa 0,0 l/m 1,7 km/h (1 Bft) N-NW 335 0 min 0,000 mm 1,1 UV-I 192 W/m 0,5 C 4,3 C 3,2 km/h (1 Bft) 100,00 %
07.03.2016 11:31 4,3 C 73 % 1004,4 hPa 0,0 l/m 3,0 km/h (1 Bft) W-NW 302 0 min 0,000 mm 1,1 UV-I 187 W/m -0,1 C 4,3 C 4,8 km/h (1 Bft) 95,83 %
07.03.2016 11:32 4,3 C 73 % 1004,4 hPa 0,0 l/m 3,9 km/h (1 Bft) N-NW 334 0 min 0,000 mm 1,1 UV-I 188 W/m -0,1 C 4,3 C 6,4 km/h (2 Bft) 100,00 %
07.03.2016 11:33 4,2 C 74 % 1004,4 hPa 0,0 l/m 5,1 km/h (1 Bft) W-NW 302 0 min 0,000 mm 1,1 UV-I 199 W/m -0,0 C 4,2 C 6,4 km/h (2 Bft) 100,00 %
07.03.2016 11:34 4,2 C 73 % 1004,4 hPa 0,0 l/m 3,2 km/h (1 Bft) NW 316 0 min 0,000 mm 1,1 UV-I 211 W/m -0,2 C 4,2 C 4,8 km/h (1 Bft) 100,00 %
07.03.2016 11:35 4,2 C 73 % 1004,4 hPa 0,0 l/m 1,6 km/h (1 Bft) NW 324 0 min 0,000 mm 1,2 UV-I 221 W/m -0,2 C 4,2 C 4,8 km/h (1 Bft) 100,00 %
07.03.2016 11:36 4,2 C 74 % 1004,3 hPa 0,0 l/m 1,7 km/h (1 Bft) N-NW 340 0 min 0,000 mm 1,2 UV-I 228 W/m -0,0 C 4,2 C 3,2 km/h (1 Bft) 95,65 %
07.03.2016 11:37 4,2 C 76 % 1004,4 hPa 0,0 l/m 3,9 km/h (1 Bft) NW 306 0 min 0,000 mm 1,2 UV-I 234 W/m 0,4 C 4,2 C 6,4 km/h (2 Bft) 96,30 %
07.03.2016 11:38 4,3 C 74 % 1004,4 hPa 0,0 l/m 2,8 km/h (1 Bft) NW 319 0 min 0,000 mm 1,2 UV-I 234 W/m 0,1 C 4,3 C 4,8 km/h (1 Bft) 100,00 %
07.03.2016 11:39 4,3 C 72 % 1004,3 hPa 0,0 l/m 2,1 km/h (1 Bft) NW 317 0 min 0,000 mm 1,2 UV-I 230 W/m -0,3 C 4,3 C 4,8 km/h (1 Bft) 95,83 %
07.03.2016 11:40 4,2 C 72 % 1004,3 hPa 0,0 l/m 0,2 km/h (0 Bft) NW 317 0 min 0,000 mm 1,2 UV-I 227 W/m -0,4 C 4,2 C 1,6 km/h (1 Bft) 100,00 %
07.03.2016 11:41 4,2 C 71 % 1004,3 hPa 0,0 l/m 0,4 km/h (0 Bft) NW 317 0 min 0,000 mm 1,2 UV-I 218 W/m -0,6 C 4,2 C 1,6 km/h (1 Bft) 93,33 %
07.03.2016 11:42 4,2 C 72 % 1004,3 hPa 0,0 l/m 0,5 km/h (0 Bft) NW 317 0 min 0,000 mm 1,2 UV-I 213 W/m -0,4 C 4,2 C 1,6 km/h (1 Bft) 100,00 %
07.03.2016 11:43 4,1 C 72 % 1004,3 hPa 0,0 l/m 1,2 km/h (1 Bft) NW 316 0 min 0,000 mm 1,2 UV-I 211 W/m -0,5 C 4,1 C 3,2 km/h (1 Bft) 95,83 %
07.03.2016 11:44 4,1 C 72 % 1004,3 hPa 0,0 l/m 4,6 km/h (1 Bft) W 276 0 min 0,000 mm 1,2 UV-I 207 W/m -0,5 C 4,1 C 6,4 km/h (2 Bft) 100,00 %
07.03.2016 11:45 4,1 C 71 % 1004,3 hPa 0,0 l/m 3,2 km/h (1 Bft) W-NW 286 0 min 0,000 mm 1,2 UV-I 208 W/m -0,7 C 4,1 C 4,8 km/h (1 Bft) 96,67 %
07.03.2016 11:46 4,1 C 72 % 1004,3 hPa 0,0 l/m 1,6 km/h (1 Bft) W-NW 286 0 min 0,000 mm 1,3 UV-I 212 W/m -0,5 C 4,1 C 4,8 km/h (1 Bft) 100,00 %
07.03.2016 11:47 4,1 C 72 % 1004,3 hPa 0,0 l/m 3,1 km/h (1 Bft) W-NW 292 0 min 0,000 mm 1,3 UV-I 214 W/m -0,5 C 4,1 C 6,4 km/h (2 Bft) 96,15 %
07.03.2016 11:48 4,2 C 71 % 1004,3 hPa 0,0 l/m 2,9 km/h (1 Bft) W-NW 290 0 min 0,000 mm 1,3 UV-I 217 W/m -0,6 C 4,2 C 4,8 km/h (1 Bft) 100,00 %
07.03.2016 11:49 4,2 C 72 % 1004,3 hPa 0,0 l/m 0,8 km/h (0 Bft) W-NW 292 0 min 0,000 mm 1,3 UV-I 218 W/m -0,4 C 4,2 C 3,2 km/h (1 Bft) 91,30 %
07.03.2016 11:50 4,2 C 73 % 1004,2 hPa 0,0 l/m 1,1 km/h (1 Bft) W-NW 292 0 min 0,000 mm 1,3 UV-I 216 W/m -0,2 C 4,2 C 1,6 km/h (1 Bft) 95,83 %
07.03.2016 11:51 4,3 C 72 % 1004,2 hPa 0,0 l/m 0,6 km/h (0 Bft) W-NW 292 0 min 0,000 mm 1,3 UV-I 215 W/m -0,3 C 4,3 C 1,6 km/h (1 Bft) 100,00 %
07.03.2016 11:52 4,3 C 70 % 1004,2 hPa 0,0 l/m 0,1 km/h (0 Bft) W-NW 292 0 min 0,000 mm 1,3 UV-I 219 W/m -0,7 C 4,3 C 1,6 km/h (1 Bft) 95,83 %
07.03.2016 11:53 4,3 C 71 % 1004,3 hPa 0,0 l/m 0,6 km/h (0 Bft) W-NW 292 0 min 0,000 mm 1,3 UV-I 222 W/m -0,5 C 4,3 C 1,6 km/h (1 Bft) 100,00 %
07.03.2016 11:54 4,3 C 71 % 1004,2 hPa 0,0 l/m 1,4 km/h (1 Bft) W-NW 292 0 min 0,000 mm 1,3 UV-I 226 W/m -0,5 C 4,3 C 3,2 km/h (1 Bft) 95,83 %
07.03.2016 11:55 4,3 C 70 % 1004,2 hPa 0,0 l/m 2,9 km/h (1 Bft) W 277 0 min 0,000 mm 1,2 UV-I 229 W/m -0,7 C 4,3 C 6,4 km/h (2 Bft) 100,00 %
07.03.2016 11:56 4,3 C 70 % 1004,3 hPa 0,0 l/m 3,8 km/h (1 Bft) W 278 0 min 0,000 mm 1,2 UV-I 225 W/m -0,7 C 4,3 C 6,4 km/h (2 Bft) 95,83 %
07.03.2016 11:57 4,3 C 69 % 1004,3 hPa 0,0 l/m 1,6 km/h (1 Bft) W 279 0 min 0,000 mm 1,2 UV-I 228 W/m -0,9 C 4,3 C 3,2 km/h (1 Bft) 96,55 %
07.03.2016 11:58 4,3 C 69 % 1004,2 hPa 0,0 l/m 0,2 km/h (0 Bft) W 279 0 min 0,000 mm 1,2 UV-I 231 W/m -0,9 C 4,3 C 1,6 km/h (1 Bft) 100,00 %
07.03.2016 11:59 4,3 C 70 % 1004,3 hPa 0,0 l/m 3,7 km/h (1 Bft) W-NW 288 0 min 0,000 mm 1,2 UV-I 238 W/m -0,7 C 4,3 C 6,4 km/h (2 Bft) 92,86 %
07.03.2016 12:00 4,3 C 69 % 1004,2 hPa 0,0 l/m 4,2 km/h (1 Bft) NW 304 0 min 0,000 mm 1,2 UV-I 250 W/m -0,9 C 4,3 C 6,4 km/h (2 Bft) 100,00 %
07.03.2016 12:01 4,3 C 69 % 1004,2 hPa 0,0 l/m 3,3 km/h (1 Bft) W-NW 300 0 min 0,101 mm 1,3 UV-I 255 W/m -0,9 C 4,3 C 4,8 km/h (1 Bft) 91,30 %
07.03.2016 12:02 4,4 C 68 % 1004,3 hPa 0,0 l/m 0,7 km/h (0 Bft) W-NW 300 0 min 0,000 mm 1,3 UV-I 278 W/m -1,0 C 4,4 C 1,6 km/h (1 Bft) 100,00 %
07.03.2016 12:03 4,3 C 67 % 1004,3 hPa 0,0 l/m 0,0 km/h (0 Bft) W-NW 300 0 min 0,000 mm 1,3 UV-I 290 W/m -1,3 C 4,3 C 0,0 km/h (0 Bft) 96,15 %
07.03.2016 12:04 4,3 C 68 % 1004,3 hPa 0,0 l/m 0,0 km/h (0 Bft) W-NW 300 0 min 0,000 mm 1,3 UV-I 296 W/m -1,1 C 4,3 C 0,0 km/h (0 Bft) 95,83 %
07.03.2016 12:05 4,3 C 68 % 1004,2 hPa 0,0 l/m 1,1 km/h (1 Bft) W-NW 300 0 min 0,000 mm 1,3 UV-I 304 W/m -1,1 C 4,3 C 3,2 km/h (1 Bft) 98,63 %
07.03.2016 12:06 4,4 C 69 % 1004,2 hPa 0,0 l/m 2,8 km/h (1 Bft) W-NW 300 0 min 0,000 mm 1,4 UV-I 319 W/m -0,8 C 4,4 C 4,8 km/h (1 Bft) 97,56 %
07.03.2016 12:07 4,4 C 67 % 1004,2 hPa 0,0 l/m 0,8 km/h (0 Bft) W-NW 300 1 min 0,000 mm 1,5 UV-I 357 W/m -1,2 C 4,4 C 3,2 km/h (1 Bft) 95,83 %
07.03.2016 12:08 4,6 C 67 % 1004,3 hPa 0,0 l/m 2,5 km/h (1 Bft) W-NW 300 1 min 0,000 mm 1,8 UV-I 362 W/m -1,0 C 4,6 C 3,2 km/h (1 Bft) 95,65 %
07.03.2016 12:09 4,7 C 70 % 1004,3 hPa 0,0 l/m 4,2 km/h (1 Bft) W-NW 290 1 min 0,000 mm 1,5 UV-I 362 W/m -0,3 C 4,7 C 6,4 km/h (2 Bft) 100,00 %
07.03.2016 12:10 4,8 C 67 % 1004,3 hPa 0,0 l/m 1,8 km/h (1 Bft) W-NW 293 1 min 0,000 mm 1,6 UV-I 362 W/m -0,8 C 4,8 C 4,8 km/h (1 Bft) 96,15 %
07.03.2016 12:11 4,8 C 66 % 1004,2 hPa 0,0 l/m 1,3 km/h (1 Bft) W-NW 295 1 min 0,000 mm 1,9 UV-I 362 W/m -1,0 C 4,8 C 3,2 km/h (1 Bft) 100,00 %
07.03.2016 12:12 4,9 C 68 % 1004,3 hPa 0,0 l/m 2,4 km/h (1 Bft) N-NW 337 1 min 0,000 mm 2,0 UV-I 661 W/m -0,5 C 4,9 C 4,8 km/h (1 Bft) 95,65 %
07.03.2016 12:13 5,0 C 68 % 1004,2 hPa 0,0 l/m 4,1 km/h (1 Bft) NW 322 1 min 0,000 mm 2,0 UV-I 797 W/m -0,4 C 5,0 C 6,4 km/h (2 Bft) 100,00 %
07.03.2016 12:14 5,1 C 69 % 1004,2 hPa 0,0 l/m 2,0 km/h (1 Bft) NW 325 1 min 0,000 mm 1,5 UV-I 796 W/m -0,1 C 5,1 C 3,2 km/h (1 Bft) 100,00 %
07.03.2016 12:15 5,1 C 67 % 1004,2 hPa 0,0 l/m 1,2 km/h (1 Bft) NW 306 0 min 0,000 mm 1,3 UV-I 269 W/m -0,5 C 5,1 C 6,4 km/h (2 Bft) 94,44 %
07.03.2016 12:16 5,0 C 68 % 1004,2 hPa 0,0 l/m 3,8 km/h (1 Bft) W 274 0 min 0,000 mm 1,3 UV-I 252 W/m -0,4 C 5,0 C 6,4 km/h (2 Bft) 100,00 %
07.03.2016 12:17 4,9 C 67 % 1004,2 hPa 0,0 l/m 3,5 km/h (1 Bft) NW 317 0 min 0,000 mm 1,3 UV-I 241 W/m -0,7 C 4,9 C 8,0 km/h (2 Bft) 100,00 %
07.03.2016 12:18 4,9 C 69 % 1004,2 hPa 0,0 l/m 2,4 km/h (1 Bft) N-NO 15 0 min 0,000 mm 1,2 UV-I 227 W/m -0,3 C 4,9 C 6,4 km/h (2 Bft) 100,00 %
07.03.2016 12:19 4,9 C 70 % 1004,1 hPa 0,0 l/m 2,6 km/h (1 Bft) NW 321 0 min 0,000 mm 1,2 UV-I 214 W/m -0,1 C 4,9 C 4,8 km/h (1 Bft) 100,00 %
07.03.2016 12:20 5,0 C 72 % 1004,1 hPa 0,0 l/m 2,7 km/h (1 Bft) W-SW 257 0 min 0,000 mm 1,1 UV-I 207 W/m 0,4 C 5,0 C 4,8 km/h (1 Bft) 92,31 %
07.03.2016 12:21 5,0 C 69 % 1004,1 hPa 0,0 l/m 8,0 km/h (2 Bft) W 264 0 min 0,000 mm 1,1 UV-I 206 W/m -0,2 C 3,6 C 11,3 km/h (2 Bft) 100,00 %
07.03.2016 12:22 4,9 C 67 % 1004,2 hPa 0,0 l/m 4,4 km/h (1 Bft) W-SW 251 0 min 0,000 mm 1,1 UV-I 208 W/m -0,7 C 4,9 C 9,7 km/h (2 Bft) 100,00 %
07.03.2016 12:23 4,8 C 68 % 1004,2 hPa 0,0 l/m 2,8 km/h (1 Bft) W 268 0 min 0,000 mm 1,1 UV-I 211 W/m -0,6 C 4,8 C 4,8 km/h (1 Bft) 100,00 %
07.03.2016 12:24 4,8 C 69 % 1004,1 hPa 0,0 l/m 1,5 km/h (1 Bft) W-NW 288 0 min 0,000 mm 1,1 UV-I 215 W/m -0,4 C 4,8 C 3,2 km/h (1 Bft) 91,30 %
07.03.2016 12:25 4,8 C 69 % 1004,1 hPa 0,0 l/m 2,0 km/h (1 Bft) W-NW 288 0 min 0,000 mm 1,1 UV-I 216 W/m -0,4 C 4,8 C 3,2 km/h (1 Bft) 83,33 %
07.03.2016 12:26 4,9 C 71 % 1004,1 hPa 0,0 l/m 0,9 km/h (0 Bft) W 275 0 min 0,000 mm 1,1 UV-I 218 W/m 0,1 C 4,9 C 4,8 km/h (1 Bft) 100,00 %
07.03.2016 12:27 4,9 C 69 % 1004,1 hPa 0,0 l/m 6,3 km/h (2 Bft) W-SW 237 0 min 0,000 mm 1,2 UV-I 218 W/m -0,3 C 4,9 C 8,0 km/h (2 Bft) 100,00 %
07.03.2016 12:28 4,9 C 69 % 1004,1 hPa 0,0 l/m 3,0 km/h (1 Bft) W 275 0 min 0,000 mm 1,1 UV-I 218 W/m -0,3 C 4,9 C 6,4 km/h (2 Bft) 100,00 %
07.03.2016 12:29 4,9 C 67 % 1004,1 hPa 0,0 l/m 3,5 km/h (1 Bft) W-NW 289 0 min 0,000 mm 1,1 UV-I 220 W/m -0,7 C 4,9 C 4,8 km/h (1 Bft) 100,00 %
07.03.2016 12:30 4,9 C 67 % 1004,1 hPa 0,0 l/m 2,9 km/h (1 Bft) W-NW 290 0 min 0,000 mm 1,1 UV-I 223 W/m -0,7 C 4,9 C 4,8 km/h (1 Bft) 100,00 %
07.03.2016 12:31 5,0 C 69 % 1004,1 hPa 0,0 l/m 3,7 km/h (1 Bft) W-NW 296 0 min 0,000 mm 1,1 UV-I 221 W/m -0,2 C 5,0 C 4,8 km/h (1 Bft) 100,00 %
07.03.2016 12:32 5,1 C 69 % 1004,1 hPa 0,0 l/m 2,7 km/h (1 Bft) W-NW 292 0 min 0,000 mm 1,1 UV-I 220 W/m -0,1 C 5,1 C 4,8 km/h (1 Bft) 100,00 %
07.03.2016 12:33 5,0 C 68 % 1004,1 hPa 0,0 l/m 2,5 km/h (1 Bft) W-NW 302 0 min 0,000 mm 1,1 UV-I 219 W/m -0,4 C 5,0 C 4,8 km/h (1 Bft) 100,00 %
07.03.2016 12:34 5,0 C 68 % 1004,1 hPa 0,0 l/m 2,1 km/h (1 Bft) W 261 0 min 0,000 mm 1,1 UV-I 216 W/m -0,4 C 5,0 C 4,8 km/h (1 Bft) 100,00 %
07.03.2016 12:35 5,0 C 66 % 1004,1 hPa 0,0 l/m 6,5 km/h (2 Bft) W 262 0 min 0,000 mm 1,1 UV-I 212 W/m -0,8 C 4,9 C 9,7 km/h (2 Bft) 95,65 %
07.03.2016 12:36 4,9 C 66 % 1004,1 hPa 0,0 l/m 3,4 km/h (1 Bft) W 262 0 min 0,000 mm 1,1 UV-I 208 W/m -0,9 C 4,9 C 4,8 km/h (1 Bft) 100,00 %
07.03.2016 12:37 4,8 C 67 % 1004,1 hPa 0,0 l/m 3,0 km/h (1 Bft) W 262 0 min 0,000 mm 1,1 UV-I 202 W/m -0,8 C 4,8 C 4,8 km/h (1 Bft) 100,00 %
07.03.2016 12:38 4,8 C 68 % 1004,1 hPa 0,0 l/m 2,6 km/h (1 Bft) W 279 0 min 0,000 mm 1,1 UV-I 198 W/m -0,6 C 4,8 C 3,2 km/h (1 Bft) 100,00 %
07.03.2016 12:39 4,8 C 67 % 1004,1 hPa 0,0 l/m 0,7 km/h (0 Bft) W-NW 289 0 min 0,000 mm 1,1 UV-I 194 W/m -0,8 C 4,8 C 1,6 km/h (1 Bft) 100,00 %
07.03.2016 12:40 4,8 C 67 % 1004,0 hPa 0,0 l/m 0,7 km/h (0 Bft) W-NW 292 0 min 0,000 mm 1,1 UV-I 191 W/m -0,8 C 4,8 C 1,6 km/h (1 Bft) 100,00 %
07.03.2016 12:41 4,8 C 67 % 1004,1 hPa 0,0 l/m 0,6 km/h (0 Bft) W-NW 298 0 min 0,000 mm 1,0 UV-I 187 W/m -0,8 C 4,8 C 3,2 km/h (1 Bft) 100,00 %
07.03.2016 12:42 4,8 C 70 % 1004,1 hPa 0,0 l/m 4,4 km/h (1 Bft) NW 306 0 min 0,000 mm 1,0 UV-I 185 W/m -0,2 C 4,8 C 11,3 km/h (2 Bft) 100,00 %
07.03.2016 12:43 4,7 C 70 % 1004,1 hPa 0,0 l/m 1,1 km/h (1 Bft) NW 313 0 min 0,000 mm 1,0 UV-I 183 W/m -0,3 C 4,7 C 1,6 km/h (1 Bft) 100,00 %
07.03.2016 12:44 4,7 C 70 % 1004,1 hPa 0,0 l/m 1,4 km/h (1 Bft) NW 325 0 min 0,000 mm 1,0 UV-I 181 W/m -0,3 C 4,7 C 3,2 km/h (1 Bft) 100,00 %
07.03.2016 12:45 4,7 C 72 % 1004,0 hPa 0,0 l/m 1,8 km/h (1 Bft) N-NW 337 0 min 0,000 mm 1,0 UV-I 182 W/m 0,1 C 4,7 C 4,8 km/h (1 Bft) 93,33 %
07.03.2016 12:46 4,7 C 72 % 1004,1 hPa 0,0 l/m 1,9 km/h (1 Bft) W-NW 300 0 min 0,000 mm 1,0 UV-I 185 W/m 0,1 C 4,7 C 3,2 km/h (1 Bft) 100,00 %
07.03.2016 12:47 4,7 C 73 % 1004,0 hPa 0,0 l/m 1,1 km/h (1 Bft) W-NW 303 0 min 0,000 mm 1,0 UV-I 189 W/m 0,3 C 4,7 C 3,2 km/h (1 Bft) 100,00 %
07.03.2016 12:48 4,8 C 72 % 1004,1 hPa 0,0 l/m 2,5 km/h (1 Bft) W-NW 291 0 min 0,000 mm 1,0 UV-I 192 W/m 0,2 C 4,8 C 4,8 km/h (1 Bft) 95,65 %
07.03.2016 12:49 4,8 C 73 % 1004,0 hPa 0,0 l/m 2,7 km/h (1 Bft) W-NW 297 0 min 0,000 mm 1,0 UV-I 199 W/m 0,4 C 4,8 C 3,2 km/h (1 Bft) 96,30 %
07.03.2016 12:50 4,8 C 73 % 1004,0 hPa 0,0 l/m 3,6 km/h (1 Bft) W-NW 290 0 min 0,000 mm 1,0 UV-I 203 W/m 0,4 C 4,8 C 6,4 km/h (2 Bft) 100,00 %
07.03.2016 12:51 4,8 C 72 % 1004,0 hPa 0,0 l/m 2,7 km/h (1 Bft) W-NW 295 0 min 0,000 mm 1,0 UV-I 208 W/m 0,2 C 4,8 C 6,4 km/h (2 Bft) 100,00 %
07.03.2016 12:52 4,8 C 70 % 1004,0 hPa 0,0 l/m 2,6 km/h (1 Bft) NW 304 0 min 0,000 mm 1,0 UV-I 212 W/m -0,2 C 4,8 C 4,8 km/h (1 Bft) 100,00 %
07.03.2016 12:53 4,8 C 70 % 1004,0 hPa 0,0 l/m 7,1 km/h (2 Bft) W 262 0 min 0,000 mm 1,0 UV-I 218 W/m -0,2 C 4,2 C 11,3 km/h (2 Bft) 100,00 %
07.03.2016 12:54 4,7 C 69 % 1004,0 hPa 0,0 l/m 3,1 km/h (1 Bft) W-SW 251 0 min 0,000 mm 1,0 UV-I 221 W/m -0,5 C 4,7 C 6,4 km/h (2 Bft) 100,00 %
07.03.2016 12:55 4,7 C 70 % 1004,0 hPa 0,0 l/m 0,7 km/h (0 Bft) W 267 0 min 0,000 mm 1,0 UV-I 221 W/m -0,3 C 4,7 C 1,6 km/h (1 Bft) 100,00 %
07.03.2016 12:56 4,8 C 72 % 1004,0 hPa 0,0 l/m 2,5 km/h (1 Bft) NW 305 0 min 0,000 mm 1,1 UV-I 222 W/m 0,2 C 4,8 C 4,8 km/h (1 Bft) 100,00 %
07.03.2016 12:57 4,8 C 72 % 1004,0 hPa 0,0 l/m 1,2 km/h (1 Bft) NW 321 0 min 0,000 mm 1,1 UV-I 222 W/m 0,2 C 4,8 C 1,6 km/h (1 Bft) 98,64 %
07.03.2016 12:58 4,8 C 69 % 1004,0 hPa 0,0 l/m 4,4 km/h (1 Bft) W-NW 294 0 min 0,000 mm 1,1 UV-I 221 W/m -0,4 C 4,8 C 6,4 km/h (2 Bft) 95,12 %
07.03.2016 12:59 4,7 C 69 % 1003,9 hPa 0,0 l/m 2,3 km/h (1 Bft) N-NW 335 0 min 0,000 mm 1,1 UV-I 221 W/m -0,5 C 4,7 C 6,4 km/h (2 Bft) 95,83 %
07.03.2016 13:00 4,7 C 69 % 1003,9 hPa 0,0 l/m 3,4 km/h (1 Bft) NW 319 0 min 0,000 mm 1,1 UV-I 225 W/m -0,5 C 4,7 C 6,4 km/h (2 Bft) 100,00 %
07.03.2016 13:01 4,7 C 68 % 1003,9 hPa 0,0 l/m 2,7 km/h (1 Bft) NW 311 0 min 0,127 mm 1,1 UV-I 228 W/m -0,7 C 4,7 C 4,8 km/h (1 Bft) 100,00 %
07.03.2016 13:02 4,7 C 68 % 1003,9 hPa 0,0 l/m 1,9 km/h (1 Bft) NW 324 0 min 0,000 mm 1,1 UV-I 234 W/m -0,7 C 4,7 C 3,2 km/h (1 Bft) 100,00 %
07.03.2016 13:03 4,7 C 70 % 1003,9 hPa 0,0 l/m 1,0 km/h (0 Bft) NW 324 0 min 0,000 mm 1,1 UV-I 242 W/m -0,3 C 4,7 C 3,2 km/h (1 Bft) 100,00 %
07.03.2016 13:04 4,7 C 72 % 1003,9 hPa 0,0 l/m 1,5 km/h (1 Bft) NW 324 0 min 0,000 mm 1,2 UV-I 250 W/m 0,1 C 4,7 C 3,2 km/h (1 Bft) 100,00 %
07.03.2016 13:05 4,8 C 69 % 1003,8 hPa 0,0 l/m 2,1 km/h (1 Bft) NW 311 0 min 0,000 mm 1,2 UV-I 256 W/m -0,4 C 4,8 C 4,8 km/h (1 Bft) 100,00 %
07.03.2016 13:06 4,8 C 68 % 1003,8 hPa 0,0 l/m 0,6 km/h (0 Bft) NW 311 0 min 0,000 mm 1,2 UV-I 262 W/m -0,6 C 4,8 C 1,6 km/h (1 Bft) 100,00 %
07.03.2016 13:07 4,8 C 69 % 1003,9 hPa 0,0 l/m 0,5 km/h (0 Bft) NW 311 0 min 0,000 mm 1,2 UV-I 270 W/m -0,4 C 4,8 C 1,6 km/h (1 Bft) 100,00 %
07.03.2016 13:08 4,8 C 70 % 1003,8 hPa 0,0 l/m 0,5 km/h (0 Bft) NW 311 0 min 0,000 mm 1,2 UV-I 281 W/m -0,2 C 4,8 C 3,2 km/h (1 Bft) 100,00 %
07.03.2016 13:09 4,8 C 68 % 1003,8 hPa 0,0 l/m 0,8 km/h (0 Bft) NW 311 0 min 0,000 mm 1,3 UV-I 299 W/m -0,6 C 4,8 C 1,6 km/h (1 Bft) 100,00 %
07.03.2016 13:10 4,9 C 71 % 1003,8 hPa 0,0 l/m 0,9 km/h (0 Bft) NW 311 0 min 0,000 mm 1,3 UV-I 320 W/m 0,1 C 4,9 C 3,2 km/h (1 Bft) 100,00 %
07.03.2016 13:11 4,9 C 67 % 1003,8 hPa 0,0 l/m 0,6 km/h (0 Bft) NW 311 1 min 0,000 mm 1,4 UV-I 342 W/m -0,7 C 4,9 C 1,6 km/h (1 Bft) 100,00 %
07.03.2016 13:12 4,9 C 68 % 1003,8 hPa 0,0 l/m 2,3 km/h (1 Bft) NW 323 1 min 0,000 mm 1,6 UV-I 348 W/m -0,5 C 4,9 C 3,2 km/h (1 Bft) 100,00 %
07.03.2016 13:13 5,0 C 70 % 1003,7 hPa 0,0 l/m 3,0 km/h (1 Bft) NW 322 1 min 0,000 mm 1,5 UV-I 545 W/m -0,0 C 5,0 C 4,8 km/h (1 Bft) 100,00 %
07.03.2016 13:14 5,1 C 68 % 1003,7 hPa 0,0 l/m 3,4 km/h (1 Bft) N-NO 20 1 min 0,000 mm 1,5 UV-I 479 W/m -0,3 C 5,1 C 6,4 km/h (2 Bft) 100,00 %
07.03.2016 13:15 5,1 C 66 % 1003,7 hPa 0,0 l/m 5,2 km/h (1 Bft) NO 35 1 min 0,000 mm 1,5 UV-I 368 W/m -0,7 C 5,1 C 6,4 km/h (2 Bft) 100,00 %
07.03.2016 13:16 5,2 C 65 % 1003,7 hPa 0,0 l/m 3,3 km/h (1 Bft) NO 35 1 min 0,000 mm 1,6 UV-I 367 W/m -0,8 C 5,2 C 4,8 km/h (1 Bft) 100,00 %
07.03.2016 13:17 5,2 C 69 % 1003,7 hPa 0,0 l/m 1,6 km/h (1 Bft) NO 35 1 min 0,000 mm 1,6 UV-I 367 W/m -0,0 C 5,2 C 3,2 km/h (1 Bft) 100,00 %
07.03.2016 13:18 5,3 C 67 % 1003,7 hPa 0,0 l/m 1,0 km/h (0 Bft) N-NW 343 1 min 0,000 mm 1,9 UV-I 423 W/m -0,3 C 5,3 C 3,2 km/h (1 Bft) 100,00 %
07.03.2016 13:19 5,4 C 66 % 1003,7 hPa 0,0 l/m 0,6 km/h (0 Bft) N-NW 343 1 min 0,000 mm 2,0 UV-I 776 W/m -0,4 C 5,4 C 1,6 km/h (1 Bft) 95,65 %
07.03.2016 13:20 5,6 C 67 % 1003,7 hPa 0,0 l/m 1,3 km/h (1 Bft) W-NW 288 1 min 0,000 mm 2,0 UV-I 767 W/m -0,0 C 5,6 C 6,4 km/h (2 Bft) 100,00 %
07.03.2016 13:21 5,7 C 65 % 1003,8 hPa 0,0 l/m 3,6 km/h (1 Bft) N-NW 336 1 min 0,000 mm 2,0 UV-I 764 W/m -0,4 C 5,7 C 6,4 km/h (2 Bft) 100,00 %
07.03.2016 13:22 5,8 C 63 % 1003,8 hPa 0,0 l/m 1,7 km/h (1 Bft) N-NW 331 1 min 0,000 mm 2,0 UV-I 758 W/m -0,7 C 5,8 C 3,2 km/h (1 Bft) 97,56 %
07.03.2016 13:23 5,8 C 61 % 1003,7 hPa 0,0 l/m 3,5 km/h (1 Bft) NW 319 1 min 0,000 mm 2,0 UV-I 752 W/m -1,1 C 5,8 C 6,4 km/h (2 Bft) 100,00 %
07.03.2016 13:24 5,8 C 62 % 1003,7 hPa 0,0 l/m 1,5 km/h (1 Bft) W-NW 303 1 min 0,000 mm 2,0 UV-I 743 W/m -0,9 C 5,8 C 4,8 km/h (1 Bft) 100,00 %
07.03.2016 13:25 5,8 C 63 % 1003,7 hPa 0,0 l/m 3,0 km/h (1 Bft) NW 311 1 min 0,000 mm 2,0 UV-I 733 W/m -0,7 C 5,8 C 4,8 km/h (1 Bft) 95,65 %
07.03.2016 13:26 5,8 C 65 % 1003,7 hPa 0,0 l/m 2,6 km/h (1 Bft) NW 313 1 min 0,000 mm 2,0 UV-I 725 W/m -0,3 C 5,8 C 4,8 km/h (1 Bft) 100,00 %
07.03.2016 13:27 5,8 C 63 % 1003,7 hPa 0,0 l/m 1,4 km/h (1 Bft) N-NW 336 1 min 0,000 mm 1,9 UV-I 722 W/m -0,7 C 5,8 C 3,2 km/h (1 Bft) 100,00 %
07.03.2016 13:28 5,9 C 64 % 1003,6 hPa 0,0 l/m 2,4 km/h (1 Bft) N-NW 339 1 min 0,000 mm 1,9 UV-I 724 W/m -0,4 C 5,9 C 3,2 km/h (1 Bft) 100,00 %
07.03.2016 13:29 6,0 C 62 % 1003,7 hPa 0,0 l/m 1,8 km/h (1 Bft) N-NW 342 1 min 0,000 mm 1,9 UV-I 724 W/m -0,7 C 6,0 C 3,2 km/h (1 Bft) 100,00 %
07.03.2016 13:30 5,9 C 61 % 1003,6 hPa 0,0 l/m 3,8 km/h (1 Bft) NW 326 1 min 0,000 mm 1,9 UV-I 670 W/m -1,0 C 5,9 C 6,4 km/h (2 Bft) 100,00 %
07.03.2016 13:31 5,9 C 61 % 1003,6 hPa 0,0 l/m 3,6 km/h (1 Bft) N-NW 329 1 min 0,000 mm 1,9 UV-I 662 W/m -1,0 C 5,9 C 6,4 km/h (2 Bft) 95,83 %
07.03.2016 13:32 5,9 C 61 % 1003,6 hPa 0,0 l/m 3,0 km/h (1 Bft) N-NW 346 1 min 0,000 mm 1,8 UV-I 643 W/m -1,0 C 5,9 C 4,8 km/h (1 Bft) 95,65 %
07.03.2016 13:33 5,9 C 64 % 1003,6 hPa 0,0 l/m 3,9 km/h (1 Bft) NO 55 1 min 0,000 mm 1,9 UV-I 661 W/m -0,4 C 5,9 C 4,8 km/h (1 Bft) 100,00 %
07.03.2016 13:34 5,9 C 62 % 1003,6 hPa 0,0 l/m 4,2 km/h (1 Bft) O-NO 67 1 min 0,000 mm 1,8 UV-I 641 W/m -0,8 C 5,9 C 4,8 km/h (1 Bft) 95,65 %
07.03.2016 13:35 5,9 C 63 % 1003,5 hPa 0,0 l/m 1,6 km/h (1 Bft) O-NO 67 1 min 0,000 mm 1,6 UV-I 606 W/m -0,6 C 5,9 C 3,2 km/h (1 Bft) 96,30 %
07.03.2016 13:36 5,9 C 62 % 1003,6 hPa 0,0 l/m 0,2 km/h (0 Bft) N 355 0 min 0,000 mm 1,4 UV-I 280 W/m -0,8 C 5,9 C 1,6 km/h (1 Bft) 100,00 %
07.03.2016 13:37 5,9 C 63 % 1003,5 hPa 0,0 l/m 1,5 km/h (1 Bft) N 355 0 min 0,000 mm 1,2 UV-I 201 W/m -0,6 C 5,9 C 3,2 km/h (1 Bft) 93,33 %
07.03.2016 13:38 5,7 C 60 % 1003,6 hPa 0,0 l/m 1,4 km/h (1 Bft) N 11 0 min 0,000 mm 1,2 UV-I 183 W/m -1,4 C 5,7 C 3,2 km/h (1 Bft) 96,15 %
07.03.2016 13:39 5,6 C 61 % 1003,5 hPa 0,0 l/m 2,6 km/h (1 Bft) N-NO 27 0 min 0,000 mm 1,1 UV-I 167 W/m -1,3 C 5,6 C 4,8 km/h (1 Bft) 100,00 %
07.03.2016 13:40 5,6 C 66 % 1003,5 hPa 0,0 l/m 5,5 km/h (1 Bft) N-NO 27 0 min 0,000 mm 1,1 UV-I 163 W/m -0,2 C 5,6 C 11,3 km/h (2 Bft) 100,00 %
07.03.2016 13:41 5,6 C 66 % 1003,5 hPa 0,0 l/m 5,3 km/h (1 Bft) N 355 0 min 0,000 mm 1,1 UV-I 163 W/m -0,2 C 5,6 C 8,0 km/h (2 Bft) 96,30 %
07.03.2016 13:42 5,6 C 67 % 1003,5 hPa 0,0 l/m 2,9 km/h (1 Bft) N-NW 339 0 min 0,000 mm 1,1 UV-I 168 W/m -0,0 C 5,6 C 4,8 km/h (1 Bft) 100,00 %
07.03.2016 13:43 5,6 C 66 % 1003,5 hPa 0,0 l/m 2,4 km/h (1 Bft) N-NO 15 0 min 0,000 mm 1,1 UV-I 176 W/m -0,2 C 5,6 C 4,8 km/h (1 Bft) 95,83 %
07.03.2016 13:44 5,6 C 67 % 1003,5 hPa 0,0 l/m 3,1 km/h (1 Bft) NO 36 0 min 0,000 mm 1,1 UV-I 191 W/m -0,0 C 5,6 C 6,4 km/h (2 Bft) 100,00 %
07.03.2016 13:45 5,5 C 66 % 1003,5 hPa 0,0 l/m 0,8 km/h (0 Bft) O 90 0 min 0,000 mm 1,1 UV-I 200 W/m -0,3 C 5,5 C 1,6 km/h (1 Bft) 95,83 %
07.03.2016 13:46 5,5 C 64 % 1003,5 hPa 0,0 l/m 0,3 km/h (0 Bft) N-NW 340 0 min 0,000 mm 1,2 UV-I 289 W/m -0,8 C 5,5 C 1,6 km/h (1 Bft) 100,00 %
07.03.2016 13:47 5,5 C 62 % 1003,4 hPa 0,0 l/m 1,3 km/h (1 Bft) NW 311 0 min 0,000 mm 1,1 UV-I 230 W/m -1,2 C 5,5 C 3,2 km/h (1 Bft) 95,65 %
07.03.2016 13:48 5,4 C 62 % 1003,4 hPa 0,0 l/m 3,8 km/h (1 Bft) W-NW 300 0 min 0,000 mm 1,1 UV-I 208 W/m -1,3 C 5,4 C 6,4 km/h (2 Bft) 95,83 %
07.03.2016 13:49 5,4 C 61 % 1003,4 hPa 0,0 l/m 4,2 km/h (1 Bft) W-NW 290 0 min 0,000 mm 1,1 UV-I 202 W/m -1,5 C 5,4 C 6,4 km/h (2 Bft) 95,65 %
07.03.2016 13:50 5,3 C 60 % 1003,3 hPa 0,0 l/m 3,6 km/h (1 Bft) NW 319 0 min 0,000 mm 1,1 UV-I 195 W/m -1,8 C 5,3 C 6,4 km/h (2 Bft) 92,59 %
07.03.2016 13:51 5,3 C 62 % 1003,4 hPa 0,0 l/m 4,7 km/h (1 Bft) NO 51 0 min 0,000 mm 1,1 UV-I 198 W/m -1,4 C 5,3 C 12,9 km/h (3 Bft) 100,00 %
07.03.2016 13:52 5,4 C 62 % 1003,4 hPa 0,0 l/m 8,8 km/h (2 Bft) N 11 0 min 0,000 mm 1,1 UV-I 203 W/m -1,3 C 3,4 C 12,9 km/h (3 Bft) 96,30 %
07.03.2016 13:53 5,5 C 63 % 1003,4 hPa 0,0 l/m 8,5 km/h (2 Bft) N-NO 27 0 min 0,000 mm 1,1 UV-I 209 W/m -1,0 C 3,7 C 11,3 km/h (2 Bft) 100,00 %
07.03.2016 13:54 5,5 C 63 % 1003,3 hPa 0,0 l/m 7,7 km/h (2 Bft) N-NO 23 0 min 0,000 mm 1,1 UV-I 212 W/m -1,0 C 4,4 C 9,7 km/h (2 Bft) 96,30 %
07.03.2016 13:55 5,5 C 63 % 1003,3 hPa 0,0 l/m 2,8 km/h (1 Bft) N-NO 28 0 min 0,000 mm 1,0 UV-I 206 W/m -1,0 C 5,5 C 6,4 km/h (2 Bft) 91,30 %
07.03.2016 13:56 5,4 C 61 % 1003,3 hPa 0,0 l/m 4,8 km/h (1 Bft) N-NO 19 0 min 0,000 mm 1,0 UV-I 194 W/m -1,5 C 5,4 C 8,0 km/h (2 Bft) 100,00 %
07.03.2016 13:57 5,5 C 64 % 1003,3 hPa 0,0 l/m 7,2 km/h (2 Bft) N-NO 21 0 min 0,000 mm 0,9 UV-I 180 W/m -0,8 C 4,8 C 12,9 km/h (3 Bft) 100,00 %
07.03.2016 13:58 5,5 C 64 % 1003,3 hPa 0,0 l/m 8,3 km/h (2 Bft) NO 44 0 min 0,000 mm 0,9 UV-I 164 W/m -0,8 C 3,9 C 11,3 km/h (2 Bft) 96,30 %
07.03.2016 13:59 5,6 C 64 % 1003,3 hPa 0,0 l/m 4,9 km/h (1 Bft) N-NO 15 0 min 0,000 mm 0,9 UV-I 158 W/m -0,7 C 5,6 C 9,7 km/h (2 Bft) 91,30 %
07.03.2016 14:00 5,6 C 64 % 1003,4 hPa 0,0 l/m 2,7 km/h (1 Bft) N-NO 13 0 min 0,000 mm 0,8 UV-I 160 W/m -0,7 C 5,6 C 6,4 km/h (2 Bft) 100,00 %
07.03.2016 14:02 5,5 C 66 % 1003,3 hPa 0,0 l/m 2,2 km/h (1 Bft) N 355 0 min 0,178 mm 0,8 UV-I 161 W/m -0,3 C 5,5 C 4,8 km/h (1 Bft) 97,56 %
07.03.2016 14:03 5,6 C 66 % 1003,3 hPa 0,0 l/m 4,3 km/h (1 Bft) N-NO 28 0 min 0,000 mm 0,8 UV-I 166 W/m -0,2 C 5,6 C 11,3 km/h (2 Bft) 92,31 %
07.03.2016 14:04 5,6 C 66 % 1003,3 hPa 0,0 l/m 7,1 km/h (2 Bft) N-NO 32 0 min 0,000 mm 0,8 UV-I 167 W/m -0,2 C 5,0 C 12,9 km/h (3 Bft) 100,00 %
07.03.2016 14:05 5,5 C 65 % 1003,3 hPa 0,0 l/m 8,2 km/h (2 Bft) NO 36 0 min 0,000 mm 0,8 UV-I 166 W/m -0,5 C 4,0 C 9,7 km/h (2 Bft) 93,10 %
07.03.2016 14:06 5,5 C 65 % 1003,3 hPa 0,0 l/m 7,6 km/h (2 Bft) N-NO 21 0 min 0,000 mm 0,8 UV-I 162 W/m -0,5 C 4,5 C 9,7 km/h (2 Bft) 100,00 %
07.03.2016 14:07 5,5 C 64 % 1003,3 hPa 0,0 l/m 7,5 km/h (2 Bft) N-NO 31 0 min 0,000 mm 0,8 UV-I 162 W/m -0,8 C 4,5 C 8,0 km/h (2 Bft) 96,30 %
07.03.2016 14:08 5,4 C 66 % 1003,3 hPa 0,0 l/m 6,0 km/h (2 Bft) N 9 0 min 0,000 mm 0,8 UV-I 164 W/m -0,4 C 5,4 C 8,0 km/h (2 Bft) 96,15 %
07.03.2016 14:09 5,4 C 65 % 1003,3 hPa 0,0 l/m 3,5 km/h (1 Bft) N-NO 16 0 min 0,000 mm 0,8 UV-I 168 W/m -0,6 C 5,4 C 6,4 km/h (2 Bft) 100,00 %
07.03.2016 14:10 5,4 C 64 % 1003,3 hPa 0,0 l/m 0,9 km/h (0 Bft) N-NO 16 0 min 0,000 mm 0,8 UV-I 172 W/m -0,9 C 5,4 C 3,2 km/h (1 Bft) 86,96 %
07.03.2016 14:11 5,4 C 65 % 1003,3 hPa 0,0 l/m 0,5 km/h (0 Bft) N 11 0 min 0,000 mm 0,8 UV-I 172 W/m -0,6 C 5,4 C 1,6 km/h (1 Bft) 100,00 %
07.03.2016 14:12 5,4 C 67 % 1003,3 hPa 0,0 l/m 1,0 km/h (0 Bft) N-NO 28 0 min 0,000 mm 0,8 UV-I 174 W/m -0,2 C 5,4 C 1,6 km/h (1 Bft) 95,65 %
07.03.2016 14:13 5,4 C 65 % 1003,3 hPa 0,0 l/m 0,8 km/h (0 Bft) N-NO 26 0 min 0,000 mm 0,8 UV-I 180 W/m -0,6 C 5,4 C 1,6 km/h (1 Bft) 100,00 %
07.03.2016 14:14 5,4 C 62 % 1003,3 hPa 0,0 l/m 1,4 km/h (1 Bft) N 349 0 min 0,000 mm 0,8 UV-I 183 W/m -1,3 C 5,4 C 3,2 km/h (1 Bft) 100,00 %
07.03.2016 14:15 5,4 C 65 % 1003,3 hPa 0,0 l/m 1,2 km/h (1 Bft) N 9 0 min 0,000 mm 0,8 UV-I 180 W/m -0,6 C 5,4 C 3,2 km/h (1 Bft) 100,00 %
07.03.2016 14:16 5,3 C 62 % 1003,2 hPa 0,0 l/m 1,6 km/h (1 Bft) N-NO 12 0 min 0,000 mm 0,7 UV-I 175 W/m -1,4 C 5,3 C 3,2 km/h (1 Bft) 100,00 %
07.03.2016 14:17 5,3 C 65 % 1003,3 hPa 0,0 l/m 3,3 km/h (1 Bft) NO 44 0 min 0,000 mm 0,7 UV-I 172 W/m -0,7 C 5,3 C 8,0 km/h (2 Bft) 100,00 %
07.03.2016 14:18 5,4 C 65 % 1003,3 hPa 0,0 l/m 6,8 km/h (2 Bft) N-NO 30 0 min 0,000 mm 0,7 UV-I 177 W/m -0,6 C 5,1 C 8,0 km/h (2 Bft) 100,00 %
07.03.2016 14:19 5,4 C 64 % 1003,2 hPa 0,0 l/m 5,8 km/h (2 Bft) N 9 0 min 0,000 mm 0,7 UV-I 182 W/m -0,9 C 5,4 C 8,0 km/h (2 Bft) 100,00 %
07.03.2016 14:20 5,4 C 66 % 1003,2 hPa 0,0 l/m 2,4 km/h (1 Bft) N-NO 18 0 min 0,000 mm 0,7 UV-I 187 W/m -0,4 C 5,4 C 4,8 km/h (1 Bft) 100,00 %
07.03.2016 14:21 5,4 C 64 % 1003,2 hPa 0,0 l/m 3,9 km/h (1 Bft) N-NO 22 0 min 0,000 mm 0,7 UV-I 191 W/m -0,9 C 5,4 C 6,4 km/h (2 Bft) 91,67 %
07.03.2016 14:22 5,3 C 62 % 1003,2 hPa 0,0 l/m 3,5 km/h (1 Bft) O 83 0 min 0,000 mm 0,7 UV-I 193 W/m -1,4 C 5,3 C 6,4 km/h (2 Bft) 96,88 %
07.03.2016 14:23 5,3 C 63 % 1003,2 hPa 0,0 l/m 6,2 km/h (2 Bft) NO 46 0 min 0,000 mm 0,7 UV-I 193 W/m -1,2 C 5,3 C 8,0 km/h (2 Bft) 100,00 %
07.03.2016 14:24 5,3 C 62 % 1003,2 hPa 0,0 l/m 8,0 km/h (2 Bft) O-NO 67 0 min 0,000 mm 0,7 UV-I 193 W/m -1,4 C 3,9 C 11,3 km/h (2 Bft) 100,00 %
07.03.2016 14:25 5,4 C 62 % 1003,2 hPa 0,0 l/m 8,6 km/h (2 Bft) NO 50 0 min 0,000 mm 0,7 UV-I 193 W/m -1,3 C 3,5 C 12,9 km/h (3 Bft) 100,00 %
07.03.2016 14:26 5,4 C 62 % 1003,2 hPa 0,0 l/m 5,1 km/h (1 Bft) NO 53 0 min 0,000 mm 0,7 UV-I 192 W/m -1,3 C 5,4 C 6,4 km/h (2 Bft) 96,88 %
07.03.2016 14:27 5,4 C 63 % 1003,1 hPa 0,0 l/m 5,7 km/h (1 Bft) O-NO 72 0 min 0,000 mm 0,7 UV-I 189 W/m -1,1 C 5,4 C 6,4 km/h (2 Bft) 100,00 %
07.03.2016 14:28 5,4 C 63 % 1003,1 hPa 0,0 l/m 6,4 km/h (2 Bft) O-NO 69 0 min 0,000 mm 0,7 UV-I 185 W/m -1,1 C 5,4 C 8,0 km/h (2 Bft) 100,00 %
07.03.2016 14:29 5,4 C 62 % 1003,1 hPa 0,0 l/m 7,1 km/h (2 Bft) O-NO 77 0 min 0,000 mm 0,7 UV-I 178 W/m -1,3 C 4,8 C 11,3 km/h (2 Bft) 100,00 %
07.03.2016 14:30 5,4 C 61 % 1003,1 hPa 0,0 l/m 5,5 km/h (1 Bft) O 80 0 min 0,000 mm 0,6 UV-I 173 W/m -1,5 C 5,4 C 8,0 km/h (2 Bft) 100,00 %
07.03.2016 14:31 5,4 C 61 % 1003,1 hPa 0,0 l/m 4,1 km/h (1 Bft) O 84 0 min 0,000 mm 0,6 UV-I 169 W/m -1,5 C 5,4 C 6,4 km/h (2 Bft) 100,00 %
07.03.2016 14:32 5,4 C 62 % 1003,1 hPa 0,0 l/m 6,0 km/h (2 Bft) O-NO 67 0 min 0,000 mm 0,6 UV-I 164 W/m -1,3 C 5,4 C 8,0 km/h (2 Bft) 100,00 %
07.03.2016 14:33 5,4 C 62 % 1003,1 hPa 0,0 l/m 6,3 km/h (2 Bft) O 97 0 min 0,000 mm 0,6 UV-I 161 W/m -1,3 C 5,4 C 8,0 km/h (2 Bft) 100,00 %
07.03.2016 14:34 5,3 C 62 % 1003,1 hPa 0,0 l/m 6,4 km/h (2 Bft) N-NO 24 0 min 0,000 mm 0,6 UV-I 158 W/m -1,4 C 5,3 C 11,3 km/h (2 Bft) 96,30 %
07.03.2016 14:35 5,3 C 62 % 1003,1 hPa 0,0 l/m 5,7 km/h (1 Bft) NO 46 0 min 0,000 mm 0,6 UV-I 156 W/m -1,4 C 5,3 C 8,0 km/h (2 Bft) 100,00 %
07.03.2016 14:36 5,4 C 62 % 1003,1 hPa 0,0 l/m 6,4 km/h (2 Bft) O-NO 57 0 min 0,000 mm 0,6 UV-I 156 W/m -1,3 C 5,4 C 8,0 km/h (2 Bft) 100,00 %
07.03.2016 14:37 5,3 C 62 % 1003,1 hPa 0,0 l/m 5,6 km/h (1 Bft) O-NO 77 0 min 0,000 mm 0,6 UV-I 153 W/m -1,4 C 5,3 C 8,0 km/h (2 Bft) 100,00 %
07.03.2016 14:38 5,3 C 61 % 1003,1 hPa 0,0 l/m 5,2 km/h (1 Bft) O-NO 61 0 min 0,000 mm 0,6 UV-I 150 W/m -1,6 C 5,3 C 8,0 km/h (2 Bft) 100,00 %
07.03.2016 14:39 5,3 C 60 % 1003,1 hPa 0,0 l/m 2,4 km/h (1 Bft) O-NO 61 0 min 0,000 mm 0,6 UV-I 151 W/m -1,8 C 5,3 C 3,2 km/h (1 Bft) 100,00 %
07.03.2016 14:40 5,3 C 61 % 1003,2 hPa 0,0 l/m 3,9 km/h (1 Bft) O-NO 67 0 min 0,000 mm 0,5 UV-I 151 W/m -1,6 C 5,3 C 6,4 km/h (2 Bft) 100,00 %
07.03.2016 14:41 5,3 C 62 % 1003,1 hPa 0,0 l/m 3,4 km/h (1 Bft) NO 51 0 min 0,000 mm 0,5 UV-I 149 W/m -1,4 C 5,3 C 4,8 km/h (1 Bft) 100,00 %
07.03.2016 14:42 5,3 C 61 % 1003,2 hPa 0,0 l/m 4,1 km/h (1 Bft) O-NO 71 0 min 0,000 mm 0,5 UV-I 152 W/m -1,6 C 5,3 C 4,8 km/h (1 Bft) 100,00 %
07.03.2016 14:43 5,3 C 62 % 1003,1 hPa 0,0 l/m 3,9 km/h (1 Bft) O-NO 67 0 min 0,000 mm 0,5 UV-I 154 W/m -1,4 C 5,3 C 6,4 km/h (2 Bft) 96,15 %
07.03.2016 14:44 5,4 C 63 % 1003,2 hPa 0,0 l/m 7,7 km/h (2 Bft) O-NO 65 0 min 0,000 mm 0,5 UV-I 155 W/m -1,1 C 4,3 C 9,7 km/h (2 Bft) 100,00 %
07.03.2016 14:45 5,4 C 61 % 1003,2 hPa 0,0 l/m 7,8 km/h (2 Bft) O 79 0 min 0,000 mm 0,5 UV-I 155 W/m -1,5 C 4,2 C 11,3 km/h (2 Bft) 100,00 %
07.03.2016 14:46 5,4 C 60 % 1003,2 hPa 0,0 l/m 7,0 km/h (2 Bft) O-SO 102 0 min 0,000 mm 0,5 UV-I 155 W/m -1,7 C 4,9 C 9,7 km/h (2 Bft) 100,00 %
07.03.2016 14:47 5,4 C 62 % 1003,2 hPa 0,0 l/m 6,8 km/h (2 Bft) O 96 0 min 0,000 mm 0,5 UV-I 152 W/m -1,3 C 5,1 C 11,3 km/h (2 Bft) 100,00 %
07.03.2016 14:48 5,4 C 64 % 1003,2 hPa 0,0 l/m 8,3 km/h (2 Bft) O-SO 115 0 min 0,000 mm 0,5 UV-I 150 W/m -0,9 C 3,8 C 11,3 km/h (2 Bft) 95,65 %
07.03.2016 14:49 5,4 C 60 % 1003,2 hPa 0,0 l/m 8,9 km/h (2 Bft) O-SO 111 0 min 0,000 mm 0,5 UV-I 147 W/m -1,7 C 3,3 C 11,3 km/h (2 Bft) 100,00 %
07.03.2016 14:50 5,4 C 61 % 1003,3 hPa 0,0 l/m 6,0 km/h (2 Bft) O 94 0 min 0,000 mm 0,5 UV-I 143 W/m -1,5 C 5,4 C 8,0 km/h (2 Bft) 100,00 %
07.03.2016 14:51 5,4 C 61 % 1003,2 hPa 0,0 l/m 5,0 km/h (1 Bft) O 101 0 min 0,000 mm 0,5 UV-I 140 W/m -1,5 C 5,4 C 6,4 km/h (2 Bft) 96,30 %
07.03.2016 14:52 5,4 C 60 % 1003,3 hPa 0,0 l/m 3,3 km/h (1 Bft) O 101 0 min 0,000 mm 0,5 UV-I 137 W/m -1,7 C 5,4 C 4,8 km/h (1 Bft) 92,31 %
07.03.2016 14:53 5,4 C 60 % 1003,3 hPa 0,0 l/m 3,6 km/h (1 Bft) O 101 0 min 0,000 mm 0,5 UV-I 135 W/m -1,7 C 5,4 C 4,8 km/h (1 Bft) 100,00 %
07.03.2016 14:54 5,4 C 60 % 1003,3 hPa 0,0 l/m 1,5 km/h (1 Bft) O 101 0 min 0,000 mm 0,5 UV-I 134 W/m -1,7 C 5,4 C 3,2 km/h (1 Bft) 100,00 %
07.03.2016 14:55 5,4 C 60 % 1003,3 hPa 0,0 l/m 1,6 km/h (1 Bft) O 101 0 min 0,000 mm 0,4 UV-I 134 W/m -1,7 C 5,4 C 3,2 km/h (1 Bft) 100,00 %
07.03.2016 14:56 5,4 C 62 % 1003,3 hPa 0,0 l/m 3,1 km/h (1 Bft) O-NO 71 0 min 0,000 mm 0,0 UV-I 134 W/m -1,3 C 5,4 C 4,8 km/h (1 Bft) 100,00 %
07.03.2016 14:57 5,4 C 60 % 1003,3 hPa 0,0 l/m 2,9 km/h (1 Bft) O-NO 71 0 min 0,000 mm 0,0 UV-I 132 W/m -1,7 C 5,4 C 4,8 km/h (1 Bft) 100,00 %
07.03.2016 14:58 5,4 C 61 % 1003,3 hPa 0,0 l/m 4,6 km/h (1 Bft) O 86 0 min 0,000 mm 0,0 UV-I 132 W/m -1,5 C 5,4 C 6,4 km/h (2 Bft) 100,00 %
07.03.2016 14:59 5,4 C 62 % 1003,3 hPa 0,0 l/m 3,8 km/h (1 Bft) NO 46 0 min 0,000 mm 0,0 UV-I 130 W/m -1,3 C 5,4 C 4,8 km/h (1 Bft) 100,00 %
07.03.2016 15:00 5,4 C 61 % 1003,3 hPa 0,0 l/m 5,2 km/h (1 Bft) NO 46 0 min 0,000 mm 0,0 UV-I 129 W/m -1,5 C 5,4 C 8,0 km/h (2 Bft) 100,00 %
07.03.2016 15:01 5,4 C 60 % 1003,3 hPa 0,0 l/m 3,2 km/h (1 Bft) NO 46 0 min 0,076 mm 0,0 UV-I 128 W/m -1,7 C 5,4 C 4,8 km/h (1 Bft) 100,00 %
07.03.2016 15:02 5,4 C 60 % 1003,3 hPa 0,0 l/m 2,4 km/h (1 Bft) NO 46 0 min 0,000 mm 0,0 UV-I 127 W/m -1,7 C 5,4 C 3,2 km/h (1 Bft) 100,00 %
07.03.2016 15:03 5,4 C 60 % 1003,3 hPa 0,0 l/m 3,8 km/h (1 Bft) O-NO 63 0 min 0,000 mm 0,0 UV-I 124 W/m -1,7 C 5,4 C 4,8 km/h (1 Bft) 100,00 %
07.03.2016 15:04 5,4 C 60 % 1003,3 hPa 0,0 l/m 4,1 km/h (1 Bft) O-NO 63 0 min 0,000 mm 0,0 UV-I 122 W/m -1,7 C 5,4 C 4,8 km/h (1 Bft) 100,00 %
07.03.2016 15:05 5,4 C 61 % 1003,3 hPa 0,0 l/m 3,6 km/h (1 Bft) O-NO 78 0 min 0,000 mm 0,0 UV-I 124 W/m -1,5 C 5,4 C 4,8 km/h (1 Bft) 100,00 %
07.03.2016 15:06 5,3 C 60 % 1003,2 hPa 0,0 l/m 3,2 km/h (1 Bft) O 89 0 min 0,000 mm 0,0 UV-I 130 W/m -1,8 C 5,3 C 4,8 km/h (1 Bft) 100,00 %
07.03.2016 15:07 5,3 C 61 % 1003,2 hPa 0,0 l/m 2,5 km/h (1 Bft) O 89 0 min 0,000 mm 0,0 UV-I 134 W/m -1,6 C 5,3 C 4,8 km/h (1 Bft) 100,00 %
07.03.2016 15:08 5,3 C 61 % 1003,2 hPa 0,0 l/m 2,9 km/h (1 Bft) O 89 0 min 0,000 mm 0,0 UV-I 136 W/m -1,6 C 5,3 C 3,2 km/h (1 Bft) 100,00 %
07.03.2016 15:09 5,3 C 62 % 1003,2 hPa 0,0 l/m 3,8 km/h (1 Bft) O-SO 109 0 min 0,000 mm 0,0 UV-I 137 W/m -1,4 C 5,3 C 4,8 km/h (1 Bft) 100,00 %
07.03.2016 15:10 5,4 C 63 % 1003,3 hPa 0,0 l/m 3,0 km/h (1 Bft) O-NO 71 0 min 0,000 mm 0,0 UV-I 133 W/m -1,1 C 5,4 C 4,8 km/h (1 Bft) 100,00 %
07.03.2016 15:11 5,4 C 62 % 1003,3 hPa 0,0 l/m 3,9 km/h (1 Bft) O-NO 70 0 min 0,000 mm 0,0 UV-I 129 W/m -1,3 C 5,4 C 4,8 km/h (1 Bft) 100,00 %
07.03.2016 15:12 5,4 C 61 % 1003,3 hPa 0,0 l/m 3,4 km/h (1 Bft) O-NO 69 0 min 0,000 mm 0,0 UV-I 124 W/m -1,5 C 5,4 C 6,4 km/h (2 Bft) 100,00 %
07.03.2016 15:13 5,4 C 61 % 1003,3 hPa 0,0 l/m 4,3 km/h (1 Bft) O-NO 67 0 min 0,000 mm 0,0 UV-I 119 W/m -1,5 C 5,4 C 6,4 km/h (2 Bft) 100,00 %
07.03.2016 15:14 5,4 C 61 % 1003,3 hPa 0,0 l/m 5,0 km/h (1 Bft) NO 50 0 min 0,000 mm 0,0 UV-I 116 W/m -1,5 C 5,4 C 6,4 km/h (2 Bft) 100,00 %
07.03.2016 15:15 5,4 C 62 % 1003,3 hPa 0,0 l/m 4,6 km/h (1 Bft) NO 38 0 min 0,000 mm 0,0 UV-I 114 W/m -1,3 C 5,4 C 4,8 km/h (1 Bft) 100,00 %
07.03.2016 15:16 5,4 C 63 % 1003,3 hPa 0,0 l/m 3,6 km/h (1 Bft) NO 44 0 min 0,000 mm 0,0 UV-I 113 W/m -1,1 C 5,4 C 6,4 km/h (2 Bft) 100,00 %
07.03.2016 15:17 5,5 C 64 % 1003,3 hPa 0,0 l/m 3,3 km/h (1 Bft) O-NO 70 0 min 0,000 mm 0,0 UV-I 113 W/m -0,8 C 5,5 C 4,8 km/h (1 Bft) 100,00 %
07.03.2016 15:18 5,4 C 61 % 1003,3 hPa 0,0 l/m 4,4 km/h (1 Bft) O-NO 59 0 min 0,000 mm 0,0 UV-I 112 W/m -1,5 C 5,4 C 6,4 km/h (2 Bft) 100,00 %
07.03.2016 15:19 5,4 C 61 % 1003,3 hPa 0,0 l/m 4,5 km/h (1 Bft) O-NO 59 0 min 0,000 mm 0,0 UV-I 111 W/m -1,5 C 5,4 C 4,8 km/h (1 Bft) 96,15 %
07.03.2016 15:20 5,4 C 60 % 1003,3 hPa 0,0 l/m 5,2 km/h (1 Bft) O-NO 63 0 min 0,000 mm 0,0 UV-I 111 W/m -1,7 C 5,4 C 6,4 km/h (2 Bft) 100,00 %
07.03.2016 15:21 5,4 C 61 % 1003,3 hPa 0,0 l/m 5,4 km/h (1 Bft) O-NO 70 0 min 0,000 mm 0,0 UV-I 111 W/m -1,5 C 5,4 C 6,4 km/h (2 Bft) 100,00 %
07.03.2016 15:22 5,4 C 60 % 1003,3 hPa 0,0 l/m 3,1 km/h (1 Bft) O-NO 70 0 min 0,000 mm 0,0 UV-I 111 W/m -1,7 C 5,4 C 4,8 km/h (1 Bft) 100,00 %
07.03.2016 15:23 5,3 C 60 % 1003,3 hPa 0,0 l/m 3,2 km/h (1 Bft) O 83 0 min 0,000 mm 0,0 UV-I 106 W/m -1,8 C 5,3 C 4,8 km/h (1 Bft) 100,00 %
07.03.2016 15:24 5,3 C 62 % 1003,4 hPa 0,0 l/m 3,7 km/h (1 Bft) O 84 0 min 0,000 mm 0,0 UV-I 102 W/m -1,4 C 5,3 C 6,4 km/h (2 Bft) 100,00 %
07.03.2016 15:25 5,3 C 62 % 1003,4 hPa 0,0 l/m 4,4 km/h (1 Bft) O 99 0 min 0,000 mm 0,0 UV-I 99 W/m -1,4 C 5,3 C 6,4 km/h (2 Bft) 100,00 %
07.03.2016 15:26 5,3 C 62 % 1003,4 hPa 0,0 l/m 3,5 km/h (1 Bft) O 99 0 min 0,000 mm 0,0 UV-I 97 W/m -1,4 C 5,3 C 4,8 km/h (1 Bft) 96,55 %
07.03.2016 15:27 5,3 C 61 % 1003,4 hPa 0,0 l/m 2,6 km/h (1 Bft) O 98 0 min 0,000 mm 0,0 UV-I 95 W/m -1,6 C 5,3 C 4,8 km/h (1 Bft) 100,00 %
07.03.2016 15:28 5,3 C 61 % 1003,4 hPa 0,0 l/m 3,3 km/h (1 Bft) O 91 0 min 0,000 mm 0,0 UV-I 95 W/m -1,6 C 5,3 C 4,8 km/h (1 Bft) 100,00 %
07.03.2016 15:29 5,3 C 62 % 1003,4 hPa 0,0 l/m 2,2 km/h (1 Bft) O 91 0 min 0,000 mm 0,0 UV-I 95 W/m -1,4 C 5,3 C 3,2 km/h (1 Bft) 100,00 %
07.03.2016 15:30 5,3 C 61 % 1003,4 hPa 0,0 l/m 4,2 km/h (1 Bft) O-NO 61 0 min 0,000 mm 0,0 UV-I 95 W/m -1,6 C 5,3 C 6,4 km/h (2 Bft) 100,00 %
07.03.2016 15:31 5,3 C 61 % 1003,4 hPa 0,0 l/m 5,1 km/h (1 Bft) O-NO 67 0 min 0,000 mm 0,0 UV-I 94 W/m -1,6 C 5,3 C 8,0 km/h (2 Bft) 100,00 %
07.03.2016 15:32 5,3 C 61 % 1003,4 hPa 0,0 l/m 4,4 km/h (1 Bft) NO 46 0 min 0,000 mm 0,0 UV-I 91 W/m -1,6 C 5,3 C 6,4 km/h (2 Bft) 100,00 %
07.03.2016 15:33 5,3 C 62 % 1003,4 hPa 0,0 l/m 5,2 km/h (1 Bft) O 86 0 min 0,000 mm 0,0 UV-I 89 W/m -1,4 C 5,3 C 6,4 km/h (2 Bft) 100,00 %
07.03.2016 15:34 5,3 C 63 % 1003,4 hPa 0,0 l/m 4,4 km/h (1 Bft) O-NO 72 0 min 0,000 mm 0,0 UV-I 86 W/m -1,2 C 5,3 C 6,4 km/h (2 Bft) 100,00 %
07.03.2016 15:35 5,3 C 63 % 1003,4 hPa 0,0 l/m 5,4 km/h (1 Bft) O-NO 75 0 min 0,000 mm 0,0 UV-I 84 W/m -1,2 C 5,3 C 6,4 km/h (2 Bft) 100,00 %
07.03.2016 15:36 5,3 C 61 % 1003,4 hPa 0,0 l/m 3,4 km/h (1 Bft) O-NO 67 0 min 0,000 mm 0,0 UV-I 83 W/m -1,6 C 5,3 C 4,8 km/h (1 Bft) 96,15 %
07.03.2016 15:37 5,3 C 61 % 1003,4 hPa 0,0 l/m 1,6 km/h (1 Bft) O-NO 67 0 min 0,000 mm 0,0 UV-I 83 W/m -1,6 C 5,3 C 3,2 km/h (1 Bft) 96,30 %
07.03.2016 15:38 5,3 C 63 % 1003,4 hPa 0,0 l/m 4,2 km/h (1 Bft) O-NO 74 0 min 0,000 mm 0,0 UV-I 84 W/m -1,2 C 5,3 C 6,4 km/h (2 Bft) 92,86 %
07.03.2016 15:39 5,3 C 63 % 1003,4 hPa 0,0 l/m 6,1 km/h (2 Bft) O 101 0 min 0,000 mm 0,0 UV-I 87 W/m -1,2 C 5,3 C 9,7 km/h (2 Bft) 100,00 %
07.03.2016 15:40 5,2 C 61 % 1003,4 hPa 0,0 l/m 3,5 km/h (1 Bft) O 100 0 min 0,000 mm 0,0 UV-I 90 W/m -1,7 C 5,2 C 4,8 km/h (1 Bft) 100,00 %
07.03.2016 15:41 5,2 C 62 % 1003,4 hPa 0,0 l/m 6,8 km/h (2 Bft) O-SO 105 0 min 0,000 mm 0,0 UV-I 92 W/m -1,5 C 4,9 C 9,7 km/h (2 Bft) 96,30 %
07.03.2016 15:42 5,2 C 63 % 1003,4 hPa 0,0 l/m 5,0 km/h (1 Bft) O 79 0 min 0,000 mm 0,0 UV-I 93 W/m -1,3 C 5,2 C 6,4 km/h (2 Bft) 100,00 %
07.03.2016 15:43 5,2 C 64 % 1003,4 hPa 0,0 l/m 4,1 km/h (1 Bft) O 79 0 min 0,000 mm 0,0 UV-I 93 W/m -1,0 C 5,2 C 6,4 km/h (2 Bft) 95,83 %
07.03.2016 15:44 5,2 C 63 % 1003,3 hPa 0,0 l/m 4,8 km/h (1 Bft) O-SO 109 0 min 0,000 mm 0,0 UV-I 91 W/m -1,3 C 5,2 C 6,4 km/h (2 Bft) 100,00 %
07.03.2016 15:45 5,2 C 62 % 1003,4 hPa 0,0 l/m 3,7 km/h (1 Bft) O-SO 111 0 min 0,000 mm 0,0 UV-I 90 W/m -1,5 C 5,2 C 4,8 km/h (1 Bft) 95,83 %
07.03.2016 15:46 5,2 C 62 % 1003,4 hPa 0,0 l/m 3,1 km/h (1 Bft) O-SO 111 0 min 0,000 mm 0,0 UV-I 88 W/m -1,5 C 5,2 C 4,8 km/h (1 Bft) 100,00 %
07.03.2016 15:47 5,2 C 61 % 1003,4 hPa 0,0 l/m 1,9 km/h (1 Bft) O-SO 111 0 min 0,000 mm 0,0 UV-I 85 W/m -1,7 C 5,2 C 4,8 km/h (1 Bft) 96,15 %
07.03.2016 15:48 5,2 C 61 % 1003,5 hPa 0,0 l/m 0,6 km/h (0 Bft) O-SO 111 0 min 0,000 mm 0,0 UV-I 79 W/m -1,7 C 5,2 C 3,2 km/h (1 Bft) 100,00 %
07.03.2016 15:49 5,2 C 64 % 1003,4 hPa 0,0 l/m 1,4 km/h (1 Bft) O-SO 111 0 min 0,000 mm 0,0 UV-I 75 W/m -1,0 C 5,2 C 3,2 km/h (1 Bft) 92,31 %
07.03.2016 15:50 5,2 C 63 % 1003,4 hPa 0,0 l/m 3,2 km/h (1 Bft) O-SO 114 0 min 0,000 mm 0,0 UV-I 70 W/m -1,3 C 5,2 C 4,8 km/h (1 Bft) 96,30 %
07.03.2016 15:51 5,2 C 64 % 1003,5 hPa 0,0 l/m 4,2 km/h (1 Bft) SO 132 0 min 0,000 mm 0,0 UV-I 69 W/m -1,0 C 5,2 C 4,8 km/h (1 Bft) 100,00 %
07.03.2016 15:52 5,2 C 63 % 1003,5 hPa 0,0 l/m 3,9 km/h (1 Bft) O 99 0 min 0,000 mm 0,0 UV-I 69 W/m -1,3 C 5,2 C 6,4 km/h (2 Bft) 100,00 %
07.03.2016 15:53 5,2 C 65 % 1003,5 hPa 0,0 l/m 5,0 km/h (1 Bft) O 88 0 min 0,000 mm 0,0 UV-I 67 W/m -0,8 C 5,2 C 6,4 km/h (2 Bft) 97,56 %
07.03.2016 15:54 5,2 C 64 % 1003,5 hPa 0,0 l/m 3,3 km/h (1 Bft) S-SO 153 0 min 0,000 mm 0,0 UV-I 66 W/m -1,0 C 5,2 C 6,4 km/h (2 Bft) 91,67 %
07.03.2016 15:55 5,2 C 64 % 1003,5 hPa 0,0 l/m 4,6 km/h (1 Bft) S-SO 154 0 min 0,000 mm 0,0 UV-I 65 W/m -1,0 C 5,2 C 8,0 km/h (2 Bft) 100,00 %
07.03.2016 15:56 5,2 C 65 % 1003,4 hPa 0,0 l/m 4,4 km/h (1 Bft) O-SO 120 0 min 0,000 mm 0,0 UV-I 65 W/m -0,8 C 5,2 C 6,4 km/h (2 Bft) 96,67 %
07.03.2016 15:57 5,2 C 66 % 1003,4 hPa 0,0 l/m 4,1 km/h (1 Bft) O-SO 115 0 min 0,000 mm 0,0 UV-I 63 W/m -0,6 C 5,2 C 6,4 km/h (2 Bft) 95,65 %
07.03.2016 15:58 5,2 C 65 % 1003,4 hPa 0,0 l/m 3,4 km/h (1 Bft) SO 125 0 min 0,000 mm 0,0 UV-I 63 W/m -0,8 C 5,2 C 4,8 km/h (1 Bft) 100,00 %
07.03.2016 15:59 5,2 C 66 % 1003,4 hPa 0,0 l/m 3,8 km/h (1 Bft) S-SO 160 0 min 0,000 mm 0,0 UV-I 63 W/m -0,6 C 5,2 C 6,4 km/h (2 Bft) 100,00 %
07.03.2016 16:00 5,2 C 65 % 1003,4 hPa 0,0 l/m 3,3 km/h (1 Bft) SO 144 0 min 0,000 mm 0,0 UV-I 62 W/m -0,8 C 5,2 C 6,4 km/h (2 Bft) 93,75 %
07.03.2016 16:01 5,2 C 65 % 1003,4 hPa 0,0 l/m 2,8 km/h (1 Bft) SO 138 0 min 0,051 mm 0,0 UV-I 60 W/m -0,8 C 5,2 C 6,4 km/h (2 Bft) 100,00 %
07.03.2016 16:02 5,2 C 65 % 1003,4 hPa 0,0 l/m 5,9 km/h (2 Bft) O-SO 114 0 min 0,000 mm 0,0 UV-I 60 W/m -0,8 C 5,2 C 11,3 km/h (2 Bft) 96,15 %
07.03.2016 16:03 5,1 C 65 % 1003,4 hPa 0,0 l/m 5,1 km/h (1 Bft) SO 132 0 min 0,000 mm 0,0 UV-I 61 W/m -0,9 C 5,1 C 8,0 km/h (2 Bft) 96,30 %
07.03.2016 16:04 5,1 C 64 % 1003,3 hPa 0,0 l/m 7,1 km/h (2 Bft) O 86 0 min 0,000 mm 0,0 UV-I 62 W/m -1,1 C 4,5 C 11,3 km/h (2 Bft) 100,00 %
07.03.2016 16:05 5,1 C 64 % 1003,3 hPa 0,0 l/m 4,6 km/h (1 Bft) O-SO 123 0 min 0,000 mm 0,0 UV-I 65 W/m -1,1 C 5,1 C 6,4 km/h (2 Bft) 96,15 %
07.03.2016 16:06 5,1 C 65 % 1003,4 hPa 0,0 l/m 9,9 km/h (2 Bft) O-SO 111 0 min 0,000 mm 0,0 UV-I 68 W/m -0,9 C 2,3 C 12,9 km/h (3 Bft) 100,00 %
07.03.2016 16:07 5,1 C 65 % 1003,4 hPa 0,0 l/m 6,8 km/h (2 Bft) SO 125 0 min 0,000 mm 0,0 UV-I 72 W/m -0,9 C 4,8 C 9,7 km/h (2 Bft) 95,83 %
07.03.2016 16:08 5,0 C 64 % 1003,3 hPa 0,0 l/m 6,8 km/h (2 Bft) SO 126 0 min 0,000 mm 0,0 UV-I 74 W/m -1,2 C 4,7 C 9,7 km/h (2 Bft) 96,15 %
07.03.2016 16:09 5,1 C 65 % 1003,3 hPa 0,0 l/m 8,1 km/h (2 Bft) O-SO 117 0 min 0,000 mm 0,0 UV-I 76 W/m -0,9 C 3,6 C 11,3 km/h (2 Bft) 100,00 %
07.03.2016 16:10 5,0 C 64 % 1003,4 hPa 0,0 l/m 4,4 km/h (1 Bft) SO 126 0 min 0,000 mm 0,0 UV-I 78 W/m -1,2 C 5,0 C 6,4 km/h (2 Bft) 96,67 %
07.03.2016 16:11 5,0 C 64 % 1003,3 hPa 0,0 l/m 5,6 km/h (1 Bft) SO 127 0 min 0,000 mm 0,0 UV-I 79 W/m -1,2 C 5,0 C 8,0 km/h (2 Bft) 100,00 %
07.03.2016 16:12 5,0 C 64 % 1003,3 hPa 0,0 l/m 5,5 km/h (1 Bft) SO 132 0 min 0,000 mm 0,0 UV-I 78 W/m -1,2 C 5,0 C 6,4 km/h (2 Bft) 96,15 %
07.03.2016 16:13 5,0 C 65 % 1003,3 hPa 0,0 l/m 3,6 km/h (1 Bft) SO 132 0 min 0,000 mm 0,0 UV-I 74 W/m -1,0 C 5,0 C 4,8 km/h (1 Bft) 100,00 %
07.03.2016 16:14 5,0 C 64 % 1003,3 hPa 0,0 l/m 3,8 km/h (1 Bft) SO 132 0 min 0,000 mm 0,0 UV-I 73 W/m -1,2 C 5,0 C 4,8 km/h (1 Bft) 95,65 %
07.03.2016 16:15 5,0 C 65 % 1003,3 hPa 0,0 l/m 5,4 km/h (1 Bft) O 101 0 min 0,000 mm 0,0 UV-I 68 W/m -1,0 C 5,0 C 6,4 km/h (2 Bft) 95,83 %
07.03.2016 16:16 5,0 C 65 % 1003,3 hPa 0,0 l/m 4,3 km/h (1 Bft) O-SO 103 0 min 0,000 mm 0,0 UV-I 67 W/m -1,0 C 5,0 C 6,4 km/h (2 Bft) 100,00 %
07.03.2016 16:17 5,0 C 65 % 1003,3 hPa 0,0 l/m 4,7 km/h (1 Bft) O 101 0 min 0,000 mm 0,0 UV-I 68 W/m -1,0 C 5,0 C 6,4 km/h (2 Bft) 100,00 %
07.03.2016 16:18 5,0 C 66 % 1003,3 hPa 0,0 l/m 5,0 km/h (1 Bft) O 101 0 min 0,000 mm 0,0 UV-I 70 W/m -0,8 C 5,0 C 6,4 km/h (2 Bft) 95,65 %
07.03.2016 16:19 5,0 C 64 % 1003,3 hPa 0,0 l/m 3,0 km/h (1 Bft) O 101 0 min 0,000 mm 0,0 UV-I 72 W/m -1,2 C 5,0 C 4,8 km/h (1 Bft) 100,00 %
07.03.2016 16:20 4,9 C 64 % 1003,3 hPa 0,0 l/m 2,8 km/h (1 Bft) O 101 0 min 0,000 mm 0,0 UV-I 75 W/m -1,3 C 4,9 C 4,8 km/h (1 Bft) 100,00 %
07.03.2016 16:21 4,9 C 64 % 1003,3 hPa 0,0 l/m 3,5 km/h (1 Bft) O 101 0 min 0,000 mm 0,0 UV-I 77 W/m -1,3 C 4,9 C 4,8 km/h (1 Bft) 100,00 %
07.03.2016 16:22 5,0 C 64 % 1003,3 hPa 0,0 l/m 4,8 km/h (1 Bft) O 101 0 min 0,000 mm 0,0 UV-I 77 W/m -1,2 C 5,0 C 6,4 km/h (2 Bft) 100,00 %
07.03.2016 16:23 4,9 C 64 % 1003,3 hPa 0,0 l/m 3,7 km/h (1 Bft) O 101 0 min 0,000 mm 0,0 UV-I 76 W/m -1,3 C 4,9 C 4,8 km/h (1 Bft) 100,00 %
07.03.2016 16:24 4,9 C 64 % 1003,3 hPa 0,0 l/m 2,7 km/h (1 Bft) O 101 0 min 0,000 mm 0,0 UV-I 74 W/m -1,3 C 4,9 C 3,2 km/h (1 Bft) 95,65 %
07.03.2016 16:25 4,9 C 64 % 1003,4 hPa 0,0 l/m 2,9 km/h (1 Bft) O 101 0 min 0,000 mm 0,0 UV-I 70 W/m -1,3 C 4,9 C 4,8 km/h (1 Bft) 100,00 %
07.03.2016 16:26 5,0 C 65 % 1003,4 hPa 0,0 l/m 1,7 km/h (1 Bft) O 101 0 min 0,000 mm 0,0 UV-I 68 W/m -1,0 C 5,0 C 3,2 km/h (1 Bft) 95,65 %
07.03.2016 16:27 5,0 C 66 % 1003,4 hPa 0,0 l/m 2,5 km/h (1 Bft) O 101 0 min 0,000 mm 0,0 UV-I 65 W/m -0,8 C 5,0 C 3,2 km/h (1 Bft) 100,00 %
07.03.2016 16:28 5,0 C 67 % 1003,4 hPa 0,0 l/m 2,7 km/h (1 Bft) O 101 0 min 0,000 mm 0,0 UV-I 64 W/m -0,6 C 5,0 C 3,2 km/h (1 Bft) 100,00 %
07.03.2016 16:29 5,1 C 66 % 1003,4 hPa 0,0 l/m 1,1 km/h (1 Bft) O 101 0 min 0,000 mm 0,0 UV-I 63 W/m -0,7 C 5,1 C 3,2 km/h (1 Bft) 100,00 %
07.03.2016 16:30 5,1 C 66 % 1003,3 hPa 0,0 l/m 0,5 km/h (0 Bft) O 101 0 min 0,000 mm 0,0 UV-I 62 W/m -0,7 C 5,1 C 1,6 km/h (1 Bft) 100,00 %
07.03.2016 16:31 5,1 C 66 % 1003,4 hPa 0,0 l/m 0,0 km/h (0 Bft) O 101 0 min 0,000 mm 0,0 UV-I 60 W/m -0,7 C 5,1 C 0,0 km/h (0 Bft) 95,65 %
07.03.2016 16:32 5,1 C 66 % 1003,4 hPa 0,0 l/m 0,2 km/h (0 Bft) O 101 0 min 0,000 mm 0,0 UV-I 57 W/m -0,7 C 5,1 C 1,6 km/h (1 Bft) 100,00 %
07.03.2016 16:33 5,1 C 66 % 1003,4 hPa 0,0 l/m 0,7 km/h (0 Bft) O 101 0 min 0,000 mm 0,0 UV-I 54 W/m -0,7 C 5,1 C 1,6 km/h (1 Bft) 100,00 %
07.03.2016 16:34 5,1 C 65 % 1003,4 hPa 0,0 l/m 1,4 km/h (1 Bft) O-SO 102 0 min 0,000 mm 0,0 UV-I 51 W/m -0,9 C 5,1 C 3,2 km/h (1 Bft) 100,00 %
07.03.2016 16:35 5,1 C 65 % 1003,4 hPa 0,0 l/m 3,2 km/h (1 Bft) O-SO 102 0 min 0,000 mm 0,0 UV-I 47 W/m -0,9 C 5,1 C 4,8 km/h (1 Bft) 100,00 %
07.03.2016 16:36 5,0 C 65 % 1003,5 hPa 0,0 l/m 3,1 km/h (1 Bft) O-SO 102 0 min 0,000 mm 0,0 UV-I 43 W/m -1,0 C 5,0 C 4,8 km/h (1 Bft) 100,00 %
07.03.2016 16:37 5,0 C 65 % 1003,4 hPa 0,0 l/m 3,4 km/h (1 Bft) O 100 0 min 0,000 mm 0,0 UV-I 39 W/m -1,0 C 5,0 C 4,8 km/h (1 Bft) 100,00 %
07.03.2016 16:38 5,0 C 66 % 1003,4 hPa 0,0 l/m 4,2 km/h (1 Bft) O-SO 117 0 min 0,000 mm 0,0 UV-I 36 W/m -0,8 C 5,0 C 4,8 km/h (1 Bft) 100,00 %
07.03.2016 16:39 5,0 C 66 % 1003,5 hPa 0,0 l/m 3,5 km/h (1 Bft) O-SO 117 0 min 0,000 mm 0,0 UV-I 34 W/m -0,8 C 5,0 C 4,8 km/h (1 Bft) 100,00 %
07.03.2016 16:40 5,0 C 66 % 1003,5 hPa 0,0 l/m 3,1 km/h (1 Bft) SO 141 0 min 0,000 mm 0,0 UV-I 32 W/m -0,8 C 5,0 C 4,8 km/h (1 Bft) 100,00 %
07.03.2016 16:41 4,9 C 64 % 1003,5 hPa 0,0 l/m 3,6 km/h (1 Bft) S-SO 148 0 min 0,000 mm 0,0 UV-I 32 W/m -1,3 C 4,9 C 6,4 km/h (2 Bft) 95,65 %
07.03.2016 16:42 4,9 C 64 % 1003,5 hPa 0,0 l/m 2,7 km/h (1 Bft) S-SO 148 0 min 0,000 mm 0,0 UV-I 30 W/m -1,3 C 4,9 C 4,8 km/h (1 Bft) 100,00 %
07.03.2016 16:43 4,9 C 64 % 1003,5 hPa 0,0 l/m 3,6 km/h (1 Bft) S-SO 148 0 min 0,000 mm 0,0 UV-I 30 W/m -1,3 C 4,9 C 6,4 km/h (2 Bft) 100,00 %
07.03.2016 16:44 4,9 C 64 % 1003,6 hPa 0,0 l/m 2,8 km/h (1 Bft) S-SO 148 0 min 0,000 mm 0,0 UV-I 30 W/m -1,3 C 4,9 C 4,8 km/h (1 Bft) 100,00 %
07.03.2016 16:45 4,9 C 64 % 1003,6 hPa 0,0 l/m 4,1 km/h (1 Bft) S-SO 148 0 min 0,000 mm 0,0 UV-I 30 W/m -1,3 C 4,9 C 4,8 km/h (1 Bft) 100,00 %
07.03.2016 16:46 4,9 C 65 % 1003,6 hPa 0,0 l/m 3,8 km/h (1 Bft) S-SO 148 0 min 0,000 mm 0,0 UV-I 31 W/m -1,1 C 4,9 C 4,8 km/h (1 Bft) 96,15 %
07.03.2016 16:47 4,9 C 66 % 1003,6 hPa 0,0 l/m 2,1 km/h (1 Bft) S-SO 148 0 min 0,000 mm 0,0 UV-I 32 W/m -0,9 C 4,9 C 3,2 km/h (1 Bft) 100,00 %
07.03.2016 16:48 4,9 C 66 % 1003,6 hPa 0,0 l/m 3,0 km/h (1 Bft) S-SO 148 0 min 0,000 mm 0,0 UV-I 32 W/m -0,9 C 4,9 C 4,8 km/h (1 Bft) 100,00 %
07.03.2016 16:49 4,9 C 65 % 1003,6 hPa 0,0 l/m 4,0 km/h (1 Bft) S-SO 148 0 min 0,000 mm 0,0 UV-I 33 W/m -1,1 C 4,9 C 4,8 km/h (1 Bft) 95,83 %
07.03.2016 16:50 4,8 C 66 % 1003,6 hPa 0,0 l/m 3,3 km/h (1 Bft) S-SO 148 0 min 0,000 mm 0,0 UV-I 33 W/m -1,0 C 4,8 C 4,8 km/h (1 Bft) 100,00 %
07.03.2016 16:51 4,8 C 66 % 1003,5 hPa 0,0 l/m 2,0 km/h (1 Bft) S-SO 148 0 min 0,000 mm 0,0 UV-I 32 W/m -1,0 C 4,8 C 3,2 km/h (1 Bft) 100,00 %
07.03.2016 16:52 4,8 C 67 % 1003,6 hPa 0,0 l/m 2,5 km/h (1 Bft) S-SO 148 0 min 0,000 mm 0,0 UV-I 31 W/m -0,8 C 4,8 C 3,2 km/h (1 Bft) 100,00 %
07.03.2016 16:53 4,8 C 66 % 1003,6 hPa 0,0 l/m 0,9 km/h (0 Bft) S-SO 148 0 min 0,000 mm 0,0 UV-I 30 W/m -1,0 C 4,8 C 3,2 km/h (1 Bft) 100,00 %
07.03.2016 16:54 4,8 C 65 % 1003,6 hPa 0,0 l/m 1,9 km/h (1 Bft) S-SO 148 0 min 0,000 mm 0,0 UV-I 28 W/m -1,2 C 4,8 C 3,2 km/h (1 Bft) 100,00 %
07.03.2016 16:55 4,8 C 66 % 1003,6 hPa 0,0 l/m 2,5 km/h (1 Bft) S-SO 148 0 min 0,000 mm 0,0 UV-I 28 W/m -1,0 C 4,8 C 3,2 km/h (1 Bft) 100,00 %
07.03.2016 16:56 4,8 C 65 % 1003,6 hPa 0,0 l/m 2,4 km/h (1 Bft) S-SO 148 0 min 0,000 mm 0,0 UV-I 28 W/m -1,2 C 4,8 C 3,2 km/h (1 Bft) 100,00 %
07.03.2016 16:57 4,8 C 64 % 1003,6 hPa 0,0 l/m 3,0 km/h (1 Bft) S-SO 148 0 min 0,000 mm 0,0 UV-I 27 W/m -1,4 C 4,8 C 4,8 km/h (1 Bft) 100,00 %
07.03.2016 16:58 4,8 C 65 % 1003,5 hPa 0,0 l/m 2,0 km/h (1 Bft) S-SO 148 0 min 0,000 mm 0,0 UV-I 26 W/m -1,2 C 4,8 C 3,2 km/h (1 Bft) 92,86 %
07.03.2016 16:59 4,7 C 65 % 1003,5 hPa 0,0 l/m 1,6 km/h (1 Bft) S-SO 148 0 min 0,000 mm 0,0 UV-I 25 W/m -1,3 C 4,7 C 3,2 km/h (1 Bft) 100,00 %
07.03.2016 17:00 4,7 C 65 % 1003,5 hPa 0,0 l/m 1,7 km/h (1 Bft) S-SO 148 0 min 0,000 mm 0,0 UV-I 25 W/m -1,3 C 4,7 C 3,2 km/h (1 Bft) 100,00 %
07.03.2016 17:01 4,7 C 65 % 1003,6 hPa 0,0 l/m 1,4 km/h (1 Bft) S-SO 148 0 min 0,026 mm 0,0 UV-I 23 W/m -1,3 C 4,7 C 1,6 km/h (1 Bft) 100,00 %
07.03.2016 17:02 4,7 C 65 % 1003,6 hPa 0,0 l/m 0,7 km/h (0 Bft) S-SO 148 0 min 0,000 mm 0,0 UV-I 23 W/m -1,3 C 4,7 C 1,6 km/h (1 Bft) 100,00 %
07.03.2016 17:03 4,7 C 65 % 1003,6 hPa 0,0 l/m 0,8 km/h (0 Bft) S-SO 148 0 min 0,000 mm 0,0 UV-I 23 W/m -1,3 C 4,7 C 1,6 km/h (1 Bft) 100,00 %
07.03.2016 17:04 4,7 C 65 % 1003,6 hPa 0,0 l/m 0,8 km/h (0 Bft) S-SO 148 0 min 0,000 mm 0,0 UV-I 23 W/m -1,3 C 4,7 C 1,6 km/h (1 Bft) 100,00 %
07.03.2016 17:05 4,7 C 65 % 1003,6 hPa 0,0 l/m 0,9 km/h (0 Bft) S-SO 148 0 min 0,000 mm 0,0 UV-I 22 W/m -1,3 C 4,7 C 1,6 km/h (1 Bft) 100,00 %
07.03.2016 17:06 4,7 C 65 % 1003,5 hPa 0,0 l/m 0,1 km/h (0 Bft) S-SO 148 0 min 0,000 mm 0,0 UV-I 21 W/m -1,3 C 4,7 C 1,6 km/h (1 Bft) 96,30 %
07.03.2016 17:07 4,7 C 65 % 1003,6 hPa 0,0 l/m 0,1 km/h (0 Bft) S-SO 148 0 min 0,000 mm 0,0 UV-I 20 W/m -1,3 C 4,7 C 1,6 km/h (1 Bft) 100,00 %
07.03.2016 17:08 4,7 C 65 % 1003,6 hPa 0,0 l/m 0,0 km/h (0 Bft) S-SO 148 0 min 0,000 mm 0,0 UV-I 19 W/m -1,3 C 4,7 C 0,0 km/h (0 Bft) 100,00 %
07.03.2016 17:09 4,7 C 66 % 1003,6 hPa 0,0 l/m 0,0 km/h (0 Bft) S-SO 148 0 min 0,000 mm 0,0 UV-I 19 W/m -1,1 C 4,7 C 0,0 km/h (0 Bft) 100,00 %
07.03.2016 17:10 4,8 C 65 % 1003,6 hPa 0,0 l/m 0,0 km/h (0 Bft) S-SO 148 0 min 0,000 mm 0,0 UV-I 17 W/m -1,2 C 4,8 C 0,0 km/h (0 Bft) 100,00 %
07.03.2016 17:11 4,7 C 64 % 1003,6 hPa 0,0 l/m 0,0 km/h (0 Bft) S-SO 148 0 min 0,000 mm 0,0 UV-I 14 W/m -1,5 C 4,7 C 0,0 km/h (0 Bft) 100,00 %
07.03.2016 17:12 4,8 C 65 % 1003,7 hPa 0,0 l/m 0,6 km/h (0 Bft) S-SO 148 0 min 0,000 mm 0,0 UV-I 14 W/m -1,2 C 4,8 C 1,6 km/h (1 Bft) 100,00 %
07.03.2016 17:13 4,7 C 65 % 1003,7 hPa 0,0 l/m 0,1 km/h (0 Bft) S-SO 148 0 min 0,000 mm 0,0 UV-I 12 W/m -1,3 C 4,7 C 1,6 km/h (1 Bft) 100,00 %
07.03.2016 17:14 4,8 C 65 % 1003,7 hPa 0,0 l/m 0,1 km/h (0 Bft) S-SO 148 0 min 0,000 mm 0,0 UV-I 12 W/m -1,2 C 4,8 C 1,6 km/h (1 Bft) 100,00 %
07.03.2016 17:15 4,7 C 65 % 1003,8 hPa 0,0 l/m 1,1 km/h (1 Bft) S-SO 148 0 min 0,000 mm 0,0 UV-I 11 W/m -1,3 C 4,7 C 3,2 km/h (1 Bft) 100,00 %
07.03.2016 17:16 4,8 C 65 % 1003,8 hPa 0,0 l/m 0,7 km/h (0 Bft) S-SO 148 0 min 0,000 mm 0,0 UV-I 11 W/m -1,2 C 4,8 C 3,2 km/h (1 Bft) 100,00 %
07.03.2016 17:17 4,7 C 65 % 1003,8 hPa 0,0 l/m 1,5 km/h (1 Bft) S-SO 148 0 min 0,000 mm 0,0 UV-I 11 W/m -1,3 C 4,7 C 3,2 km/h (1 Bft) 96,15 %
07.03.2016 17:18 4,7 C 65 % 1003,8 hPa 0,0 l/m 1,7 km/h (1 Bft) S-SO 148 0 min 0,000 mm 0,0 UV-I 11 W/m -1,3 C 4,7 C 3,2 km/h (1 Bft) 100,00 %
07.03.2016 17:19 4,7 C 65 % 1003,8 hPa 0,0 l/m 1,4 km/h (1 Bft) S-SO 148 0 min 0,000 mm 0,0 UV-I 11 W/m -1,3 C 4,7 C 3,2 km/h (1 Bft) 100,00 %
07.03.2016 17:20 4,7 C 66 % 1003,8 hPa 0,0 l/m 1,5 km/h (1 Bft) S-SO 148 0 min 0,000 mm 0,0 UV-I 11 W/m -1,1 C 4,7 C 1,6 km/h (1 Bft) 100,00 %
07.03.2016 17:21 4,7 C 67 % 1003,8 hPa 0,0 l/m 0,7 km/h (0 Bft) S-SO 148 0 min 0,000 mm 0,0 UV-I 11 W/m -0,9 C 4,7 C 1,6 km/h (1 Bft) 100,00 %
07.03.2016 17:22 4,7 C 67 % 1003,8 hPa 0,0 l/m 0,1 km/h (0 Bft) S-SO 148 0 min 0,000 mm 0,0 UV-I 11 W/m -0,9 C 4,7 C 1,6 km/h (1 Bft) 100,00 %
07.03.2016 17:23 4,6 C 67 % 1003,8 hPa 0,0 l/m 0,0 km/h (0 Bft) S-SO 148 0 min 0,000 mm 0,0 UV-I 11 W/m -1,0 C 4,6 C 0,0 km/h (0 Bft) 100,00 %
07.03.2016 17:24 4,6 C 67 % 1003,8 hPa 0,0 l/m 0,0 km/h (0 Bft) S-SO 148 0 min 0,000 mm 0,0 UV-I 11 W/m -1,0 C 4,6 C 0,0 km/h (0 Bft) 96,15 %
07.03.2016 17:25 4,6 C 69 % 1003,9 hPa 0,0 l/m 0,0 km/h (0 Bft) S-SO 148 0 min 0,000 mm 0,0 UV-I 9 W/m -0,6 C 4,6 C 0,0 km/h (0 Bft) 100,00 %
07.03.2016 17:26 4,6 C 71 % 1003,9 hPa 0,0 l/m 0,1 km/h (0 Bft) S-SO 148 0 min 0,000 mm 0,0 UV-I 9 W/m -0,2 C 4,6 C 1,6 km/h (1 Bft) 100,00 %
07.03.2016 17:27 4,5 C 71 % 1003,9 hPa 0,0 l/m 0,0 km/h (0 Bft) S-SO 148 0 min 0,000 mm 0,0 UV-I 9 W/m -0,3 C 4,5 C 0,0 km/h (0 Bft) 100,00 %
07.03.2016 17:28 4,5 C 70 % 1003,8 hPa 0,0 l/m 0,6 km/h (0 Bft) S-SO 148 0 min 0,000 mm 0,0 UV-I 9 W/m -0,5 C 4,5 C 1,6 km/h (1 Bft) 100,00 %
07.03.2016 17:29 4,4 C 69 % 1003,9 hPa 0,0 l/m 1,0 km/h (0 Bft) S-SO 148 0 min 0,000 mm 0,0 UV-I 7 W/m -0,8 C 4,4 C 1,6 km/h (1 Bft) 96,30 %
07.03.2016 17:30 4,4 C 69 % 1003,9 hPa 0,0 l/m 1,1 km/h (1 Bft) S-SO 148 0 min 0,000 mm 0,0 UV-I 7 W/m -0,8 C 4,4 C 1,6 km/h (1 Bft) 100,00 %
07.03.2016 17:31 4,4 C 67 % 1003,9 hPa 0,0 l/m 1,2 km/h (1 Bft) S-SO 148 0 min 0,000 mm 0,0 UV-I 7 W/m -1,2 C 4,4 C 1,6 km/h (1 Bft) 100,00 %
07.03.2016 17:32 4,4 C 68 % 1003,9 hPa 0,0 l/m 1,5 km/h (1 Bft) S-SO 148 0 min 0,000 mm 0,0 UV-I 7 W/m -1,0 C 4,4 C 1,6 km/h (1 Bft) 100,00 %
07.03.2016 17:33 4,4 C 70 % 1003,9 hPa 0,0 l/m 0,5 km/h (0 Bft) S-SO 148 0 min 0,000 mm 0,0 UV-I 6 W/m -0,6 C 4,4 C 1,6 km/h (1 Bft) 100,00 %
07.03.2016 17:34 4,4 C 69 % 1003,9 hPa 0,0 l/m 0,9 km/h (0 Bft) S-SO 148 0 min 0,000 mm 0,0 UV-I 5 W/m -0,8 C 4,4 C 1,6 km/h (1 Bft) 100,00 %
07.03.2016 17:35 4,4 C 69 % 1003,9 hPa 0,0 l/m 0,9 km/h (0 Bft) S-SO 148 0 min 0,000 mm 0,0 UV-I 5 W/m -0,8 C 4,4 C 1,6 km/h (1 Bft) 100,00 %
07.03.2016 17:36 4,4 C 69 % 1003,9 hPa 0,0 l/m 0,3 km/h (0 Bft) S-SO 148 0 min 0,000 mm 0,0 UV-I 5 W/m -0,8 C 4,4 C 1,6 km/h (1 Bft) 100,00 %
07.03.2016 17:37 4,4 C 69 % 1003,9 hPa 0,0 l/m 0,9 km/h (0 Bft) S-SO 148 0 min 0,000 mm 0,0 UV-I 5 W/m -0,8 C 4,4 C 1,6 km/h (1 Bft) 98,65 %
07.03.2016 17:38 4,3 C 70 % 1003,9 hPa 0,0 l/m 0,8 km/h (0 Bft) S-SO 148 0 min 0,000 mm 0,0 UV-I 5 W/m -0,7 C 4,3 C 1,6 km/h (1 Bft) 100,00 %
07.03.2016 17:39 4,3 C 70 % 1003,9 hPa 0,0 l/m 1,0 km/h (0 Bft) S-SO 148 0 min 0,000 mm 0,0 UV-I 5 W/m -0,7 C 4,3 C 1,6 km/h (1 Bft) 100,00 %
07.03.2016 17:40 4,3 C 72 % 1004,0 hPa 0,0 l/m 1,1 km/h (1 Bft) S-SO 148 0 min 0,000 mm 0,0 UV-I 1 W/m -0,3 C 4,3 C 1,6 km/h (1 Bft) 100,00 %
07.03.2016 17:41 4,3 C 70 % 1004,0 hPa 0,0 l/m 1,5 km/h (1 Bft) S-SO 148 0 min 0,000 mm 0,0 UV-I 0 W/m -0,7 C 4,3 C 1,6 km/h (1 Bft) 100,00 %
07.03.2016 17:42 4,2 C 71 % 1004,0 hPa 0,0 l/m 1,0 km/h (0 Bft) S-SO 148 0 min 0,000 mm 0,0 UV-I 0 W/m -0,6 C 4,2 C 1,6 km/h (1 Bft) 100,00 %
07.03.2016 17:43 4,2 C 71 % 1004,0 hPa 0,0 l/m 1,4 km/h (1 Bft) S-SO 148 0 min 0,000 mm 0,0 UV-I 0 W/m -0,6 C 4,2 C 1,6 km/h (1 Bft) 100,00 %
07.03.2016 17:44 4,2 C 71 % 1004,0 hPa 0,0 l/m 1,0 km/h (0 Bft) S-SO 148 0 min 0,000 mm 0,0 UV-I 0 W/m -0,6 C 4,2 C 1,6 km/h (1 Bft) 95,65 %
07.03.2016 17:45 4,2 C 71 % 1004,0 hPa 0,0 l/m 0,5 km/h (0 Bft) S-SO 148 0 min 0,000 mm 0,0 UV-I 0 W/m -0,6 C 4,2 C 1,6 km/h (1 Bft) 95,83 %
07.03.2016 17:46 4,2 C 70 % 1004,0 hPa 0,0 l/m 1,4 km/h (1 Bft) S-SO 148 0 min 0,000 mm 0,0 UV-I 0 W/m -0,8 C 4,2 C 1,6 km/h (1 Bft) 100,00 %
07.03.2016 17:47 4,1 C 70 % 1004,0 hPa 0,0 l/m 1,2 km/h (1 Bft) S-SO 148 0 min 0,000 mm 0,0 UV-I 0 W/m -0,9 C 4,1 C 1,6 km/h (1 Bft) 95,65 %
07.03.2016 17:48 4,1 C 71 % 1004,0 hPa 0,0 l/m 1,1 km/h (1 Bft) S-SO 148 0 min 0,000 mm 0,0 UV-I 0 W/m -0,7 C 4,1 C 1,6 km/h (1 Bft) 100,00 %
07.03.2016 17:49 4,1 C 71 % 1004,0 hPa 0,0 l/m 0,8 km/h (0 Bft) S-SO 148 0 min 0,000 mm 0,0 UV-I 0 W/m -0,7 C 4,1 C 1,6 km/h (1 Bft) 95,65 %
07.03.2016 17:50 4,1 C 71 % 1004,0 hPa 0,0 l/m 0,7 km/h (0 Bft) S-SO 148 0 min 0,000 mm 0,0 UV-I 0 W/m -0,7 C 4,1 C 1,6 km/h (1 Bft) 96,30 %
07.03.2016 17:51 4,1 C 72 % 1004,0 hPa 0,0 l/m 0,4 km/h (0 Bft) S-SO 148 0 min 0,000 mm 0,0 UV-I 0 W/m -0,5 C 4,1 C 1,6 km/h (1 Bft) 85,71 %
07.03.2016 17:52 4,1 C 73 % 1004,0 hPa 0,0 l/m 0,4 km/h (0 Bft) S-SO 148 0 min 0,000 mm 0,0 UV-I 0 W/m -0,3 C 4,1 C 1,6 km/h (1 Bft) 100,00 %
07.03.2016 17:53 4,0 C 72 % 1004,0 hPa 0,0 l/m 0,5 km/h (0 Bft) S-SO 148 0 min 0,000 mm 0,0 UV-I 0 W/m -0,6 C 4,0 C 1,6 km/h (1 Bft) 95,65 %
07.03.2016 17:54 4,0 C 71 % 1004,0 hPa 0,0 l/m 0,6 km/h (0 Bft) S-SO 148 0 min 0,000 mm 0,0 UV-I 0 W/m -0,8 C 4,0 C 1,6 km/h (1 Bft) 96,30 %
07.03.2016 17:55 3,9 C 71 % 1004,0 hPa 0,0 l/m 0,7 km/h (0 Bft) S-SO 148 0 min 0,000 mm 0,0 UV-I 0 W/m -0,9 C 3,9 C 1,6 km/h (1 Bft) 100,00 %
07.03.2016 17:56 3,9 C 71 % 1004,0 hPa 0,0 l/m 0,8 km/h (0 Bft) S-SO 148 0 min 0,000 mm 0,0 UV-I 0 W/m -0,9 C 3,9 C 1,6 km/h (1 Bft) 91,67 %
07.03.2016 17:57 3,9 C 71 % 1004,0 hPa 0,0 l/m 0,4 km/h (0 Bft) S-SO 148 0 min 0,000 mm 0,0 UV-I 0 W/m -0,9 C 3,9 C 1,6 km/h (1 Bft) 98,63 %
07.03.2016 17:58 3,9 C 72 % 1004,0 hPa 0,0 l/m 0,9 km/h (0 Bft) S-SO 148 0 min 0,000 mm 0,0 UV-I 0 W/m -0,7 C 3,9 C 1,6 km/h (1 Bft) 97,73 %
07.03.2016 17:59 3,9 C 72 % 1004,0 hPa 0,0 l/m 1,0 km/h (0 Bft) S-SO 148 0 min 0,000 mm 0,0 UV-I 0 W/m -0,7 C 3,9 C 1,6 km/h (1 Bft) 100,00 %
07.03.2016 18:00 3,9 C 71 % 1004,1 hPa 0,0 l/m 1,6 km/h (1 Bft) S-SO 148 0 min 0,000 mm 0,0 UV-I 0 W/m -0,9 C 3,9 C 1,6 km/h (1 Bft) 91,67 %
07.03.2016 18:01 3,9 C 72 % 1004,1 hPa 0,0 l/m 1,7 km/h (1 Bft) S-SO 148 0 min 0,000 mm 0,0 UV-I 0 W/m -0,7 C 3,9 C 3,2 km/h (1 Bft) 97,37 %
07.03.2016 18:02 3,9 C 72 % 1004,1 hPa 0,0 l/m 1,8 km/h (1 Bft) S-SO 148 0 min 0,000 mm 0,0 UV-I 0 W/m -0,7 C 3,9 C 3,2 km/h (1 Bft) 100,00 %
07.03.2016 18:03 3,9 C 72 % 1004,2 hPa 0,0 l/m 2,5 km/h (1 Bft) S-SO 148 0 min 0,000 mm 0,0 UV-I 0 W/m -0,7 C 3,9 C 3,2 km/h (1 Bft) 93,33 %
07.03.2016 18:04 3,9 C 72 % 1004,2 hPa 0,0 l/m 2,7 km/h (1 Bft) S-SO 148 0 min 0,000 mm 0,0 UV-I 0 W/m -0,7 C 3,9 C 3,2 km/h (1 Bft) 100,00 %
07.03.2016 18:05 3,9 C 72 % 1004,2 hPa 0,0 l/m 2,7 km/h (1 Bft) S-SO 148 0 min 0,000 mm 0,0 UV-I 0 W/m -0,7 C 3,9 C 3,2 km/h (1 Bft) 91,30 %
07.03.2016 18:06 3,9 C 73 % 1004,2 hPa 0,0 l/m 3,1 km/h (1 Bft) S-SO 148 0 min 0,000 mm 0,0 UV-I 0 W/m -0,5 C 3,9 C 3,2 km/h (1 Bft) 100,00 %
07.03.2016 18:07 3,9 C 73 % 1004,2 hPa 0,0 l/m 2,3 km/h (1 Bft) S-SO 148 0 min 0,000 mm 0,0 UV-I 0 W/m -0,5 C 3,9 C 3,2 km/h (1 Bft) 96,30 %
07.03.2016 18:08 3,9 C 72 % 1004,2 hPa 0,0 l/m 2,3 km/h (1 Bft) S-SO 148 0 min 0,000 mm 0,0 UV-I 0 W/m -0,7 C 3,9 C 3,2 km/h (1 Bft) 96,15 %
07.03.2016 18:09 3,8 C 73 % 1004,3 hPa 0,0 l/m 2,1 km/h (1 Bft) S-SO 148 0 min 0,000 mm 0,0 UV-I 0 W/m -0,6 C 3,8 C 3,2 km/h (1 Bft) 100,00 %
07.03.2016 18:10 3,8 C 74 % 1004,2 hPa 0,0 l/m 1,6 km/h (1 Bft) S-SO 148 0 min 0,000 mm 0,0 UV-I 0 W/m -0,4 C 3,8 C 3,2 km/h (1 Bft) 92,31 %
07.03.2016 18:11 3,8 C 75 % 1004,2 hPa 0,0 l/m 1,8 km/h (1 Bft) S-SO 148 0 min 0,000 mm 0,0 UV-I 0 W/m -0,2 C 3,8 C 3,2 km/h (1 Bft) 100,00 %
07.03.2016 18:12 3,8 C 76 % 1004,2 hPa 0,0 l/m 2,5 km/h (1 Bft) S-SO 148 0 min 0,000 mm 0,0 UV-I 0 W/m -0,0 C 3,8 C 3,2 km/h (1 Bft) 96,15 %
07.03.2016 18:13 3,8 C 75 % 1004,2 hPa 0,0 l/m 2,5 km/h (1 Bft) S-SO 148 0 min 0,000 mm 0,0 UV-I 0 W/m -0,2 C 3,8 C 3,2 km/h (1 Bft) 100,00 %
07.03.2016 18:14 3,8 C 76 % 1004,3 hPa 0,0 l/m 2,0 km/h (1 Bft) S-SO 148 0 min 0,000 mm 0,0 UV-I 0 W/m -0,0 C 3,8 C 3,2 km/h (1 Bft) 95,65 %
07.03.2016 18:15 3,8 C 76 % 1004,3 hPa 0,0 l/m 2,9 km/h (1 Bft) S-SO 148 0 min 0,000 mm 0,0 UV-I 0 W/m -0,0 C 3,8 C 4,8 km/h (1 Bft) 100,00 %
07.03.2016 18:16 3,7 C 76 % 1004,3 hPa 0,0 l/m 3,1 km/h (1 Bft) S-SO 148 0 min 0,000 mm 0,0 UV-I 0 W/m -0,1 C 3,7 C 4,8 km/h (1 Bft) 95,65 %
07.03.2016 18:17 3,7 C 75 % 1004,3 hPa 0,0 l/m 2,5 km/h (1 Bft) S-SO 148 0 min 0,000 mm 0,0 UV-I 0 W/m -0,3 C 3,7 C 3,2 km/h (1 Bft) 100,00 %
07.03.2016 18:18 3,8 C 75 % 1004,3 hPa 0,0 l/m 1,4 km/h (1 Bft) S-SO 148 0 min 0,000 mm 0,0 UV-I 0 W/m -0,2 C 3,8 C 1,6 km/h (1 Bft) 96,15 %
07.03.2016 18:19 3,7 C 75 % 1004,4 hPa 0,0 l/m 1,9 km/h (1 Bft) S-SO 148 0 min 0,000 mm 0,0 UV-I 0 W/m -0,3 C 3,7 C 3,2 km/h (1 Bft) 95,83 %
07.03.2016 18:20 3,8 C 76 % 1004,3 hPa 0,0 l/m 2,6 km/h (1 Bft) S-SO 148 0 min 0,000 mm 0,0 UV-I 0 W/m -0,0 C 3,8 C 3,2 km/h (1 Bft) 95,65 %
07.03.2016 18:21 3,8 C 77 % 1004,4 hPa 0,0 l/m 1,9 km/h (1 Bft) S-SO 148 0 min 0,000 mm 0,0 UV-I 0 W/m 0,1 C 3,8 C 3,2 km/h (1 Bft) 100,00 %
07.03.2016 18:22 3,8 C 78 % 1004,3 hPa 0,0 l/m 2,4 km/h (1 Bft) S-SO 148 0 min 0,000 mm 0,0 UV-I 0 W/m 0,3 C 3,8 C 4,8 km/h (1 Bft) 100,00 %
07.03.2016 18:23 3,8 C 78 % 1004,4 hPa 0,0 l/m 3,3 km/h (1 Bft) S-SO 148 0 min 0,000 mm 0,0 UV-I 0 W/m 0,3 C 3,8 C 4,8 km/h (1 Bft) 95,83 %
07.03.2016 18:24 3,7 C 78 % 1004,4 hPa 0,0 l/m 3,0 km/h (1 Bft) S-SO 148 0 min 0,000 mm 0,0 UV-I 0 W/m 0,2 C 3,7 C 4,8 km/h (1 Bft) 100,00 %
07.03.2016 18:25 3,7 C 77 % 1004,4 hPa 0,0 l/m 3,9 km/h (1 Bft) S-SO 148 0 min 0,000 mm 0,0 UV-I 0 W/m 0,1 C 3,7 C 4,8 km/h (1 Bft) 100,00 %
07.03.2016 18:26 3,7 C 79 % 1004,4 hPa 0,0 l/m 2,6 km/h (1 Bft) S-SO 148 0 min 0,000 mm 0,0 UV-I 0 W/m 0,4 C 3,7 C 3,2 km/h (1 Bft) 100,00 %
07.03.2016 18:27 3,7 C 80 % 1004,4 hPa 0,0 l/m 3,7 km/h (1 Bft) S-SO 148 0 min 0,000 mm 0,0 UV-I 0 W/m 0,6 C 3,7 C 4,8 km/h (1 Bft) 100,00 %
07.03.2016 18:28 3,7 C 79 % 1004,4 hPa 0,0 l/m 3,5 km/h (1 Bft) S-SO 148 0 min 0,000 mm 0,0 UV-I 0 W/m 0,4 C 3,7 C 4,8 km/h (1 Bft) 100,00 %
07.03.2016 18:29 3,7 C 77 % 1004,4 hPa 0,0 l/m 3,2 km/h (1 Bft) S-SO 148 0 min 0,000 mm 0,0 UV-I 0 W/m 0,1 C 3,7 C 4,8 km/h (1 Bft) 100,00 %
07.03.2016 18:30 3,7 C 75 % 1004,4 hPa 0,0 l/m 2,9 km/h (1 Bft) S-SO 148 0 min 0,000 mm 0,0 UV-I 0 W/m -0,3 C 3,7 C 3,2 km/h (1 Bft) 100,00 %
07.03.2016 18:31 3,8 C 75 % 1004,4 hPa 0,0 l/m 2,1 km/h (1 Bft) S-SO 148 0 min 0,000 mm 0,0 UV-I 0 W/m -0,2 C 3,8 C 3,2 km/h (1 Bft) 100,00 %
07.03.2016 18:32 3,8 C 73 % 1004,5 hPa 0,0 l/m 2,5 km/h (1 Bft) S-SO 148 0 min 0,000 mm 0,0 UV-I 0 W/m -0,6 C 3,8 C 3,2 km/h (1 Bft) 91,67 %
07.03.2016 18:33 3,8 C 74 % 1004,5 hPa 0,0 l/m 3,0 km/h (1 Bft) S-SO 148 0 min 0,000 mm 0,0 UV-I 0 W/m -0,4 C 3,8 C 4,8 km/h (1 Bft) 100,00 %
07.03.2016 18:34 3,8 C 76 % 1004,5 hPa 0,0 l/m 3,8 km/h (1 Bft) S-SO 148 0 min 0,000 mm 0,0 UV-I 0 W/m -0,0 C 3,8 C 4,8 km/h (1 Bft) 100,00 %
07.03.2016 18:35 3,8 C 74 % 1004,5 hPa 0,0 l/m 3,2 km/h (1 Bft) S-SO 148 0 min 0,000 mm 0,0 UV-I 0 W/m -0,4 C 3,8 C 4,8 km/h (1 Bft) 100,00 %
07.03.2016 18:36 3,9 C 73 % 1004,5 hPa 0,0 l/m 4,2 km/h (1 Bft) SO 146 0 min 0,000 mm 0,0 UV-I 0 W/m -0,5 C 3,9 C 8,0 km/h (2 Bft) 100,00 %
07.03.2016 18:37 3,9 C 72 % 1004,5 hPa 0,0 l/m 5,0 km/h (1 Bft) O-SO 119 0 min 0,000 mm 0,0 UV-I 0 W/m -0,7 C 3,9 C 8,0 km/h (2 Bft) 95,65 %
07.03.2016 18:38 4,0 C 71 % 1004,5 hPa 0,0 l/m 5,4 km/h (1 Bft) O-SO 119 0 min 0,000 mm 0,0 UV-I 0 W/m -0,8 C 4,0 C 6,4 km/h (2 Bft) 100,00 %
07.03.2016 18:39 4,1 C 72 % 1004,5 hPa 0,0 l/m 3,9 km/h (1 Bft) O 101 0 min 0,000 mm 0,0 UV-I 0 W/m -0,5 C 4,1 C 4,8 km/h (1 Bft) 100,00 %
07.03.2016 18:40 4,1 C 72 % 1004,5 hPa 0,0 l/m 4,0 km/h (1 Bft) O-SO 111 0 min 0,000 mm 0,0 UV-I 0 W/m -0,5 C 4,1 C 4,8 km/h (1 Bft) 100,00 %
07.03.2016 18:41 4,1 C 71 % 1004,6 hPa 0,0 l/m 5,5 km/h (1 Bft) O-SO 108 0 min 0,000 mm 0,0 UV-I 0 W/m -0,7 C 4,1 C 9,7 km/h (2 Bft) 100,00 %
07.03.2016 18:42 4,0 C 73 % 1004,6 hPa 0,0 l/m 4,8 km/h (1 Bft) SO 131 0 min 0,000 mm 0,0 UV-I 0 W/m -0,4 C 4,0 C 6,4 km/h (2 Bft) 100,00 %
07.03.2016 18:43 4,1 C 73 % 1004,6 hPa 0,0 l/m 5,5 km/h (1 Bft) SO 126 0 min 0,000 mm 0,0 UV-I 0 W/m -0,3 C 4,1 C 6,4 km/h (2 Bft) 100,00 %
07.03.2016 18:44 4,0 C 74 % 1004,6 hPa 0,0 l/m 5,0 km/h (1 Bft) SO 133 0 min 0,000 mm 0,0 UV-I 0 W/m -0,2 C 4,0 C 6,4 km/h (2 Bft) 100,00 %
07.03.2016 18:45 4,0 C 73 % 1004,6 hPa 0,0 l/m 5,0 km/h (1 Bft) SO 133 0 min 0,000 mm 0,0 UV-I 0 W/m -0,4 C 4,0 C 6,4 km/h (2 Bft) 100,00 %
07.03.2016 18:46 4,0 C 73 % 1004,6 hPa 0,0 l/m 6,4 km/h (2 Bft) O-SO 121 0 min 0,000 mm 0,0 UV-I 0 W/m -0,4 C 4,0 C 8,0 km/h (2 Bft) 100,00 %
07.03.2016 18:47 3,9 C 73 % 1004,6 hPa 0,0 l/m 3,1 km/h (1 Bft) S-SO 163 0 min 0,000 mm 0,0 UV-I 0 W/m -0,5 C 3,9 C 4,8 km/h (1 Bft) 100,00 %
07.03.2016 18:48 3,9 C 72 % 1004,7 hPa 0,0 l/m 2,7 km/h (1 Bft) S-SO 163 0 min 0,000 mm 0,0 UV-I 0 W/m -0,7 C 3,9 C 6,4 km/h (2 Bft) 100,00 %
07.03.2016 18:49 3,9 C 72 % 1004,7 hPa 0,0 l/m 2,7 km/h (1 Bft) S-SO 163 0 min 0,000 mm 0,0 UV-I 0 W/m -0,7 C 3,9 C 3,2 km/h (1 Bft) 100,00 %
07.03.2016 18:50 3,9 C 72 % 1004,7 hPa 0,0 l/m 2,2 km/h (1 Bft) S-SO 165 0 min 0,000 mm 0,0 UV-I 0 W/m -0,7 C 3,9 C 3,2 km/h (1 Bft) 100,00 %
07.03.2016 18:51 3,9 C 73 % 1004,7 hPa 0,0 l/m 4,5 km/h (1 Bft) S-SO 161 0 min 0,000 mm 0,0 UV-I 0 W/m -0,5 C 3,9 C 9,7 km/h (2 Bft) 100,00 %
07.03.2016 18:52 3,9 C 73 % 1004,7 hPa 0,0 l/m 6,8 km/h (2 Bft) S-SO 155 0 min 0,000 mm 0,0 UV-I 0 W/m -0,5 C 3,5 C 9,7 km/h (2 Bft) 100,00 %
07.03.2016 18:53 3,8 C 74 % 1004,8 hPa 0,0 l/m 5,4 km/h (1 Bft) O-SO 117 0 min 0,000 mm 0,0 UV-I 0 W/m -0,4 C 3,8 C 6,4 km/h (2 Bft) 100,00 %
07.03.2016 18:54 3,8 C 74 % 1004,8 hPa 0,0 l/m 4,1 km/h (1 Bft) SO 130 0 min 0,000 mm 0,0 UV-I 0 W/m -0,4 C 3,8 C 6,4 km/h (2 Bft) 100,00 %
07.03.2016 18:55 3,8 C 76 % 1004,8 hPa 0,0 l/m 2,9 km/h (1 Bft) O-SO 120 0 min 0,000 mm 0,0 UV-I 0 W/m -0,0 C 3,8 C 4,8 km/h (1 Bft) 100,00 %
07.03.2016 18:56 3,8 C 76 % 1004,8 hPa 0,0 l/m 1,9 km/h (1 Bft) SO 144 0 min 0,000 mm 0,0 UV-I 0 W/m -0,0 C 3,8 C 4,8 km/h (1 Bft) 95,65 %
07.03.2016 18:57 3,7 C 76 % 1004,8 hPa 0,0 l/m 1,9 km/h (1 Bft) SO 145 0 min 0,000 mm 0,0 UV-I 0 W/m -0,1 C 3,7 C 4,8 km/h (1 Bft) 95,83 %
07.03.2016 18:58 3,7 C 77 % 1004,8 hPa 0,0 l/m 3,3 km/h (1 Bft) S-SO 165 0 min 0,000 mm 0,0 UV-I 0 W/m 0,1 C 3,7 C 6,4 km/h (2 Bft) 100,00 %
07.03.2016 18:59 3,6 C 77 % 1004,8 hPa 0,0 l/m 3,5 km/h (1 Bft) S-SO 163 0 min 0,000 mm 0,0 UV-I 0 W/m -0,0 C 3,6 C 6,4 km/h (2 Bft) 100,00 %
07.03.2016 19:00 3,6 C 77 % 1004,8 hPa 0,0 l/m 3,5 km/h (1 Bft) S-SO 163 0 min 0,000 mm 0,0 UV-I 0 W/m -0,0 C 3,6 C 6,4 km/h (2 Bft) 100,00 %
07.03.2016 19:01 3,5 C 78 % 1004,8 hPa 0,0 l/m 4,7 km/h (1 Bft) S 184 0 min 0,000 mm 0,0 UV-I 0 W/m 0,0 C 3,5 C 8,0 km/h (2 Bft) 95,65 %
07.03.2016 19:02 3,4 C 78 % 1004,8 hPa 0,0 l/m 5,8 km/h (2 Bft) S 176 0 min 0,000 mm 0,0 UV-I 0 W/m -0,1 C 3,4 C 8,0 km/h (2 Bft) 100,00 %
07.03.2016 19:03 3,4 C 79 % 1004,9 hPa 0,0 l/m 7,8 km/h (2 Bft) S 187 0 min 0,000 mm 0,0 UV-I 0 W/m 0,1 C 2,1 C 11,3 km/h (2 Bft) 100,00 %
07.03.2016 19:04 3,3 C 78 % 1004,8 hPa 0,0 l/m 4,6 km/h (1 Bft) S-SW 213 0 min 0,000 mm 0,0 UV-I 0 W/m -0,2 C 3,3 C 6,4 km/h (2 Bft) 100,00 %
07.03.2016 19:05 3,3 C 79 % 1004,8 hPa 0,0 l/m 2,6 km/h (1 Bft) S-SW 208 0 min 0,000 mm 0,0 UV-I 0 W/m 0,0 C 3,3 C 4,8 km/h (1 Bft) 100,00 %
07.03.2016 19:06 3,3 C 80 % 1004,8 hPa 0,0 l/m 4,5 km/h (1 Bft) SW 229 0 min 0,000 mm 0,0 UV-I 0 W/m 0,2 C 3,3 C 8,0 km/h (2 Bft) 100,00 %
07.03.2016 19:07 3,2 C 80 % 1004,8 hPa 0,0 l/m 8,9 km/h (2 Bft) S-SW 211 0 min 0,000 mm 0,0 UV-I 0 W/m 0,1 C 0,9 C 11,3 km/h (2 Bft) 100,00 %
07.03.2016 19:08 3,1 C 80 % 1004,8 hPa 0,0 l/m 7,3 km/h (2 Bft) S-SW 209 0 min 0,000 mm 0,0 UV-I 0 W/m -0,0 C 2,2 C 9,7 km/h (2 Bft) 100,00 %
07.03.2016 19:09 3,1 C 80 % 1004,9 hPa 0,0 l/m 4,3 km/h (1 Bft) SW 214 0 min 0,000 mm 0,0 UV-I 0 W/m -0,0 C 3,1 C 4,8 km/h (1 Bft) 100,00 %
07.03.2016 19:10 3,1 C 81 % 1004,9 hPa 0,0 l/m 4,3 km/h (1 Bft) SW 223 0 min 0,000 mm 0,0 UV-I 0 W/m 0,2 C 3,1 C 4,8 km/h (1 Bft) 95,83 %
07.03.2016 19:11 3,1 C 81 % 1004,8 hPa 0,0 l/m 4,1 km/h (1 Bft) W-SW 256 0 min 0,000 mm 0,0 UV-I 0 W/m 0,2 C 3,1 C 4,8 km/h (1 Bft) 100,00 %
07.03.2016 19:12 3,0 C 82 % 1004,8 hPa 0,0 l/m 3,8 km/h (1 Bft) W 265 0 min 0,000 mm 0,0 UV-I 0 W/m 0,2 C 3,0 C 4,8 km/h (1 Bft) 95,83 %
07.03.2016 19:13 2,9 C 82 % 1004,8 hPa 0,0 l/m 4,0 km/h (1 Bft) W 265 0 min 0,000 mm 0,0 UV-I 0 W/m 0,1 C 2,9 C 4,8 km/h (1 Bft) 100,00 %
07.03.2016 19:14 2,9 C 82 % 1004,9 hPa 0,0 l/m 3,9 km/h (1 Bft) W 265 0 min 0,000 mm 0,0 UV-I 0 W/m 0,1 C 2,9 C 4,8 km/h (1 Bft) 100,00 %
07.03.2016 19:15 2,9 C 83 % 1004,8 hPa 0,0 l/m 3,9 km/h (1 Bft) W-SW 254 0 min 0,000 mm 0,0 UV-I 0 W/m 0,3 C 2,9 C 4,8 km/h (1 Bft) 100,00 %
07.03.2016 19:16 2,8 C 83 % 1004,9 hPa 0,0 l/m 2,7 km/h (1 Bft) W-SW 254 0 min 0,000 mm 0,0 UV-I 0 W/m 0,2 C 2,8 C 4,8 km/h (1 Bft) 100,00 %
07.03.2016 19:17 2,8 C 84 % 1004,9 hPa 0,0 l/m 3,7 km/h (1 Bft) W-SW 248 0 min 0,000 mm 0,0 UV-I 0 W/m 0,4 C 2,8 C 6,4 km/h (2 Bft) 96,15 %
07.03.2016 19:18 2,8 C 84 % 1004,9 hPa 0,0 l/m 3,4 km/h (1 Bft) W-SW 248 0 min 0,000 mm 0,0 UV-I 0 W/m 0,4 C 2,8 C 4,8 km/h (1 Bft) 100,00 %
07.03.2016 19:19 2,7 C 84 % 1004,9 hPa 0,0 l/m 1,9 km/h (1 Bft) W-SW 248 0 min 0,000 mm 0,0 UV-I 0 W/m 0,3 C 2,7 C 3,2 km/h (1 Bft) 100,00 %
07.03.2016 19:20 2,7 C 84 % 1004,9 hPa 0,0 l/m 2,1 km/h (1 Bft) W-SW 247 0 min 0,000 mm 0,0 UV-I 0 W/m 0,3 C 2,7 C 4,8 km/h (1 Bft) 100,00 %
07.03.2016 19:21 2,7 C 84 % 1004,9 hPa 0,0 l/m 0,9 km/h (0 Bft) SW 215 0 min 0,000 mm 0,0 UV-I 0 W/m 0,3 C 2,7 C 1,6 km/h (1 Bft) 100,00 %
07.03.2016 19:22 2,7 C 84 % 1004,9 hPa 0,0 l/m 1,2 km/h (1 Bft) SW 215 0 min 0,000 mm 0,0 UV-I 0 W/m 0,3 C 2,7 C 3,2 km/h (1 Bft) 95,65 %
07.03.2016 19:23 2,7 C 83 % 1004,9 hPa 0,0 l/m 1,6 km/h (1 Bft) SW 215 0 min 0,000 mm 0,0 UV-I 0 W/m 0,1 C 2,7 C 3,2 km/h (1 Bft) 100,00 %
07.03.2016 19:24 2,7 C 83 % 1004,9 hPa 0,0 l/m 0,0 km/h (0 Bft) SW 215 0 min 0,000 mm 0,0 UV-I 0 W/m 0,1 C 2,7 C 0,0 km/h (0 Bft) 91,30 %
07.03.2016 19:25 2,6 C 84 % 1004,9 hPa 0,0 l/m 0,0 km/h (0 Bft) SW 215 0 min 0,000 mm 0,0 UV-I 0 W/m 0,2 C 2,6 C 0,0 km/h (0 Bft) 100,00 %
07.03.2016 19:26 2,6 C 84 % 1004,9 hPa 0,0 l/m 0,0 km/h (0 Bft) SW 215 0 min 0,000 mm 0,0 UV-I 0 W/m 0,2 C 2,6 C 0,0 km/h (0 Bft) 100,00 %
07.03.2016 19:27 2,6 C 84 % 1004,9 hPa 0,0 l/m 0,2 km/h (0 Bft) SW 215 0 min 0,000 mm 0,0 UV-I 0 W/m 0,2 C 2,6 C 1,6 km/h (1 Bft) 95,83 %
07.03.2016 19:28 2,5 C 85 % 1004,9 hPa 0,0 l/m 1,0 km/h (0 Bft) SW 214 0 min 0,000 mm 0,0 UV-I 0 W/m 0,2 C 2,5 C 1,6 km/h (1 Bft) 100,00 %
07.03.2016 19:29 2,5 C 85 % 1004,9 hPa 0,0 l/m 1,8 km/h (1 Bft) S 169 0 min 0,000 mm 0,0 UV-I 0 W/m 0,2 C 2,5 C 3,2 km/h (1 Bft) 100,00 %
07.03.2016 19:30 2,4 C 85 % 1005,0 hPa 0,0 l/m 0,9 km/h (0 Bft) S 169 0 min 0,000 mm 0,0 UV-I 0 W/m 0,1 C 2,4 C 3,2 km/h (1 Bft) 100,00 %
07.03.2016 19:31 2,4 C 85 % 1004,9 hPa 0,0 l/m 3,3 km/h (1 Bft) S 169 0 min 0,000 mm 0,0 UV-I 0 W/m 0,1 C 2,4 C 6,4 km/h (2 Bft) 100,00 %
07.03.2016 19:32 2,4 C 86 % 1004,9 hPa 0,2 l/m 3,5 km/h (1 Bft) S 169 0 min 0,000 mm 0,0 UV-I 0 W/m 0,3 C 2,4 C 6,4 km/h (2 Bft) 100,00 %
07.03.2016 19:33 2,4 C 86 % 1005,0 hPa 0,0 l/m 1,9 km/h (1 Bft) S 169 0 min 0,000 mm 0,0 UV-I 0 W/m 0,3 C 2,4 C 3,2 km/h (1 Bft) 100,00 %
07.03.2016 19:34 2,3 C 86 % 1005,0 hPa 0,0 l/m 1,4 km/h (1 Bft) S 169 0 min 0,000 mm 0,0 UV-I 0 W/m 0,2 C 2,3 C 3,2 km/h (1 Bft) 100,00 %
07.03.2016 19:35 2,3 C 86 % 1005,0 hPa 0,0 l/m 1,0 km/h (0 Bft) S 169 0 min 0,000 mm 0,0 UV-I 0 W/m 0,2 C 2,3 C 3,2 km/h (1 Bft) 100,00 %
07.03.2016 19:36 2,3 C 87 % 1005,0 hPa 0,0 l/m 0,6 km/h (0 Bft) S 169 0 min 0,000 mm 0,0 UV-I 0 W/m 0,4 C 2,3 C 1,6 km/h (1 Bft) 100,00 %
07.03.2016 19:37 2,3 C 87 % 1005,0 hPa 0,0 l/m 0,8 km/h (0 Bft) S 169 0 min 0,000 mm 0,0 UV-I 0 W/m 0,4 C 2,3 C 3,2 km/h (1 Bft) 100,00 %
07.03.2016 19:38 2,3 C 87 % 1005,0 hPa 0,0 l/m 0,7 km/h (0 Bft) S 169 0 min 0,000 mm 0,0 UV-I 0 W/m 0,4 C 2,3 C 1,6 km/h (1 Bft) 100,00 %
07.03.2016 19:39 2,3 C 87 % 1005,0 hPa 0,0 l/m 1,4 km/h (1 Bft) S 169 0 min 0,000 mm 0,0 UV-I 0 W/m 0,4 C 2,3 C 6,4 km/h (2 Bft) 100,00 %
07.03.2016 19:40 2,3 C 87 % 1005,0 hPa 0,0 l/m 1,0 km/h (0 Bft) S 169 0 min 0,000 mm 0,0 UV-I 0 W/m 0,4 C 2,3 C 3,2 km/h (1 Bft) 100,00 %
07.03.2016 19:41 2,2 C 87 % 1005,0 hPa 0,0 l/m 1,1 km/h (1 Bft) S 169 0 min 0,000 mm 0,0 UV-I 0 W/m 0,3 C 2,2 C 1,6 km/h (1 Bft) 100,00 %
07.03.2016 19:42 2,2 C 88 % 1005,0 hPa 0,0 l/m 1,6 km/h (1 Bft) S 169 0 min 0,000 mm 0,0 UV-I 0 W/m 0,4 C 2,2 C 3,2 km/h (1 Bft) 92,59 %
07.03.2016 19:43 2,2 C 88 % 1005,0 hPa 0,0 l/m 1,3 km/h (1 Bft) S 169 0 min 0,000 mm 0,0 UV-I 0 W/m 0,4 C 2,2 C 3,2 km/h (1 Bft) 100,00 %
07.03.2016 19:44 2,2 C 88 % 1005,0 hPa 0,0 l/m 2,1 km/h (1 Bft) S 169 0 min 0,000 mm 0,0 UV-I 0 W/m 0,4 C 2,2 C 3,2 km/h (1 Bft) 100,00 %
07.03.2016 19:45 2,2 C 88 % 1005,0 hPa 0,0 l/m 2,8 km/h (1 Bft) S 169 0 min 0,000 mm 0,0 UV-I 0 W/m 0,4 C 2,2 C 6,4 km/h (2 Bft) 100,00 %
07.03.2016 19:46 2,1 C 88 % 1005,0 hPa 0,0 l/m 2,3 km/h (1 Bft) S 169 0 min 0,000 mm 0,0 UV-I 0 W/m 0,3 C 2,1 C 3,2 km/h (1 Bft) 100,00 %
07.03.2016 19:47 2,1 C 88 % 1005,0 hPa 0,0 l/m 1,5 km/h (1 Bft) S 169 0 min 0,000 mm 0,0 UV-I 0 W/m 0,3 C 2,1 C 1,6 km/h (1 Bft) 100,00 %
07.03.2016 19:48 2,1 C 88 % 1004,9 hPa 0,0 l/m 1,1 km/h (1 Bft) S 169 0 min 0,000 mm 0,0 UV-I 0 W/m 0,3 C 2,1 C 1,6 km/h (1 Bft) 100,00 %
07.03.2016 19:49 2,1 C 89 % 1005,0 hPa 0,0 l/m 0,6 km/h (0 Bft) S 169 0 min 0,000 mm 0,0 UV-I 0 W/m 0,5 C 2,1 C 1,6 km/h (1 Bft) 100,00 %
07.03.2016 19:50 2,0 C 89 % 1005,0 hPa 0,0 l/m 0,7 km/h (0 Bft) S 169 0 min 0,000 mm 0,0 UV-I 0 W/m 0,4 C 2,0 C 1,6 km/h (1 Bft) 100,00 %
07.03.2016 19:51 2,0 C 89 % 1005,0 hPa 0,0 l/m 0,9 km/h (0 Bft) S 169 0 min 0,000 mm 0,0 UV-I 0 W/m 0,4 C 2,0 C 1,6 km/h (1 Bft) 96,55 %
07.03.2016 19:52 2,0 C 89 % 1005,0 hPa 0,0 l/m 0,0 km/h (0 Bft) S 169 0 min 0,000 mm 0,0 UV-I 0 W/m 0,4 C 2,0 C 0,0 km/h (0 Bft) 100,00 %
07.03.2016 19:53 1,9 C 89 % 1005,0 hPa 0,0 l/m 0,2 km/h (0 Bft) S 169 0 min 0,000 mm 0,0 UV-I 0 W/m 0,3 C 1,9 C 1,6 km/h (1 Bft) 96,15 %
07.03.2016 19:54 1,9 C 89 % 1005,0 hPa 0,0 l/m 0,1 km/h (0 Bft) S 169 0 min 0,000 mm 0,0 UV-I 0 W/m 0,3 C 1,9 C 1,6 km/h (1 Bft) 100,00 %
07.03.2016 19:55 1,9 C 89 % 1005,0 hPa 0,0 l/m 0,0 km/h (0 Bft) S 169 0 min 0,000 mm 0,0 UV-I 0 W/m 0,3 C 1,9 C 0,0 km/h (0 Bft) 95,65 %
07.03.2016 19:56 1,9 C 90 % 1005,0 hPa 0,0 l/m 0,2 km/h (0 Bft) S 169 0 min 0,000 mm 0,0 UV-I 0 W/m 0,4 C 1,9 C 1,6 km/h (1 Bft) 95,83 %
07.03.2016 19:57 1,9 C 90 % 1005,0 hPa 0,2 l/m 0,1 km/h (0 Bft) S 169 0 min 0,000 mm 0,0 UV-I 0 W/m 0,4 C 1,9 C 1,6 km/h (1 Bft) 92,31 %
07.03.2016 19:58 1,9 C 90 % 1005,1 hPa 0,0 l/m 0,4 km/h (0 Bft) S 169 0 min 0,000 mm 0,0 UV-I 0 W/m 0,4 C 1,9 C 1,6 km/h (1 Bft) 91,67 %
07.03.2016 19:59 1,9 C 90 % 1005,1 hPa 0,0 l/m 0,9 km/h (0 Bft) S 169 0 min 0,000 mm 0,0 UV-I 0 W/m 0,4 C 1,9 C 3,2 km/h (1 Bft) 100,00 %
07.03.2016 20:00 1,9 C 90 % 1005,1 hPa 0,0 l/m 1,7 km/h (1 Bft) S 169 0 min 0,000 mm 0,0 UV-I 0 W/m 0,4 C 1,9 C 3,2 km/h (1 Bft) 96,30 %
07.03.2016 20:01 1,8 C 90 % 1005,1 hPa 0,0 l/m 0,9 km/h (0 Bft) S 169 0 min 0,000 mm 0,0 UV-I 0 W/m 0,3 C 1,8 C 1,6 km/h (1 Bft) 91,30 %
07.03.2016 20:02 1,8 C 90 % 1005,1 hPa 0,0 l/m 0,7 km/h (0 Bft) S 169 0 min 0,000 mm 0,0 UV-I 0 W/m 0,3 C 1,8 C 1,6 km/h (1 Bft) 100,00 %
07.03.2016 20:03 1,8 C 90 % 1005,1 hPa 0,0 l/m 0,2 km/h (0 Bft) S 169 0 min 0,000 mm 0,0 UV-I 0 W/m 0,3 C 1,8 C 1,6 km/h (1 Bft) 93,33 %
07.03.2016 20:04 1,7 C 90 % 1005,1 hPa 0,0 l/m 0,0 km/h (0 Bft) S 169 0 min 0,000 mm 0,0 UV-I 0 W/m 0,2 C 1,7 C 0,0 km/h (0 Bft) 96,15 %
07.03.2016 20:05 1,7 C 90 % 1005,1 hPa 0,0 l/m 0,3 km/h (0 Bft) S 169 0 min 0,000 mm 0,0 UV-I 0 W/m 0,2 C 1,7 C 1,6 km/h (1 Bft) 96,30 %
07.03.2016 20:06 1,7 C 91 % 1005,2 hPa 0,0 l/m 0,4 km/h (0 Bft) S 169 0 min 0,000 mm 0,0 UV-I 0 W/m 0,4 C 1,7 C 1,6 km/h (1 Bft) 100,00 %
07.03.2016 20:07 1,7 C 91 % 1005,2 hPa 0,0 l/m 0,0 km/h (0 Bft) S 169 0 min 0,000 mm 0,0 UV-I 0 W/m 0,4 C 1,7 C 0,0 km/h (0 Bft) 91,67 %
07.03.2016 20:08 1,6 C 91 % 1005,2 hPa 0,0 l/m 0,0 km/h (0 Bft) S 169 0 min 0,000 mm 0,0 UV-I 0 W/m 0,3 C 1,6 C 0,0 km/h (0 Bft) 100,00 %
07.03.2016 20:09 1,6 C 90 % 1005,2 hPa 0,0 l/m 0,0 km/h (0 Bft) S 169 0 min 0,000 mm 0,0 UV-I 0 W/m 0,1 C 1,6 C 0,0 km/h (0 Bft) 95,83 %
07.03.2016 20:10 1,6 C 90 % 1005,1 hPa 0,0 l/m 0,0 km/h (0 Bft) S 169 0 min 0,000 mm 0,0 UV-I 0 W/m 0,1 C 1,6 C 0,0 km/h (0 Bft) 95,65 %
07.03.2016 20:11 1,6 C 91 % 1005,2 hPa 0,0 l/m 0,0 km/h (0 Bft) S 169 0 min 0,000 mm 0,0 UV-I 0 W/m 0,3 C 1,6 C 0,0 km/h (0 Bft) 100,00 %
07.03.2016 20:12 1,5 C 91 % 1005,2 hPa 0,0 l/m 1,0 km/h (0 Bft) S 169 0 min 0,000 mm 0,0 UV-I 0 W/m 0,2 C 1,5 C 1,6 km/h (1 Bft) 95,65 %
07.03.2016 20:13 1,5 C 91 % 1005,2 hPa 0,2 l/m 1,9 km/h (1 Bft) S 169 0 min 0,000 mm 0,0 UV-I 0 W/m 0,2 C 1,5 C 3,2 km/h (1 Bft) 100,00 %
07.03.2016 20:14 1,4 C 91 % 1005,2 hPa 0,0 l/m 1,9 km/h (1 Bft) S 169 0 min 0,000 mm 0,0 UV-I 0 W/m 0,1 C 1,4 C 3,2 km/h (1 Bft) 96,15 %
07.03.2016 20:15 1,4 C 91 % 1005,2 hPa 0,0 l/m 2,1 km/h (1 Bft) S 169 0 min 0,000 mm 0,0 UV-I 0 W/m 0,1 C 1,4 C 3,2 km/h (1 Bft) 100,00 %
07.03.2016 20:16 1,3 C 92 % 1005,2 hPa 0,0 l/m 1,8 km/h (1 Bft) S 169 0 min 0,000 mm 0,0 UV-I 0 W/m 0,1 C 1,3 C 3,2 km/h (1 Bft) 95,65 %
07.03.2016 20:17 1,3 C 92 % 1005,2 hPa 0,0 l/m 1,6 km/h (1 Bft) S 169 0 min 0,000 mm 0,0 UV-I 0 W/m 0,1 C 1,3 C 1,6 km/h (1 Bft) 100,00 %
07.03.2016 20:18 1,2 C 92 % 1005,2 hPa 0,0 l/m 1,1 km/h (1 Bft) S 169 0 min 0,000 mm 0,0 UV-I 0 W/m 0,0 C 1,2 C 1,6 km/h (1 Bft) 88,46 %
07.03.2016 20:19 1,2 C 92 % 1005,2 hPa 0,0 l/m 1,1 km/h (1 Bft) S 169 0 min 0,000 mm 0,0 UV-I 0 W/m 0,0 C 1,2 C 1,6 km/h (1 Bft) 95,83 %
07.03.2016 20:20 1,2 C 92 % 1005,2 hPa 0,0 l/m 0,4 km/h (0 Bft) S 169 0 min 0,000 mm 0,0 UV-I 0 W/m 0,0 C 1,2 C 1,6 km/h (1 Bft) 96,15 %
07.03.2016 20:21 1,1 C 92 % 1005,3 hPa 0,0 l/m 0,0 km/h (0 Bft) S 169 0 min 0,000 mm 0,0 UV-I 0 W/m -0,1 C 1,1 C 0,0 km/h (0 Bft) 93,33 %
07.03.2016 20:22 1,1 C 93 % 1005,2 hPa 0,0 l/m 0,0 km/h (0 Bft) S 169 0 min 0,000 mm 0,0 UV-I 0 W/m 0,1 C 1,1 C 0,0 km/h (0 Bft) 100,00 %
07.03.2016 20:23 1,1 C 93 % 1005,3 hPa 0,0 l/m 0,0 km/h (0 Bft) S 169 0 min 0,000 mm 0,0 UV-I 0 W/m 0,1 C 1,1 C 0,0 km/h (0 Bft) 100,00 %
07.03.2016 20:24 1,1 C 93 % 1005,4 hPa 0,0 l/m 0,1 km/h (0 Bft) S 169 0 min 0,000 mm 0,0 UV-I 0 W/m 0,1 C 1,1 C 1,6 km/h (1 Bft) 100,00 %
07.03.2016 20:25 1,0 C 93 % 1005,2 hPa 0,0 l/m 0,0 km/h (0 Bft) S 169 0 min 0,000 mm 0,0 UV-I 0 W/m -0,0 C 1,0 C 0,0 km/h (0 Bft) 100,00 %
07.03.2016 20:26 0,9 C 93 % 1005,3 hPa 0,0 l/m 0,0 km/h (0 Bft) S 169 0 min 0,000 mm 0,0 UV-I 0 W/m -0,1 C 0,9 C 0,0 km/h (0 Bft) 100,00 %
07.03.2016 20:27 0,9 C 93 % 1005,4 hPa 0,0 l/m 0,0 km/h (0 Bft) S 169 0 min 0,000 mm 0,0 UV-I 0 W/m -0,1 C 0,9 C 0,0 km/h (0 Bft) 100,00 %
07.03.2016 20:28 0,9 C 93 % 1005,4 hPa 0,0 l/m 0,1 km/h (0 Bft) S 169 0 min 0,000 mm 0,0 UV-I 0 W/m -0,1 C 0,9 C 1,6 km/h (1 Bft) 95,83 %
07.03.2016 20:29 0,8 C 93 % 1005,4 hPa 0,0 l/m 0,2 km/h (0 Bft) S 169 0 min 0,000 mm 0,0 UV-I 0 W/m -0,2 C 0,8 C 1,6 km/h (1 Bft) 100,00 %
07.03.2016 20:30 0,8 C 94 % 1005,5 hPa 0,0 l/m 0,1 km/h (0 Bft) S 169 0 min 0,000 mm 0,0 UV-I 0 W/m -0,1 C 0,8 C 1,6 km/h (1 Bft) 100,00 %
07.03.2016 20:31 0,8 C 93 % 1005,5 hPa 0,0 l/m 0,0 km/h (0 Bft) S 169 0 min 0,000 mm 0,0 UV-I 0 W/m -0,2 C 0,8 C 0,0 km/h (0 Bft) 100,00 %
07.03.2016 20:32 0,8 C 94 % 1005,5 hPa 0,0 l/m 0,0 km/h (0 Bft) S 169 0 min 0,000 mm 0,0 UV-I 0 W/m -0,1 C 0,8 C 0,0 km/h (0 Bft) 100,00 %
07.03.2016 20:33 0,8 C 94 % 1005,5 hPa 0,0 l/m 0,0 km/h (0 Bft) S 169 0 min 0,000 mm 0,0 UV-I 0 W/m -0,1 C 0,8 C 0,0 km/h (0 Bft) 97,37 %
07.03.2016 20:34 0,8 C 94 % 1005,5 hPa 0,0 l/m 0,0 km/h (0 Bft) S 169 0 min 0,000 mm 0,0 UV-I 0 W/m -0,1 C 0,8 C 0,0 km/h (0 Bft) 100,00 %
07.03.2016 20:35 0,7 C 94 % 1005,5 hPa 0,0 l/m 0,0 km/h (0 Bft) S 169 0 min 0,000 mm 0,0 UV-I 0 W/m -0,2 C 0,7 C 0,0 km/h (0 Bft) 100,00 %
07.03.2016 20:36 0,7 C 94 % 1005,5 hPa 0,0 l/m 0,0 km/h (0 Bft) S 169 0 min 0,000 mm 0,0 UV-I 0 W/m -0,2 C 0,7 C 0,0 km/h (0 Bft) 100,00 %
07.03.2016 20:37 0,7 C 94 % 1005,5 hPa 0,0 l/m 0,0 km/h (0 Bft) S 169 0 min 0,000 mm 0,0 UV-I 0 W/m -0,2 C 0,7 C 0,0 km/h (0 Bft) 98,59 %
07.03.2016 20:38 0,7 C 94 % 1005,5 hPa 0,0 l/m 0,0 km/h (0 Bft) S 169 0 min 0,000 mm 0,0 UV-I 0 W/m -0,2 C 0,7 C 0,0 km/h (0 Bft) 95,12 %
07.03.2016 20:39 0,7 C 94 % 1005,5 hPa 0,0 l/m 0,0 km/h (0 Bft) S 169 0 min 0,000 mm 0,0 UV-I 0 W/m -0,2 C 0,7 C 0,0 km/h (0 Bft) 100,00 %
07.03.2016 20:40 0,7 C 94 % 1005,5 hPa 0,0 l/m 0,0 km/h (0 Bft) S 169 0 min 0,000 mm 0,0 UV-I 0 W/m -0,2 C 0,7 C 0,0 km/h (0 Bft) 100,00 %
07.03.2016 20:41 0,6 C 94 % 1005,5 hPa 0,0 l/m 0,0 km/h (0 Bft) S 169 0 min 0,000 mm 0,0 UV-I 0 W/m -0,3 C 0,6 C 0,0 km/h (0 Bft) 100,00 %
07.03.2016 20:42 0,7 C 94 % 1005,5 hPa 0,0 l/m 0,0 km/h (0 Bft) S 169 0 min 0,000 mm 0,0 UV-I 0 W/m -0,2 C 0,7 C 0,0 km/h (0 Bft) 100,00 %
07.03.2016 20:43 0,6 C 95 % 1005,5 hPa 0,0 l/m 0,1 km/h (0 Bft) S 169 0 min 0,000 mm 0,0 UV-I 0 W/m -0,1 C 0,6 C 1,6 km/h (1 Bft) 100,00 %
07.03.2016 20:44 0,6 C 95 % 1005,6 hPa 0,0 l/m 0,1 km/h (0 Bft) S 169 0 min 0,000 mm 0,0 UV-I 0 W/m -0,1 C 0,6 C 1,6 km/h (1 Bft) 100,00 %
07.03.2016 20:45 0,6 C 95 % 1005,6 hPa 0,0 l/m 0,0 km/h (0 Bft) S 169 0 min 0,000 mm 0,0 UV-I 0 W/m -0,1 C 0,6 C 0,0 km/h (0 Bft) 100,00 %
07.03.2016 20:46 0,6 C 95 % 1005,6 hPa 0,0 l/m 0,1 km/h (0 Bft) S 169 0 min 0,000 mm 0,0 UV-I 0 W/m -0,1 C 0,6 C 1,6 km/h (1 Bft) 100,00 %
07.03.2016 20:47 0,6 C 95 % 1005,6 hPa 0,0 l/m 1,1 km/h (1 Bft) S 169 0 min 0,000 mm 0,0 UV-I 0 W/m -0,1 C 0,6 C 1,6 km/h (1 Bft) 100,00 %
07.03.2016 20:48 0,6 C 95 % 1005,6 hPa 0,0 l/m 1,7 km/h (1 Bft) S 169 0 min 0,000 mm 0,0 UV-I 0 W/m -0,1 C 0,6 C 3,2 km/h (1 Bft) 100,00 %
07.03.2016 20:49 0,6 C 95 % 1005,6 hPa 0,0 l/m 1,4 km/h (1 Bft) S 169 0 min 0,000 mm 0,0 UV-I 0 W/m -0,1 C 0,6 C 1,6 km/h (1 Bft) 100,00 %
07.03.2016 20:50 0,6 C 95 % 1005,6 hPa 0,0 l/m 0,8 km/h (0 Bft) S 169 0 min 0,000 mm 0,0 UV-I 0 W/m -0,1 C 0,6 C 1,6 km/h (1 Bft) 100,00 %
07.03.2016 20:51 0,6 C 95 % 1005,6 hPa 0,0 l/m 0,9 km/h (0 Bft) S 169 0 min 0,000 mm 0,0 UV-I 0 W/m -0,1 C 0,6 C 1,6 km/h (1 Bft) 100,00 %
07.03.2016 20:52 0,6 C 95 % 1005,6 hPa 0,0 l/m 0,5 km/h (0 Bft) S 169 0 min 0,000 mm 0,0 UV-I 0 W/m -0,1 C 0,6 C 1,6 km/h (1 Bft) 95,65 %
07.03.2016 20:53 0,5 C 95 % 1005,6 hPa 0,0 l/m 0,0 km/h (0 Bft) S 169 0 min 0,000 mm 0,0 UV-I 0 W/m -0,2 C 0,5 C 0,0 km/h (0 Bft) 100,00 %
07.03.2016 20:54 0,6 C 95 % 1005,6 hPa 0,0 l/m 0,0 km/h (0 Bft) S 169 0 min 0,000 mm 0,0 UV-I 0 W/m -0,1 C 0,6 C 0,0 km/h (0 Bft) 100,00 %
07.03.2016 20:55 0,5 C 95 % 1005,6 hPa 0,0 l/m 0,0 km/h (0 Bft) S 169 0 min 0,000 mm 0,0 UV-I 0 W/m -0,2 C 0,5 C 0,0 km/h (0 Bft) 100,00 %
07.03.2016 20:56 0,5 C 95 % 1005,6 hPa 0,0 l/m 0,1 km/h (0 Bft) S 169 0 min 0,000 mm 0,0 UV-I 0 W/m -0,2 C 0,5 C 1,6 km/h (1 Bft) 98,61 %
07.03.2016 20:57 0,5 C 95 % 1005,6 hPa 0,0 l/m 0,7 km/h (0 Bft) S 169 0 min 0,000 mm 0,0 UV-I 0 W/m -0,2 C 0,5 C 1,6 km/h (1 Bft) 97,37 %
07.03.2016 20:58 0,5 C 95 % 1005,7 hPa 0,0 l/m 1,4 km/h (1 Bft) S 169 0 min 0,000 mm 0,0 UV-I 0 W/m -0,2 C 0,5 C 1,6 km/h (1 Bft) 95,83 %
07.03.2016 20:59 0,5 C 95 % 1005,7 hPa 0,0 l/m 1,8 km/h (1 Bft) S 169 0 min 0,000 mm 0,0 UV-I 0 W/m -0,2 C 0,5 C 3,2 km/h (1 Bft) 100,00 %
07.03.2016 21:00 0,5 C 95 % 1005,6 hPa 0,0 l/m 1,5 km/h (1 Bft) S 169 0 min 0,000 mm 0,0 UV-I 0 W/m -0,2 C 0,5 C 1,6 km/h (1 Bft) 100,00 %
07.03.2016 21:01 0,4 C 95 % 1005,7 hPa 0,0 l/m 0,7 km/h (0 Bft) S 169 0 min 0,000 mm 0,0 UV-I 0 W/m -0,3 C 0,4 C 1,6 km/h (1 Bft) 100,00 %
07.03.2016 21:02 0,4 C 95 % 1005,6 hPa 0,0 l/m 0,5 km/h (0 Bft) S 169 0 min 0,000 mm 0,0 UV-I 0 W/m -0,3 C 0,4 C 1,6 km/h (1 Bft) 100,00 %
07.03.2016 21:03 0,4 C 95 % 1005,6 hPa 0,0 l/m 0,3 km/h (0 Bft) S 169 0 min 0,000 mm 0,0 UV-I 0 W/m -0,3 C 0,4 C 1,6 km/h (1 Bft) 100,00 %
07.03.2016 21:04 0,4 C 95 % 1005,7 hPa 0,0 l/m 0,0 km/h (0 Bft) S 169 0 min 0,000 mm 0,0 UV-I 0 W/m -0,3 C 0,4 C 0,0 km/h (0 Bft) 95,65 %
07.03.2016 21:05 0,4 C 95 % 1005,7 hPa 0,0 l/m 0,0 km/h (0 Bft) S 169 0 min 0,000 mm 0,0 UV-I 0 W/m -0,3 C 0,4 C 0,0 km/h (0 Bft) 100,00 %
07.03.2016 21:06 0,4 C 95 % 1005,6 hPa 0,0 l/m 0,0 km/h (0 Bft) S 169 0 min 0,000 mm 0,0 UV-I 0 W/m -0,3 C 0,4 C 0,0 km/h (0 Bft) 91,30 %
07.03.2016 21:07 0,4 C 95 % 1005,7 hPa 0,0 l/m 0,0 km/h (0 Bft) S 169 0 min 0,000 mm 0,0 UV-I 0 W/m -0,3 C 0,4 C 0,0 km/h (0 Bft) 95,83 %
07.03.2016 21:08 0,4 C 95 % 1005,7 hPa 0,0 l/m 0,0 km/h (0 Bft) S 169 0 min 0,000 mm 0,0 UV-I 0 W/m -0,3 C 0,4 C 0,0 km/h (0 Bft) 100,00 %
07.03.2016 21:09 0,4 C 95 % 1005,7 hPa 0,0 l/m 0,0 km/h (0 Bft) S 169 0 min 0,000 mm 0,0 UV-I 0 W/m -0,3 C 0,4 C 0,0 km/h (0 Bft) 100,00 %
07.03.2016 21:10 0,4 C 95 % 1005,7 hPa 0,0 l/m 0,1 km/h (0 Bft) S 169 0 min 0,000 mm 0,0 UV-I 0 W/m -0,3 C 0,4 C 1,6 km/h (1 Bft) 100,00 %
07.03.2016 21:11 0,4 C 95 % 1005,7 hPa 0,0 l/m 0,0 km/h (0 Bft) S 169 0 min 0,000 mm 0,0 UV-I 0 W/m -0,3 C 0,4 C 0,0 km/h (0 Bft) 100,00 %
07.03.2016 21:12 0,4 C 95 % 1005,7 hPa 0,0 l/m 0,0 km/h (0 Bft) S 169 0 min 0,000 mm 0,0 UV-I 0 W/m -0,3 C 0,4 C 0,0 km/h (0 Bft) 100,00 %
07.03.2016 21:13 0,4 C 95 % 1005,7 hPa 0,0 l/m 0,0 km/h (0 Bft) S 169 0 min 0,000 mm 0,0 UV-I 0 W/m -0,3 C 0,4 C 0,0 km/h (0 Bft) 100,00 %
07.03.2016 21:14 0,4 C 95 % 1005,7 hPa 0,0 l/m 0,0 km/h (0 Bft) S 169 0 min 0,000 mm 0,0 UV-I 0 W/m -0,3 C 0,4 C 0,0 km/h (0 Bft) 100,00 %
07.03.2016 21:15 0,4 C 95 % 1005,7 hPa 0,0 l/m 0,0 km/h (0 Bft) S 169 0 min 0,000 mm 0,0 UV-I 0 W/m -0,3 C 0,4 C 0,0 km/h (0 Bft) 100,00 %
07.03.2016 21:16 0,4 C 95 % 1005,7 hPa 0,0 l/m 0,0 km/h (0 Bft) S 169 0 min 0,000 mm 0,0 UV-I 0 W/m -0,3 C 0,4 C 0,0 km/h (0 Bft) 100,00 %
07.03.2016 21:17 0,4 C 95 % 1005,7 hPa 0,0 l/m 0,0 km/h (0 Bft) S 169 0 min 0,000 mm 0,0 UV-I 0 W/m -0,3 C 0,4 C 0,0 km/h (0 Bft) 100,00 %
07.03.2016 21:18 0,4 C 95 % 1005,7 hPa 0,0 l/m 0,0 km/h (0 Bft) S 169 0 min 0,000 mm 0,0 UV-I 0 W/m -0,3 C 0,4 C 0,0 km/h (0 Bft) 100,00 %
07.03.2016 21:19 0,4 C 96 % 1005,7 hPa 0,0 l/m 0,0 km/h (0 Bft) S 169 0 min 0,000 mm 0,0 UV-I 0 W/m -0,2 C 0,4 C 0,0 km/h (0 Bft) 100,00 %
07.03.2016 21:20 0,4 C 96 % 1005,7 hPa 0,0 l/m 0,0 km/h (0 Bft) S 169 0 min 0,000 mm 0,0 UV-I 0 W/m -0,2 C 0,4 C 0,0 km/h (0 Bft) 100,00 %
07.03.2016 21:21 0,4 C 96 % 1005,7 hPa 0,0 l/m 0,2 km/h (0 Bft) S 169 0 min 0,000 mm 0,0 UV-I 0 W/m -0,2 C 0,4 C 1,6 km/h (1 Bft) 100,00 %
07.03.2016 21:22 0,4 C 96 % 1005,8 hPa 0,0 l/m 0,9 km/h (0 Bft) S 169 0 min 0,000 mm 0,0 UV-I 0 W/m -0,2 C 0,4 C 1,6 km/h (1 Bft) 100,00 %
07.03.2016 21:23 0,4 C 96 % 1005,8 hPa 0,0 l/m 0,9 km/h (0 Bft) S 169 0 min 0,000 mm 0,0 UV-I 0 W/m -0,2 C 0,4 C 1,6 km/h (1 Bft) 100,00 %
07.03.2016 21:24 0,4 C 96 % 1005,8 hPa 0,0 l/m 0,9 km/h (0 Bft) S 169 0 min 0,000 mm 0,0 UV-I 0 W/m -0,2 C 0,4 C 1,6 km/h (1 Bft) 100,00 %
07.03.2016 21:25 0,3 C 96 % 1005,8 hPa 0,0 l/m 1,2 km/h (1 Bft) S 169 0 min 0,000 mm 0,0 UV-I 0 W/m -0,3 C 0,3 C 1,6 km/h (1 Bft) 100,00 %
07.03.2016 21:26 0,3 C 96 % 1005,8 hPa 0,0 l/m 1,5 km/h (1 Bft) S 169 0 min 0,000 mm 0,0 UV-I 0 W/m -0,3 C 0,3 C 1,6 km/h (1 Bft) 100,00 %
07.03.2016 21:27 0,3 C 96 % 1005,8 hPa 0,0 l/m 1,3 km/h (1 Bft) S 169 0 min 0,000 mm 0,0 UV-I 0 W/m -0,3 C 0,3 C 1,6 km/h (1 Bft) 100,00 %
07.03.2016 21:28 0,4 C 96 % 1005,8 hPa 0,0 l/m 0,8 km/h (0 Bft) S 169 0 min 0,000 mm 0,0 UV-I 0 W/m -0,2 C 0,4 C 1,6 km/h (1 Bft) 95,65 %
07.03.2016 21:29 0,3 C 96 % 1005,8 hPa 0,0 l/m 1,6 km/h (1 Bft) S 169 0 min 0,000 mm 0,0 UV-I 0 W/m -0,3 C 0,3 C 1,6 km/h (1 Bft) 100,00 %
07.03.2016 21:30 0,3 C 96 % 1005,8 hPa 0,0 l/m 1,1 km/h (1 Bft) S 169 0 min 0,000 mm 0,0 UV-I 0 W/m -0,3 C 0,3 C 1,6 km/h (1 Bft) 100,00 %
07.03.2016 21:31 0,3 C 96 % 1005,8 hPa 0,0 l/m 1,3 km/h (1 Bft) S 169 0 min 0,000 mm 0,0 UV-I 0 W/m -0,3 C 0,3 C 1,6 km/h (1 Bft) 100,00 %
07.03.2016 21:32 0,3 C 96 % 1005,8 hPa 0,0 l/m 1,3 km/h (1 Bft) S 169 0 min 0,000 mm 0,0 UV-I 0 W/m -0,3 C 0,3 C 1,6 km/h (1 Bft) 98,63 %
07.03.2016 21:33 0,3 C 96 % 1005,8 hPa 0,0 l/m 1,1 km/h (1 Bft) S 169 0 min 0,000 mm 0,0 UV-I 0 W/m -0,3 C 0,3 C 1,6 km/h (1 Bft) 100,00 %
07.03.2016 21:34 0,3 C 96 % 1005,8 hPa 0,0 l/m 1,4 km/h (1 Bft) S 169 0 min 0,000 mm 0,0 UV-I 0 W/m -0,3 C 0,3 C 1,6 km/h (1 Bft) 100,00 %
07.03.2016 21:35 0,3 C 96 % 1005,8 hPa 0,0 l/m 1,7 km/h (1 Bft) S 169 0 min 0,000 mm 0,0 UV-I 0 W/m -0,3 C 0,3 C 3,2 km/h (1 Bft) 100,00 %
07.03.2016 21:36 0,3 C 96 % 1005,8 hPa 0,0 l/m 1,0 km/h (0 Bft) S 169 0 min 0,000 mm 0,0 UV-I 0 W/m -0,3 C 0,3 C 1,6 km/h (1 Bft) 100,00 %
07.03.2016 21:37 0,3 C 96 % 1005,9 hPa 0,0 l/m 0,7 km/h (0 Bft) S 169 0 min 0,000 mm 0,0 UV-I 0 W/m -0,3 C 0,3 C 1,6 km/h (1 Bft) 100,00 %
07.03.2016 21:38 0,3 C 96 % 1005,9 hPa 0,0 l/m 0,8 km/h (0 Bft) S 169 0 min 0,000 mm 0,0 UV-I 0 W/m -0,3 C 0,3 C 1,6 km/h (1 Bft) 100,00 %
07.03.2016 21:39 0,3 C 96 % 1005,9 hPa 0,0 l/m 1,1 km/h (1 Bft) S 169 0 min 0,000 mm 0,0 UV-I 0 W/m -0,3 C 0,3 C 3,2 km/h (1 Bft) 100,00 %
07.03.2016 21:40 0,3 C 96 % 1005,9 hPa 0,0 l/m 1,2 km/h (1 Bft) S 169 0 min 0,000 mm 0,0 UV-I 0 W/m -0,3 C 0,3 C 1,6 km/h (1 Bft) 100,00 %
07.03.2016 21:41 0,3 C 96 % 1005,9 hPa 0,0 l/m 0,5 km/h (0 Bft) S 169 0 min 0,000 mm 0,0 UV-I 0 W/m -0,3 C 0,3 C 1,6 km/h (1 Bft) 100,00 %
07.03.2016 21:42 0,3 C 96 % 1005,9 hPa 0,0 l/m 1,4 km/h (1 Bft) S 169 0 min 0,000 mm 0,0 UV-I 0 W/m -0,3 C 0,3 C 1,6 km/h (1 Bft) 100,00 %
07.03.2016 21:43 0,3 C 96 % 1005,9 hPa 0,0 l/m 0,7 km/h (0 Bft) S 169 0 min 0,000 mm 0,0 UV-I 0 W/m -0,3 C 0,3 C 1,6 km/h (1 Bft) 100,00 %
07.03.2016 21:44 0,3 C 96 % 1005,9 hPa 0,0 l/m 1,3 km/h (1 Bft) S 169 0 min 0,000 mm 0,0 UV-I 0 W/m -0,3 C 0,3 C 3,2 km/h (1 Bft) 100,00 %
07.03.2016 21:45 0,3 C 96 % 1005,9 hPa 0,0 l/m 0,4 km/h (0 Bft) S 169 0 min 0,000 mm 0,0 UV-I 0 W/m -0,3 C 0,3 C 1,6 km/h (1 Bft) 92,31 %
07.03.2016 21:46 0,3 C 96 % 1005,8 hPa 0,0 l/m 0,5 km/h (0 Bft) S 169 0 min 0,000 mm 0,0 UV-I 0 W/m -0,3 C 0,3 C 1,6 km/h (1 Bft) 100,00 %
07.03.2016 21:47 0,3 C 96 % 1005,9 hPa 0,0 l/m 0,3 km/h (0 Bft) S 169 0 min 0,000 mm 0,0 UV-I 0 W/m -0,3 C 0,3 C 1,6 km/h (1 Bft) 100,00 %
07.03.2016 21:48 0,3 C 96 % 1005,9 hPa 0,0 l/m 0,1 km/h (0 Bft) S 169 0 min 0,000 mm 0,0 UV-I 0 W/m -0,3 C 0,3 C 1,6 km/h (1 Bft) 100,00 %
07.03.2016 21:49 0,3 C 96 % 1005,9 hPa 0,0 l/m 0,0 km/h (0 Bft) S 169 0 min 0,000 mm 0,0 UV-I 0 W/m -0,3 C 0,3 C 0,0 km/h (0 Bft) 100,00 %
07.03.2016 21:50 0,3 C 96 % 1005,9 hPa 0,0 l/m 0,0 km/h (0 Bft) S 169 0 min 0,000 mm 0,0 UV-I 0 W/m -0,3 C 0,3 C 0,0 km/h (0 Bft) 100,00 %
07.03.2016 21:51 0,3 C 96 % 1005,9 hPa 0,0 l/m 0,1 km/h (0 Bft) S 169 0 min 0,000 mm 0,0 UV-I 0 W/m -0,3 C 0,3 C 1,6 km/h (1 Bft) 100,00 %
07.03.2016 21:52 0,3 C 96 % 1005,9 hPa 0,0 l/m 1,1 km/h (1 Bft) S 169 0 min 0,000 mm 0,0 UV-I 0 W/m -0,3 C 0,3 C 1,6 km/h (1 Bft) 100,00 %
07.03.2016 21:53 0,3 C 96 % 1005,9 hPa 0,0 l/m 0,8 km/h (0 Bft) S 169 0 min 0,000 mm 0,0 UV-I 0 W/m -0,3 C 0,3 C 1,6 km/h (1 Bft) 95,65 %
07.03.2016 21:54 0,3 C 96 % 1005,9 hPa 0,0 l/m 0,9 km/h (0 Bft) S 169 0 min 0,000 mm 0,0 UV-I 0 W/m -0,3 C 0,3 C 1,6 km/h (1 Bft) 95,83 %
07.03.2016 21:55 0,3 C 96 % 1005,9 hPa 0,0 l/m 0,3 km/h (0 Bft) S 169 0 min 0,000 mm 0,0 UV-I 0 W/m -0,3 C 0,3 C 1,6 km/h (1 Bft) 95,65 %
07.03.2016 21:56 0,3 C 96 % 1005,9 hPa 0,0 l/m 0,6 km/h (0 Bft) S 169 0 min 0,000 mm 0,0 UV-I 0 W/m -0,3 C 0,3 C 1,6 km/h (1 Bft) 95,83 %
07.03.2016 21:57 0,3 C 96 % 1005,9 hPa 0,0 l/m 0,6 km/h (0 Bft) S 169 0 min 0,000 mm 0,0 UV-I 0 W/m -0,3 C 0,3 C 1,6 km/h (1 Bft) 100,00 %
07.03.2016 21:58 0,3 C 96 % 1005,9 hPa 0,0 l/m 0,5 km/h (0 Bft) S 169 0 min 0,000 mm 0,0 UV-I 0 W/m -0,3 C 0,3 C 1,6 km/h (1 Bft) 96,30 %
07.03.2016 21:59 0,3 C 96 % 1005,9 hPa 0,0 l/m 0,4 km/h (0 Bft) S 169 0 min 0,000 mm 0,0 UV-I 0 W/m -0,3 C 0,3 C 1,6 km/h (1 Bft) 91,67 %
07.03.2016 22:00 0,3 C 96 % 1005,9 hPa 0,0 l/m 0,5 km/h (0 Bft) S 169 0 min 0,000 mm 0,0 UV-I 0 W/m -0,3 C 0,3 C 1,6 km/h (1 Bft) 92,31 %
07.03.2016 22:01 0,3 C 96 % 1005,9 hPa 0,0 l/m 1,2 km/h (1 Bft) S 169 0 min 0,000 mm 0,0 UV-I 0 W/m -0,3 C 0,3 C 3,2 km/h (1 Bft) 100,00 %
07.03.2016 22:02 0,3 C 96 % 1005,9 hPa 0,0 l/m 0,9 km/h (0 Bft) S 169 0 min 0,000 mm 0,0 UV-I 0 W/m -0,3 C 0,3 C 1,6 km/h (1 Bft) 96,15 %
07.03.2016 22:03 0,3 C 96 % 1006,0 hPa 0,0 l/m 0,0 km/h (0 Bft) S 169 0 min 0,000 mm 0,0 UV-I 0 W/m -0,3 C 0,3 C 0,0 km/h (0 Bft) 91,67 %
07.03.2016 22:04 0,3 C 96 % 1006,0 hPa 0,0 l/m 0,0 km/h (0 Bft) S 169 0 min 0,000 mm 0,0 UV-I 0 W/m -0,3 C 0,3 C 0,0 km/h (0 Bft) 100,00 %
07.03.2016 22:05 0,3 C 96 % 1005,9 hPa 0,0 l/m 0,8 km/h (0 Bft) S 169 0 min 0,000 mm 0,0 UV-I 0 W/m -0,3 C 0,3 C 1,6 km/h (1 Bft) 96,30 %
07.03.2016 22:06 0,3 C 96 % 1005,9 hPa 0,0 l/m 1,5 km/h (1 Bft) S 169 0 min 0,000 mm 0,0 UV-I 0 W/m -0,3 C 0,3 C 3,2 km/h (1 Bft) 100,00 %
07.03.2016 22:07 0,3 C 96 % 1005,9 hPa 0,0 l/m 1,7 km/h (1 Bft) S 169 0 min 0,000 mm 0,0 UV-I 0 W/m -0,3 C 0,3 C 3,2 km/h (1 Bft) 95,83 %
07.03.2016 22:08 0,3 C 96 % 1005,9 hPa 0,0 l/m 1,3 km/h (1 Bft) S 169 0 min 0,000 mm 0,0 UV-I 0 W/m -0,3 C 0,3 C 3,2 km/h (1 Bft) 100,00 %
07.03.2016 22:09 0,3 C 96 % 1006,0 hPa 0,0 l/m 1,8 km/h (1 Bft) S 172 0 min 0,000 mm 0,0 UV-I 0 W/m -0,3 C 0,3 C 3,2 km/h (1 Bft) 96,30 %
07.03.2016 22:10 0,3 C 96 % 1006,0 hPa 0,0 l/m 1,1 km/h (1 Bft) S 172 0 min 0,000 mm 0,0 UV-I 0 W/m -0,3 C 0,3 C 1,6 km/h (1 Bft) 95,65 %
07.03.2016 22:11 0,3 C 96 % 1006,0 hPa 0,0 l/m 1,3 km/h (1 Bft) S 172 0 min 0,000 mm 0,0 UV-I 0 W/m -0,3 C 0,3 C 1,6 km/h (1 Bft) 100,00 %
07.03.2016 22:12 0,3 C 96 % 1006,0 hPa 0,0 l/m 1,4 km/h (1 Bft) S 172 0 min 0,000 mm 0,0 UV-I 0 W/m -0,3 C 0,3 C 1,6 km/h (1 Bft) 100,00 %
07.03.2016 22:13 0,3 C 96 % 1006,0 hPa 0,0 l/m 0,7 km/h (0 Bft) S 172 0 min 0,000 mm 0,0 UV-I 0 W/m -0,3 C 0,3 C 1,6 km/h (1 Bft) 95,83 %
07.03.2016 22:14 0,3 C 96 % 1005,9 hPa 0,0 l/m 1,2 km/h (1 Bft) S 172 0 min 0,000 mm 0,0 UV-I 0 W/m -0,3 C 0,3 C 1,6 km/h (1 Bft) 95,65 %
07.03.2016 22:15 0,3 C 96 % 1005,9 hPa 0,0 l/m 1,2 km/h (1 Bft) S 172 0 min 0,000 mm 0,0 UV-I 0 W/m -0,3 C 0,3 C 1,6 km/h (1 Bft) 100,00 %
07.03.2016 22:16 0,3 C 96 % 1005,9 hPa 0,0 l/m 1,6 km/h (1 Bft) S 172 0 min 0,000 mm 0,0 UV-I 0 W/m -0,3 C 0,3 C 1,6 km/h (1 Bft) 96,15 %
07.03.2016 22:17 0,4 C 96 % 1006,0 hPa 0,0 l/m 1,5 km/h (1 Bft) S 172 0 min 0,000 mm 0,0 UV-I 0 W/m -0,2 C 0,4 C 1,6 km/h (1 Bft) 100,00 %
07.03.2016 22:18 0,3 C 96 % 1005,9 hPa 0,0 l/m 1,3 km/h (1 Bft) S 172 0 min 0,000 mm 0,0 UV-I 0 W/m -0,3 C 0,3 C 1,6 km/h (1 Bft) 95,65 %
07.03.2016 22:19 0,3 C 96 % 1005,9 hPa 0,0 l/m 1,8 km/h (1 Bft) S 172 0 min 0,000 mm 0,0 UV-I 0 W/m -0,3 C 0,3 C 3,2 km/h (1 Bft) 96,30 %
07.03.2016 22:20 0,3 C 96 % 1005,9 hPa 0,0 l/m 1,9 km/h (1 Bft) S 172 0 min 0,000 mm 0,0 UV-I 0 W/m -0,3 C 0,3 C 3,2 km/h (1 Bft) 100,00 %
07.03.2016 22:21 0,4 C 96 % 1005,9 hPa 0,0 l/m 1,7 km/h (1 Bft) S 173 0 min 0,000 mm 0,0 UV-I 0 W/m -0,2 C 0,4 C 3,2 km/h (1 Bft) 100,00 %
07.03.2016 22:22 0,4 C 96 % 1005,9 hPa 0,0 l/m 1,8 km/h (1 Bft) S 172 0 min 0,000 mm 0,0 UV-I 0 W/m -0,2 C 0,4 C 3,2 km/h (1 Bft) 91,67 %
07.03.2016 22:23 0,3 C 96 % 1005,9 hPa 0,0 l/m 1,5 km/h (1 Bft) S 173 0 min 0,000 mm 0,0 UV-I 0 W/m -0,3 C 0,3 C 1,6 km/h (1 Bft) 97,56 %
07.03.2016 22:24 0,3 C 96 % 1005,9 hPa 0,0 l/m 1,5 km/h (1 Bft) S 173 0 min 0,000 mm 0,0 UV-I 0 W/m -0,3 C 0,3 C 1,6 km/h (1 Bft) 100,00 %
07.03.2016 22:25 0,4 C 96 % 1005,9 hPa 0,0 l/m 1,3 km/h (1 Bft) S 173 0 min 0,000 mm 0,0 UV-I 0 W/m -0,2 C 0,4 C 3,2 km/h (1 Bft) 95,65 %
07.03.2016 22:26 0,3 C 96 % 1005,9 hPa 0,0 l/m 1,1 km/h (1 Bft) S 173 0 min 0,000 mm 0,0 UV-I 0 W/m -0,3 C 0,3 C 1,6 km/h (1 Bft) 100,00 %
07.03.2016 22:27 0,3 C 96 % 1005,9 hPa 0,0 l/m 1,0 km/h (0 Bft) S 173 0 min 0,000 mm 0,0 UV-I 0 W/m -0,3 C 0,3 C 1,6 km/h (1 Bft) 95,65 %
07.03.2016 22:28 0,3 C 96 % 1005,9 hPa 0,0 l/m 0,0 km/h (0 Bft) S 173 0 min 0,000 mm 0,0 UV-I 0 W/m -0,3 C 0,3 C 0,0 km/h (0 Bft) 100,00 %
07.03.2016 22:29 0,3 C 96 % 1005,9 hPa 0,0 l/m 0,0 km/h (0 Bft) S 173 0 min 0,000 mm 0,0 UV-I 0 W/m -0,3 C 0,3 C 0,0 km/h (0 Bft) 100,00 %
07.03.2016 22:30 0,3 C 96 % 1005,9 hPa 0,0 l/m 0,0 km/h (0 Bft) S 173 0 min 0,000 mm 0,0 UV-I 0 W/m -0,3 C 0,3 C 0,0 km/h (0 Bft) 100,00 %
07.03.2016 22:31 0,3 C 96 % 1005,9 hPa 0,0 l/m 0,0 km/h (0 Bft) S 173 0 min 0,000 mm 0,0 UV-I 0 W/m -0,3 C 0,3 C 0,0 km/h (0 Bft) 95,65 %
07.03.2016 22:32 0,3 C 96 % 1005,9 hPa 0,0 l/m 0,0 km/h (0 Bft) S 173 0 min 0,000 mm 0,0 UV-I 0 W/m -0,3 C 0,3 C 0,0 km/h (0 Bft) 100,00 %
07.03.2016 22:33 0,3 C 96 % 1005,9 hPa 0,0 l/m 0,0 km/h (0 Bft) S 173 0 min 0,000 mm 0,0 UV-I 0 W/m -0,3 C 0,3 C 0,0 km/h (0 Bft) 100,00 %
07.03.2016 22:34 0,3 C 96 % 1005,9 hPa 0,0 l/m 0,0 km/h (0 Bft) S 173 0 min 0,000 mm 0,0 UV-I 0 W/m -0,3 C 0,3 C 0,0 km/h (0 Bft) 96,67 %
07.03.2016 22:35 0,3 C 96 % 1005,9 hPa 0,0 l/m 0,0 km/h (0 Bft) S 173 0 min 0,000 mm 0,0 UV-I 0 W/m -0,3 C 0,3 C 0,0 km/h (0 Bft) 100,00 %
07.03.2016 22:36 0,3 C 96 % 1005,9 hPa 0,0 l/m 0,0 km/h (0 Bft) S 173 0 min 0,000 mm 0,0 UV-I 0 W/m -0,3 C 0,3 C 0,0 km/h (0 Bft) 100,00 %
07.03.2016 22:37 0,3 C 96 % 1005,9 hPa 0,0 l/m 0,0 km/h (0 Bft) S 173 0 min 0,000 mm 0,0 UV-I 0 W/m -0,3 C 0,3 C 0,0 km/h (0 Bft) 95,83 %
07.03.2016 22:38 0,3 C 96 % 1005,9 hPa 0,0 l/m 0,0 km/h (0 Bft) S 173 0 min 0,000 mm 0,0 UV-I 0 W/m -0,3 C 0,3 C 0,0 km/h (0 Bft) 95,65 %
07.03.2016 22:39 0,3 C 96 % 1005,9 hPa 0,0 l/m 0,0 km/h (0 Bft) S 173 0 min 0,000 mm 0,0 UV-I 0 W/m -0,3 C 0,3 C 0,0 km/h (0 Bft) 100,00 %
07.03.2016 22:40 0,3 C 97 % 1006,0 hPa 0,0 l/m 0,0 km/h (0 Bft) S 173 0 min 0,000 mm 0,0 UV-I 0 W/m -0,1 C 0,3 C 0,0 km/h (0 Bft) 100,00 %
07.03.2016 22:41 0,3 C 97 % 1006,0 hPa 0,0 l/m 0,0 km/h (0 Bft) S 173 0 min 0,000 mm 0,0 UV-I 0 W/m -0,1 C 0,3 C 0,0 km/h (0 Bft) 100,00 %
07.03.2016 22:42 0,3 C 97 % 1006,0 hPa 0,0 l/m 0,0 km/h (0 Bft) S 173 0 min 0,000 mm 0,0 UV-I 0 W/m -0,1 C 0,3 C 0,0 km/h (0 Bft) 100,00 %
07.03.2016 22:43 0,3 C 97 % 1006,0 hPa 0,0 l/m 0,0 km/h (0 Bft) S 173 0 min 0,000 mm 0,0 UV-I 0 W/m -0,1 C 0,3 C 0,0 km/h (0 Bft) 100,00 %
07.03.2016 22:44 0,3 C 97 % 1006,0 hPa 0,0 l/m 0,0 km/h (0 Bft) S 173 0 min 0,000 mm 0,0 UV-I 0 W/m -0,1 C 0,3 C 0,0 km/h (0 Bft) 95,65 %
07.03.2016 22:45 0,3 C 97 % 1006,0 hPa 0,0 l/m 0,0 km/h (0 Bft) S 173 0 min 0,000 mm 0,0 UV-I 0 W/m -0,1 C 0,3 C 0,0 km/h (0 Bft) 100,00 %
07.03.2016 22:46 0,3 C 97 % 1006,0 hPa 0,0 l/m 0,0 km/h (0 Bft) S 173 0 min 0,000 mm 0,0 UV-I 0 W/m -0,1 C 0,3 C 0,0 km/h (0 Bft) 100,00 %
07.03.2016 22:47 0,3 C 97 % 1006,0 hPa 0,0 l/m 0,0 km/h (0 Bft) S 173 0 min 0,000 mm 0,0 UV-I 0 W/m -0,1 C 0,3 C 0,0 km/h (0 Bft) 100,00 %
07.03.2016 22:48 0,3 C 97 % 1006,0 hPa 0,0 l/m 0,0 km/h (0 Bft) S 173 0 min 0,000 mm 0,0 UV-I 0 W/m -0,1 C 0,3 C 0,0 km/h (0 Bft) 100,00 %
07.03.2016 22:49 0,3 C 97 % 1006,0 hPa 0,0 l/m 0,0 km/h (0 Bft) S 173 0 min 0,000 mm 0,0 UV-I 0 W/m -0,1 C 0,3 C 0,0 km/h (0 Bft) 100,00 %
07.03.2016 22:50 0,3 C 97 % 1006,0 hPa 0,0 l/m 0,0 km/h (0 Bft) S 173 0 min 0,000 mm 0,0 UV-I 0 W/m -0,1 C 0,3 C 0,0 km/h (0 Bft) 100,00 %
07.03.2016 22:51 0,3 C 97 % 1006,0 hPa 0,0 l/m 0,0 km/h (0 Bft) S 173 0 min 0,000 mm 0,0 UV-I 0 W/m -0,1 C 0,3 C 0,0 km/h (0 Bft) 100,00 %
07.03.2016 22:52 0,3 C 97 % 1006,0 hPa 0,0 l/m 0,0 km/h (0 Bft) S 173 0 min 0,000 mm 0,0 UV-I 0 W/m -0,1 C 0,3 C 0,0 km/h (0 Bft) 96,15 %
07.03.2016 22:53 0,3 C 97 % 1006,0 hPa 0,0 l/m 0,0 km/h (0 Bft) S 173 0 min 0,000 mm 0,0 UV-I 0 W/m -0,1 C 0,3 C 0,0 km/h (0 Bft) 100,00 %
07.03.2016 22:54 0,3 C 97 % 1006,0 hPa 0,0 l/m 0,0 km/h (0 Bft) S 173 0 min 0,000 mm 0,0 UV-I 0 W/m -0,1 C 0,3 C 0,0 km/h (0 Bft) 100,00 %
07.03.2016 22:55 0,3 C 97 % 1006,0 hPa 0,0 l/m 0,0 km/h (0 Bft) S 173 0 min 0,000 mm 0,0 UV-I 0 W/m -0,1 C 0,3 C 0,0 km/h (0 Bft) 100,00 %
07.03.2016 22:56 0,3 C 96 % 1006,0 hPa 0,0 l/m 0,0 km/h (0 Bft) S 173 0 min 0,000 mm 0,0 UV-I 0 W/m -0,3 C 0,3 C 0,0 km/h (0 Bft) 100,00 %
07.03.2016 22:57 0,3 C 96 % 1005,9 hPa 0,0 l/m 0,0 km/h (0 Bft) S 173 0 min 0,000 mm 0,0 UV-I 0 W/m -0,3 C 0,3 C 0,0 km/h (0 Bft) 100,00 %
07.03.2016 22:58 0,3 C 96 % 1005,9 hPa 0,0 l/m 0,0 km/h (0 Bft) S 173 0 min 0,000 mm 0,0 UV-I 0 W/m -0,3 C 0,3 C 0,0 km/h (0 Bft) 100,00 %
07.03.2016 22:59 0,3 C 97 % 1006,0 hPa 0,0 l/m 0,0 km/h (0 Bft) S 173 0 min 0,000 mm 0,0 UV-I 0 W/m -0,1 C 0,3 C 0,0 km/h (0 Bft) 100,00 %
07.03.2016 23:00 0,3 C 97 % 1006,0 hPa 0,0 l/m 0,0 km/h (0 Bft) S 173 0 min 0,000 mm 0,0 UV-I 0 W/m -0,1 C 0,3 C 0,0 km/h (0 Bft) 100,00 %
07.03.2016 23:01 0,3 C 97 % 1006,0 hPa 0,0 l/m 0,0 km/h (0 Bft) S 173 0 min 0,000 mm 0,0 UV-I 0 W/m -0,1 C 0,3 C 0,0 km/h (0 Bft) 100,00 %
07.03.2016 23:02 0,3 C 97 % 1006,0 hPa 0,0 l/m 0,0 km/h (0 Bft) S 173 0 min 0,000 mm 0,0 UV-I 0 W/m -0,1 C 0,3 C 0,0 km/h (0 Bft) 100,00 %
07.03.2016 23:03 0,3 C 97 % 1006,0 hPa 0,0 l/m 0,0 km/h (0 Bft) S 173 0 min 0,000 mm 0,0 UV-I 0 W/m -0,1 C 0,3 C 0,0 km/h (0 Bft) 100,00 %
07.03.2016 23:04 0,3 C 97 % 1006,0 hPa 0,0 l/m 0,0 km/h (0 Bft) S 173 0 min 0,000 mm 0,0 UV-I 0 W/m -0,1 C 0,3 C 0,0 km/h (0 Bft) 100,00 %
07.03.2016 23:05 0,3 C 97 % 1006,0 hPa 0,0 l/m 0,0 km/h (0 Bft) S 173 0 min 0,000 mm 0,0 UV-I 0 W/m -0,1 C 0,3 C 0,0 km/h (0 Bft) 86,67 %
07.03.2016 23:06 0,3 C 97 % 1006,1 hPa 0,0 l/m 0,0 km/h (0 Bft) S 173 0 min 0,000 mm 0,0 UV-I 0 W/m -0,1 C 0,3 C 0,0 km/h (0 Bft) 100,00 %
07.03.2016 23:07 0,3 C 97 % 1006,1 hPa 0,0 l/m 0,0 km/h (0 Bft) S 173 0 min 0,000 mm 0,0 UV-I 0 W/m -0,1 C 0,3 C 0,0 km/h (0 Bft) 100,00 %
07.03.2016 23:08 0,3 C 97 % 1006,1 hPa 0,0 l/m 0,0 km/h (0 Bft) S 173 0 min 0,000 mm 0,0 UV-I 0 W/m -0,1 C 0,3 C 0,0 km/h (0 Bft) 100,00 %
07.03.2016 23:09 0,3 C 97 % 1006,1 hPa 0,0 l/m 0,0 km/h (0 Bft) S 173 0 min 0,000 mm 0,0 UV-I 0 W/m -0,1 C 0,3 C 0,0 km/h (0 Bft) 96,15 %
07.03.2016 23:10 0,3 C 97 % 1006,1 hPa 0,0 l/m 0,0 km/h (0 Bft) S 173 0 min 0,000 mm 0,0 UV-I 0 W/m -0,1 C 0,3 C 0,0 km/h (0 Bft) 100,00 %
07.03.2016 23:11 0,3 C 97 % 1006,0 hPa 0,0 l/m 0,0 km/h (0 Bft) S 173 0 min 0,000 mm 0,0 UV-I 0 W/m -0,1 C 0,3 C 0,0 km/h (0 Bft) 100,00 %
07.03.2016 23:12 0,3 C 97 % 1006,1 hPa 0,0 l/m 0,0 km/h (0 Bft) S 173 0 min 0,000 mm 0,0 UV-I 0 W/m -0,1 C 0,3 C 0,0 km/h (0 Bft) 100,00 %
07.03.2016 23:13 0,3 C 97 % 1006,0 hPa 0,0 l/m 0,0 km/h (0 Bft) S 173 0 min 0,000 mm 0,0 UV-I 0 W/m -0,1 C 0,3 C 0,0 km/h (0 Bft) 100,00 %
07.03.2016 23:14 0,3 C 97 % 1006,0 hPa 0,0 l/m 0,0 km/h (0 Bft) S 173 0 min 0,000 mm 0,0 UV-I 0 W/m -0,1 C 0,3 C 0,0 km/h (0 Bft) 95,83 %
07.03.2016 23:15 0,3 C 97 % 1006,1 hPa 0,0 l/m 0,0 km/h (0 Bft) S 173 0 min 0,000 mm 0,0 UV-I 0 W/m -0,1 C 0,3 C 0,0 km/h (0 Bft) 95,65 %
07.03.2016 23:16 0,3 C 97 % 1006,0 hPa 0,0 l/m 0,0 km/h (0 Bft) S 173 0 min 0,000 mm 0,0 UV-I 0 W/m -0,1 C 0,3 C 0,0 km/h (0 Bft) 100,00 %
07.03.2016 23:17 0,3 C 97 % 1006,1 hPa 0,0 l/m 0,0 km/h (0 Bft) S 173 0 min 0,000 mm 0,0 UV-I 0 W/m -0,1 C 0,3 C 0,0 km/h (0 Bft) 100,00 %
07.03.2016 23:18 0,3 C 97 % 1006,1 hPa 0,0 l/m 0,0 km/h (0 Bft) S 173 0 min 0,000 mm 0,0 UV-I 0 W/m -0,1 C 0,3 C 0,0 km/h (0 Bft) 100,00 %
07.03.2016 23:19 0,3 C 97 % 1006,1 hPa 0,0 l/m 0,0 km/h (0 Bft) S 173 0 min 0,000 mm 0,0 UV-I 0 W/m -0,1 C 0,3 C 0,0 km/h (0 Bft) 100,00 %
07.03.2016 23:20 0,3 C 97 % 1006,1 hPa 0,0 l/m 0,0 km/h (0 Bft) S 173 0 min 0,000 mm 0,0 UV-I 0 W/m -0,1 C 0,3 C 0,0 km/h (0 Bft) 96,15 %
07.03.2016 23:21 0,3 C 97 % 1006,1 hPa 0,0 l/m 0,0 km/h (0 Bft) S 173 0 min 0,000 mm 0,0 UV-I 0 W/m -0,1 C 0,3 C 0,0 km/h (0 Bft) 100,00 %
07.03.2016 23:22 0,3 C 97 % 1006,1 hPa 0,0 l/m 0,0 km/h (0 Bft) S 173 0 min 0,000 mm 0,0 UV-I 0 W/m -0,1 C 0,3 C 0,0 km/h (0 Bft) 100,00 %
07.03.2016 23:23 0,3 C 97 % 1006,1 hPa 0,0 l/m 0,0 km/h (0 Bft) S 173 0 min 0,000 mm 0,0 UV-I 0 W/m -0,1 C 0,3 C 0,0 km/h (0 Bft) 100,00 %
07.03.2016 23:24 0,3 C 97 % 1006,1 hPa 0,0 l/m 0,0 km/h (0 Bft) S 173 0 min 0,000 mm 0,0 UV-I 0 W/m -0,1 C 0,3 C 0,0 km/h (0 Bft) 100,00 %
07.03.2016 23:25 0,3 C 97 % 1006,1 hPa 0,0 l/m 0,0 km/h (0 Bft) S 173 0 min 0,000 mm 0,0 UV-I 0 W/m -0,1 C 0,3 C 0,0 km/h (0 Bft) 100,00 %
07.03.2016 23:26 0,3 C 97 % 1006,1 hPa 0,0 l/m 0,0 km/h (0 Bft) S 173 0 min 0,000 mm 0,0 UV-I 0 W/m -0,1 C 0,3 C 0,0 km/h (0 Bft) 100,00 %
07.03.2016 23:27 0,3 C 97 % 1006,1 hPa 0,0 l/m 0,0 km/h (0 Bft) S 173 0 min 0,000 mm 0,0 UV-I 0 W/m -0,1 C 0,3 C 0,0 km/h (0 Bft) 100,00 %
07.03.2016 23:28 0,3 C 97 % 1006,2 hPa 0,0 l/m 0,0 km/h (0 Bft) S 173 0 min 0,000 mm 0,0 UV-I 0 W/m -0,1 C 0,3 C 0,0 km/h (0 Bft) 100,00 %
07.03.2016 23:29 0,3 C 97 % 1006,2 hPa 0,0 l/m 0,0 km/h (0 Bft) S 173 0 min 0,000 mm 0,0 UV-I 0 W/m -0,1 C 0,3 C 0,0 km/h (0 Bft) 100,00 %
07.03.2016 23:30 0,3 C 97 % 1006,2 hPa 0,0 l/m 0,0 km/h (0 Bft) S 173 0 min 0,000 mm 0,0 UV-I 0 W/m -0,1 C 0,3 C 0,0 km/h (0 Bft) 100,00 %
07.03.2016 23:31 0,3 C 97 % 1006,2 hPa 0,0 l/m 0,0 km/h (0 Bft) S 173 0 min 0,000 mm 0,0 UV-I 0 W/m -0,1 C 0,3 C 0,0 km/h (0 Bft) 100,00 %
07.03.2016 23:32 0,3 C 97 % 1006,2 hPa 0,0 l/m 0,0 km/h (0 Bft) S 173 0 min 0,000 mm 0,0 UV-I 0 W/m -0,1 C 0,3 C 0,0 km/h (0 Bft) 100,00 %
07.03.2016 23:33 0,3 C 97 % 1006,2 hPa 0,0 l/m 0,0 km/h (0 Bft) S 173 0 min 0,000 mm 0,0 UV-I 0 W/m -0,1 C 0,3 C 0,0 km/h (0 Bft) 100,00 %
07.03.2016 23:34 0,3 C 97 % 1006,2 hPa 0,0 l/m 0,0 km/h (0 Bft) S 173 0 min 0,000 mm 0,0 UV-I 0 W/m -0,1 C 0,3 C 0,0 km/h (0 Bft) 100,00 %
07.03.2016 23:35 0,3 C 97 % 1006,2 hPa 0,0 l/m 0,0 km/h (0 Bft) S 173 0 min 0,000 mm 0,0 UV-I 0 W/m -0,1 C 0,3 C 0,0 km/h (0 Bft) 100,00 %
07.03.2016 23:36 0,3 C 97 % 1006,2 hPa 0,0 l/m 0,0 km/h (0 Bft) S 173 0 min 0,000 mm 0,0 UV-I 0 W/m -0,1 C 0,3 C 0,0 km/h (0 Bft) 100,00 %
07.03.2016 23:37 0,3 C 97 % 1006,2 hPa 0,0 l/m 0,0 km/h (0 Bft) S 173 0 min 0,000 mm 0,0 UV-I 0 W/m -0,1 C 0,3 C 0,0 km/h (0 Bft) 100,00 %
07.03.2016 23:38 0,3 C 97 % 1006,2 hPa 0,0 l/m 0,0 km/h (0 Bft) S 173 0 min 0,000 mm 0,0 UV-I 0 W/m -0,1 C 0,3 C 0,0 km/h (0 Bft) 100,00 %
07.03.2016 23:39 0,3 C 97 % 1006,2 hPa 0,0 l/m 0,0 km/h (0 Bft) S 173 0 min 0,000 mm 0,0 UV-I 0 W/m -0,1 C 0,3 C 0,0 km/h (0 Bft) 100,00 %
07.03.2016 23:40 0,3 C 97 % 1006,2 hPa 0,0 l/m 0,0 km/h (0 Bft) S 173 0 min 0,000 mm 0,0 UV-I 0 W/m -0,1 C 0,3 C 0,0 km/h (0 Bft) 100,00 %
07.03.2016 23:41 0,3 C 97 % 1006,1 hPa 0,0 l/m 0,0 km/h (0 Bft) S 173 0 min 0,000 mm 0,0 UV-I 0 W/m -0,1 C 0,3 C 0,0 km/h (0 Bft) 97,37 %
07.03.2016 23:42 0,3 C 97 % 1006,2 hPa 0,0 l/m 0,0 km/h (0 Bft) S 173 0 min 0,000 mm 0,0 UV-I 0 W/m -0,1 C 0,3 C 0,0 km/h (0 Bft) 100,00 %
07.03.2016 23:43 0,3 C 97 % 1006,2 hPa 0,0 l/m 0,0 km/h (0 Bft) S 173 0 min 0,000 mm 0,0 UV-I 0 W/m -0,1 C 0,3 C 0,0 km/h (0 Bft) 100,00 %
07.03.2016 23:44 0,3 C 97 % 1006,2 hPa 0,0 l/m 0,0 km/h (0 Bft) S 173 0 min 0,000 mm 0,0 UV-I 0 W/m -0,1 C 0,3 C 0,0 km/h (0 Bft) 98,64 %
07.03.2016 23:45 0,3 C 97 % 1006,2 hPa 0,0 l/m 0,0 km/h (0 Bft) S 173 0 min 0,000 mm 0,0 UV-I 0 W/m -0,1 C 0,3 C 0,0 km/h (0 Bft) 97,56 %
07.03.2016 23:46 0,3 C 97 % 1006,2 hPa 0,0 l/m 0,0 km/h (0 Bft) S 173 0 min 0,000 mm 0,0 UV-I 0 W/m -0,1 C 0,3 C 0,0 km/h (0 Bft) 100,00 %
07.03.2016 23:47 0,3 C 97 % 1006,2 hPa 0,0 l/m 0,0 km/h (0 Bft) S 173 0 min 0,000 mm 0,0 UV-I 0 W/m -0,1 C 0,3 C 0,0 km/h (0 Bft) 100,00 %
07.03.2016 23:48 0,3 C 97 % 1006,2 hPa 0,0 l/m 0,0 km/h (0 Bft) S 173 0 min 0,000 mm 0,0 UV-I 0 W/m -0,1 C 0,3 C 0,0 km/h (0 Bft) 100,00 %
07.03.2016 23:49 0,3 C 97 % 1006,2 hPa 0,0 l/m 0,0 km/h (0 Bft) S 173 0 min 0,000 mm 0,0 UV-I 0 W/m -0,1 C 0,3 C 0,0 km/h (0 Bft) 100,00 %
07.03.2016 23:50 0,3 C 97 % 1006,3 hPa 0,0 l/m 0,0 km/h (0 Bft) S 173 0 min 0,000 mm 0,0 UV-I 0 W/m -0,1 C 0,3 C 0,0 km/h (0 Bft) 100,00 %
07.03.2016 23:51 0,3 C 97 % 1006,2 hPa 0,0 l/m 0,0 km/h (0 Bft) S 173 0 min 0,000 mm 0,0 UV-I 0 W/m -0,1 C 0,3 C 0,0 km/h (0 Bft) 100,00 %
07.03.2016 23:52 0,3 C 97 % 1006,2 hPa 0,0 l/m 0,0 km/h (0 Bft) S 173 0 min 0,000 mm 0,0 UV-I 0 W/m -0,1 C 0,3 C 0,0 km/h (0 Bft) 100,00 %
07.03.2016 23:53 0,3 C 97 % 1006,3 hPa 0,0 l/m 0,0 km/h (0 Bft) S 173 0 min 0,000 mm 0,0 UV-I 0 W/m -0,1 C 0,3 C 0,0 km/h (0 Bft) 95,65 %
07.03.2016 23:54 0,3 C 97 % 1006,3 hPa 0,0 l/m 0,0 km/h (0 Bft) S 173 0 min 0,000 mm 0,0 UV-I 0 W/m -0,1 C 0,3 C 0,0 km/h (0 Bft) 100,00 %
07.03.2016 23:55 0,3 C 97 % 1006,3 hPa 0,0 l/m 0,0 km/h (0 Bft) S 173 0 min 0,000 mm 0,0 UV-I 0 W/m -0,1 C 0,3 C 0,0 km/h (0 Bft) 100,00 %
07.03.2016 23:56 0,3 C 97 % 1006,3 hPa 0,0 l/m 0,0 km/h (0 Bft) S 173 0 min 0,000 mm 0,0 UV-I 0 W/m -0,1 C 0,3 C 0,0 km/h (0 Bft) 100,00 %
07.03.2016 23:57 0,3 C 97 % 1006,3 hPa 0,0 l/m 0,0 km/h (0 Bft) S 173 0 min 0,000 mm 0,0 UV-I 0 W/m -0,1 C 0,3 C 0,0 km/h (0 Bft) 100,00 %
07.03.2016 23:58 0,3 C 97 % 1006,3 hPa 0,0 l/m 0,0 km/h (0 Bft) S 173 0 min 0,000 mm 0,0 UV-I 0 W/m -0,1 C 0,3 C 0,0 km/h (0 Bft) 95,83 %
07.03.2016 23:59 0,3 C 97 % 1006,4 hPa 0,0 l/m 0,0 km/h (0 Bft) S 173 0 min 0,000 mm 0,0 UV-I 0 W/m -0,1 C 0,3 C 0,0 km/h (0 Bft) 92,31 %
_ Min-Zeit 21:25 13:38 14:27 - 03:32 - - - - - - 00:02 09:08 03:32 12:25
Minimum _ 0,3 C 60 % 1003,1 hPa - 0,0 km/h (0 Bft) - - - - - - -2,2 C -0,8 C 0,0 km/h (0 Bft) 83,33 %
_ Max-Zeit 13:29 22:40 23:59 19:32 09:08 - - 08:42 14:02 12:12 10:58 11:01 13:29 09:05 00:02
Maximum _ 6,0 C 97 % 1006,4 hPa 0,2 l/m 10,5 km/h
W-SW (2 Bft)
- - 1 min 0,178 mm 2,0 UV-I 833 W/m 0,8 C 6,0 C 14,5 km/h
W (3 Bft)
100,00 %
Durchschnitt _ 2,7 C 79 % 1004,4 hPa #0,6 l/m 2,9 km/h (1 Bft) SW - #1:30 h #0,864 mm 1,1 UV-I 173 W/m -0,7 C 2,6 C 4,5 km/h (1 Bft) 98,63 %